[[[{"header":{"parameterUnit":"kt","parameterCategory":2,"dx":1,"dy":1,"la1":29.285339999999998,"la2":30.599998999999997,"lo1":-89.70041500000002,"lo2":-87.6738589999976,"nx":112,"ny":82,"refTime":"2022-10-26T06:00:00:Z","depth":0,"parameterNumber":1,"parameterNumberName":"U-component_of_WINDS"},"data":[8.1951,8.3494,8.2111,7.1308,6.4903,5.725,4.1781,3.7496,3.5808,3.2367,3.2635,3.4664,3.8773,3.1821,2.6426,2.9232,0.0,0.0,0.0,2.0073,2.1261,0.0,0.0,0.0,0.0,0.0,4.6736,6.4217,6.4468,7.34,9.5432,9.9977,10.5489,11.3095,11.2241,11.0596,10.8278,10.8278,10.8278,10.8278,10.8278,10.9175,11.0821,11.1419,11.3139,11.5681,11.6279,11.7177,11.8149,11.8149,11.8149,11.8149,11.8149,11.8149,11.8149,11.8149,11.8149,11.8149,11.8149,11.8149,11.8149,11.8149,11.8149,11.8298,11.8897,11.9794,12.114,12.3308,12.4729,12.5926,12.7646,12.8094,12.8094,12.8094,12.8094,12.8094,12.8094,12.8094,12.8094,12.8094,12.8094,12.8094,12.8094,12.8094,12.8094,12.8094,12.8094,12.8094,12.8094,12.8094,12.8094,12.8094,13.101,13.3403,13.46,13.6619,13.7815,13.7815,13.7815,13.7815,13.7815,13.7815,13.7815,13.7815,13.7815,13.7815,13.7815,13.7815,13.7815,13.7815,13.7815,13.7815,7.1351,7.3223,7.1954,5.9283,5.3058,4.6167,3.1805,2.7716,2.6038,2.2613,2.6119,2.9378,2.8114,2.5982,2.4543,2.5119,2.3576,2.1784,0.0,2.0311,2.1618,2.4316,0.0,0.0,0.0,4.8519,5.5615,7.0555,7.0725,7.8744,9.8374,10.2944,10.7538,11.3139,11.1643,10.9998,10.8278,10.8278,10.8278,10.8278,10.8278,10.8876,10.9923,11.0521,11.2316,11.4933,11.5457,11.6578,11.8149,11.8149,11.8149,11.8149,11.8149,11.8149,11.8149,11.8149,11.8149,11.8149,11.8149,11.8149,11.8149,11.8149,11.8149,11.8149,11.8149,11.8971,12.0317,12.2486,12.3907,12.5253,12.7496,12.8094,12.8094,12.8094,12.8094,12.8094,12.8094,12.8094,12.8094,12.8094,12.8094,12.8094,12.8094,12.8094,12.8094,12.8094,12.8094,12.8094,12.8094,12.8094,12.8319,12.8842,13.131,13.3179,13.3777,13.632,13.7815,13.7815,13.7815,13.7815,13.7815,13.7815,13.7815,13.7815,13.7815,13.7815,13.7815,13.7815,13.7815,13.7815,13.7815,13.7815,6.2323,5.8038,5.3842,4.6095,3.7603,3.0418,2.7375,2.6574,2.5519,2.2421,2.5612,2.8026,2.4784,2.4095,2.3511,2.1928,2.3034,0.0,0.0,2.1406,2.329,2.8201,4.2282,5.3024,5.6894,5.577,6.1548,7.809,7.2187,7.8643,10.3657,10.5117,10.7612,11.3139,11.1643,10.9923,10.8278,10.8278,10.8278,10.8278,10.8278,10.8278,10.8353,10.9923,11.1643,11.3363,11.4859,11.6504,11.8074,11.8074,11.8149,11.8149,11.8149,11.8149,11.8149,11.8149,11.8149,11.8149,11.8149,11.8149,11.8149,11.8149,11.8149,11.8149,11.8149,11.8149,11.8897,12.2112,12.3084,12.3832,12.7197,12.8094,12.8094,12.8094,12.8094,12.8094,12.8094,12.8094,12.8094,12.8094,12.8094,12.8094,12.8094,12.8094,12.8094,12.8094,12.8094,12.8094,12.8094,12.8094,12.8692,13.0263,13.1983,13.3628,13.5348,13.6918,13.7815,13.7815,13.7815,13.7815,13.7815,13.7815,13.7815,13.7815,13.7815,13.7815,13.7815,13.7815,13.7815,13.7815,13.7815,13.7815,4.6927,4.8334,4.8737,4.161,3.8984,3.568,2.6484,2.2744,2.1331,2.1477,2.1858,0.0,0.0,0.0,2.238,2.3013,0.0,2.8386,2.5076,3.0684,4.0147,5.3385,5.7774,6.4242,7.5705,7.2852,7.6432,9.1297,8.7379,9.0356,10.4177,10.7676,11.051,11.3288,11.0447,10.8727,10.8278,10.8278,10.8278,10.8278,10.8278,10.8278,10.8278,10.8727,10.9848,11.1494,11.1942,11.3737,11.6354,11.6354,11.7102,11.8149,11.8149,11.8149,11.8149,11.8149,11.8149,11.8149,11.8149,11.8149,11.8149,11.8149,11.8149,11.8149,11.8149,11.8149,11.8897,12.2112,12.3084,12.3832,12.7197,12.8094,12.8094,12.8094,12.8094,12.8094,12.8094,12.8094,12.8094,12.8094,12.8094,12.8094,12.8094,12.8094,12.8094,12.8094,12.8094,12.8094,12.8094,12.8094,12.8692,13.0263,13.1983,13.3628,13.5348,13.6918,13.7815,13.7815,13.7815,13.7815,13.7815,13.7815,13.7815,13.7815,13.7815,13.7815,13.7815,13.7815,13.7815,13.7815,13.7815,13.7815,3.9024,4.1133,4.2509,3.5304,3.5865,3.5187,2.4051,2.1273,2.1013,2.0494,0.0,0.0,0.0,0.0,0.0,0.0,3.1792,3.7207,3.3984,4.3349,5.3512,6.1613,6.586,7.3019,8.5337,8.4576,8.8269,10.017,9.6576,9.809,10.7928,11.0616,11.2316,11.3288,11.0073,10.8278,10.8278,10.8278,10.8278,10.8278,10.8278,10.8278,10.8278,10.8278,10.9175,11.0746,11.0746,11.2615,11.5681,11.5681,11.6653,11.8074,11.7401,11.7551,11.8149,11.8149,11.8149,11.8149,11.8149,11.8149,11.8149,11.8149,11.8149,11.8149,11.8149,11.8149,11.8897,12.2112,12.3084,12.3832,12.7197,12.8094,12.8094,12.8094,12.8094,12.8094,12.8094,12.8094,12.8094,12.8094,12.8094,12.8094,12.8094,12.8094,12.8094,12.8094,12.8094,12.8094,12.8094,12.8094,12.8991,13.1235,13.2356,13.3927,13.6245,13.7292,13.7815,13.7815,13.7815,13.7815,13.7815,13.7815,13.7815,13.7815,13.7815,13.7815,13.7815,13.7815,13.7815,13.7815,13.7815,13.7815,3.54,3.5169,3.5513,2.8828,3.011,3.0769,2.2206,0.0,2.412,2.2858,0.0,2.233,2.4426,0.0,0.0,2.6186,3.9069,4.8173,4.5864,5.8873,6.742,6.3961,7.2208,8.1484,9.0046,9.2674,9.7213,10.5333,10.1733,10.3319,11.284,11.3139,11.3139,11.3363,11.0222,10.8428,10.8278,10.8278,10.8278,10.8278,10.8278,10.8278,10.8278,10.8278,10.9101,11.0521,11.0521,11.2241,11.5083,11.5083,11.6205,11.7775,11.6279,11.6578,11.7924,11.8074,11.8149,11.8149,11.8149,11.8149,11.8149,11.8149,11.8149,11.8149,11.8149,11.8149,11.8897,12.2112,12.3084,12.3832,12.7197,12.8094,12.8094,12.8094,12.8094,12.8094,12.8094,12.8094,12.8094,12.8094,12.8094,12.8094,12.8094,12.8094,12.8094,12.8094,12.8094,12.8094,12.8094,12.8244,12.9515,13.2656,13.3179,13.4525,13.7591,13.7815,13.7815,13.7815,13.7815,13.7815,13.7815,13.7815,13.7815,13.7815,13.7815,13.7815,13.7815,13.7815,13.7815,13.7815,13.7815,13.7815,2.8157,2.7423,2.841,2.7104,2.5674,2.559,0.0,0.0,0.0,4.2387,4.0999,3.9618,4.4789,4.2249,4.1045,4.6131,5.3339,5.7261,5.4391,7.7592,9.4457,9.3118,9.4755,9.7324,10.0392,9.9908,10.1245,10.5564,10.6135,10.8386,11.3064,11.2017,11.1867,11.3288,11.1344,10.9624,10.8278,10.8278,10.8278,10.8278,10.8278,10.8278,10.8278,10.8278,10.8428,10.8727,10.8727,10.9848,11.1718,11.1718,11.3438,11.613,11.5831,11.5831,11.6354,11.77,11.8149,11.8149,11.8149,11.8149,11.8149,11.8149,11.8149,11.8149,11.8149,11.8149,11.8897,12.2112,12.3084,12.3832,12.7197,12.8094,12.8094,12.8094,12.8094,12.8094,12.8094,12.8094,12.8094,12.8094,12.8094,12.8094,12.8094,12.8094,12.8094,12.8094,12.8094,12.8094,12.8094,12.9216,13.0711,13.273,13.4226,13.5796,13.7666,13.7815,13.7815,13.7815,13.7815,13.7815,13.7815,13.7815,13.7815,13.7815,13.7815,13.7815,13.7815,13.7815,13.7815,13.7815,13.7815,13.7815,2.5862,2.5246,2.5927,2.4481,2.4302,0.0,0.0,2.8378,3.1156,4.6243,4.441,4.3285,5.377,5.3886,5.3369,5.6138,6.5433,7.2164,7.1709,8.4869,9.4697,9.5116,9.5112,9.7039,10.1748,10.1534,10.2391,10.5711,10.819,11.0671,11.3213,11.254,11.2466,11.3288,11.1643,10.9998,10.8278,10.8278,10.8278,10.8278,10.8278,10.8278,10.8278,10.8278,10.8278,10.8278,10.8278,10.925,11.0746,11.0746,11.1718,11.3288,11.4186,11.4933,11.5905,11.7551,11.8149,11.8149,11.8149,11.8149,11.8149,11.8149,11.8149,11.8149,11.8149,11.8149,11.8897,12.2112,12.3084,12.3832,12.7197,12.8094,12.8094,12.8094,12.8094,12.8094,12.8094,12.8094,12.8094,12.8094,12.8094,12.8094,12.8094,12.8094,12.8094,12.8094,12.8094,12.8094,12.8094,12.944,13.1085,13.2805,13.445,13.6095,13.7666,13.7815,13.7815,13.7815,13.7815,13.7815,13.7815,13.7815,13.7815,13.7815,13.7815,13.7815,13.7815,13.7815,13.7815,13.7815,13.7815,13.7815,2.4516,2.4269,2.4756,2.2884,2.3851,0.0,2.9858,2.9426,3.3062,5.0381,4.9612,4.9716,6.2696,6.4895,6.4898,6.5359,7.5951,8.5148,8.783,8.8548,8.919,9.0474,9.0617,9.34,10.0392,10.0987,10.2255,10.5637,10.8535,11.1033,11.3213,11.3363,11.3438,11.3812,11.2167,11.0447,10.8802,10.8428,10.8278,10.8278,10.8278,10.8278,10.8278,10.8278,10.8278,10.8278,10.8278,10.9026,11.0297,11.0297,11.0297,11.0447,11.2167,11.3812,11.5382,11.7102,11.7924,11.8149,11.8149,11.8149,11.8149,11.8149,11.8149,11.8149,11.8149,11.8149,11.8747,12.1364,12.2561,12.3832,12.7197,12.8094,12.8094,12.8094,12.8094,12.8094,12.8094,12.8094,12.8094,12.8094,12.8094,12.8094,12.8094,12.8094,12.8094,12.8094,12.8094,12.8094,12.8094,12.9739,13.1459,13.2805,13.4749,13.6469,13.7666,13.7815,13.7815,13.7815,13.7815,13.7815,13.7815,13.7815,13.7815,13.7815,13.7815,13.7815,13.7815,13.7815,13.7815,13.7815,13.7815,13.7815,2.0562,2.1003,2.2621,2.4954,2.3072,0.0,3.9123,4.4384,5.1392,7.0287,7.4654,7.6967,8.2707,7.9865,7.8001,8.2233,8.4353,8.7265,9.2399,9.4399,9.5398,9.554,9.5612,9.7039,10.0678,10.0449,10.1726,10.5627,10.6948,10.9229,11.3095,11.3363,11.3961,11.5382,11.3886,11.2241,11.0521,10.9026,10.8278,10.8278,10.8278,10.8278,10.8278,10.8278,10.8278,10.8278,10.8278,10.8353,10.8502,10.8502,10.8502,10.8727,11.0372,11.2092,11.3812,11.5382,11.6878,11.8149,11.8149,11.8149,11.8149,11.8149,11.8149,11.8149,11.8149,11.8149,11.8224,11.8597,12.0841,12.3832,12.7197,12.8094,12.8094,12.8094,12.8094,12.8094,12.8094,12.8094,12.8094,12.8094,12.8094,12.8094,12.8094,12.8094,12.8094,12.8094,12.8094,12.8094,12.8094,13.0786,13.273,13.2955,13.5721,13.7591,13.7815,13.7815,13.7815,13.7815,13.7815,13.7815,13.7815,13.7815,13.7815,13.7815,13.7815,13.7815,13.7815,13.7815,13.7815,13.7815,13.7815,13.7815,1.8416,1.8633,1.9621,2.17,0.0,0.0,3.9196,4.5098,5.3764,7.3294,7.7242,8.0103,8.9787,8.9733,8.8614,9.0181,9.0462,9.1247,9.3539,9.447,9.4898,9.4898,9.4898,9.6183,9.9393,9.9875,10.1575,10.5627,10.6615,10.8091,11.0254,11.2241,11.4036,11.5606,11.5008,11.3438,11.0821,11.0073,10.925,10.8278,10.8278,10.8278,10.8278,10.8278,10.8278,10.8278,10.8278,10.8278,10.8278,10.8278,10.8278,10.8428,11.0148,11.1793,11.3513,11.5083,11.6728,11.8149,11.8149,11.8149,11.8149,11.8149,11.8149,11.8149,11.8149,11.8149,11.8373,11.9345,12.1289,12.3832,12.7197,12.8094,12.8094,12.8094,12.8094,12.8094,12.8094,12.8094,12.8094,12.8094,12.8169,12.8319,12.8319,12.8319,12.8319,12.8319,12.8169,12.8094,12.8094,13.0936,13.2955,13.2955,13.5871,13.7815,13.7815,13.7815,13.7815,13.7815,13.7815,13.7815,13.7815,13.7815,13.7815,13.7815,13.7815,13.7815,13.7815,13.7815,13.7815,13.7815,13.7815,13.7815,1.7777,0.0,0.0,0.0,0.0,0.0,4.6457,5.2252,5.9806,7.6296,8.0057,8.3321,9.2957,9.4683,9.4683,9.4548,9.4338,9.4195,9.4195,9.3976,9.3899,9.3899,9.4327,9.5834,9.8779,10.0159,10.2405,10.5991,10.7015,10.7687,10.8278,11.1494,11.426,11.6279,11.5905,11.4559,11.2167,11.1269,11.0148,10.8951,10.8502,10.8278,10.8278,10.8278,10.8278,10.8278,10.8278,10.8278,10.8278,10.8278,10.8278,10.8353,10.9624,11.1419,11.3438,11.4559,11.6354,11.8149,11.8149,11.8149,11.8149,11.8149,11.8149,11.8149,11.8149,11.8149,11.8523,12.0243,12.1813,12.3757,12.6673,12.772,12.8094,12.8094,12.8094,12.8094,12.8094,12.8094,12.8094,12.8169,12.8319,12.8539,12.8631,12.8599,12.8588,12.8517,12.8393,12.8244,12.8094,13.101,13.3029,13.2955,13.5871,13.7815,13.7815,13.7815,13.7815,13.7815,13.7815,13.7815,13.7815,13.7815,13.7815,13.7815,13.7815,13.7815,13.7815,13.7815,13.7815,13.7815,13.7815,13.7815,0.0,0.0,0.0,4.0504,4.2408,4.597,6.7143,7.2948,7.6205,8.3928,8.9606,9.3471,9.3828,9.3899,9.4408,9.5882,9.5519,9.5011,9.5011,9.4338,9.3899,9.3899,9.5326,9.7278,9.9649,10.1967,10.43,10.692,10.7779,10.8278,10.8278,11.1494,11.4784,11.7999,11.6504,11.5606,11.5532,11.2391,11.0746,11.0671,10.9026,10.8278,10.8278,10.8278,10.8278,10.8278,10.8278,10.8278,10.8278,10.8278,10.8278,10.8278,10.8353,11.0372,11.3363,11.3363,11.5457,11.8149,11.8149,11.8149,11.8149,11.8149,11.8149,11.8149,11.8149,11.8149,11.8523,12.0243,12.1813,12.3458,12.5178,12.6898,12.8094,12.8094,12.8094,12.8094,12.8094,12.8094,12.8169,12.8393,12.8468,12.8588,12.8962,12.9021,12.892,12.8511,12.8816,12.8816,12.8169,13.116,13.3202,13.3029,13.5871,13.7815,13.7815,13.7815,13.7815,13.7815,13.7815,13.7815,13.7815,13.7815,13.7815,13.7815,13.7815,13.7815,13.7815,13.7815,13.7815,13.7815,13.7815,13.7815,2.3694,2.8525,3.4928,4.5438,5.3031,6.0011,6.8171,7.6253,8.287,8.5771,9.0403,9.4195,9.5278,9.5018,9.4818,9.5332,9.5205,9.4885,9.4338,9.4049,9.4327,9.5398,9.604,9.7708,10.1097,10.2688,10.4431,10.692,10.7825,10.8278,10.8278,11.1494,11.3558,11.4089,11.6198,11.6803,11.5681,11.4559,11.2914,11.0821,11.0222,10.9325,10.8278,10.8278,10.8278,10.8278,10.8278,10.8278,10.8278,10.8278,10.8278,10.8278,10.8278,11.0372,11.3363,11.3363,11.5382,11.8149,11.8149,11.8149,11.8149,11.8149,11.8149,11.8149,11.8149,11.8971,12.0168,12.1813,12.3458,12.5103,12.6823,12.7646,12.8094,12.8094,12.8094,12.8094,12.8094,12.8244,12.8468,12.8816,12.904,12.9134,12.9318,12.9347,12.922,12.8909,12.9017,12.8932,12.8428,13.1273,13.3277,13.3202,13.6021,13.7815,13.7815,13.7815,13.7815,13.7815,13.7815,13.7815,13.7815,13.7815,13.7815,13.7815,13.7815,13.7815,13.7815,13.7815,13.7815,13.7815,13.7815,13.7815,2.9722,3.5598,4.2228,5.5932,6.5262,7.2175,7.6598,8.3364,8.8755,8.9188,9.1761,9.4339,9.5581,9.5642,9.5457,9.5457,9.5457,9.5141,9.4408,9.4049,9.4541,9.6183,9.7203,9.8938,10.2369,10.3928,10.5489,10.7347,10.7989,10.8278,10.8278,11.1494,11.3035,11.2453,11.5854,11.7317,11.6578,11.598,11.4335,11.1718,11.1045,10.9923,10.8278,10.8278,10.8278,10.8278,10.8278,10.8278,10.8278,10.8278,10.8278,10.8278,10.8278,11.0372,11.3363,11.3363,11.5382,11.8149,11.8149,11.8149,11.8149,11.8149,11.8149,11.8149,11.8149,11.9345,12.1065,12.2635,12.4281,12.5926,12.7646,12.8094,12.8094,12.8094,12.8094,12.8094,12.8169,12.8333,12.8649,12.9093,12.9376,12.9463,12.9691,12.9676,12.9536,12.9244,12.9317,12.9219,12.8738,13.1554,13.351,13.3329,13.6021,13.7815,13.7815,13.7815,13.7815,13.7815,13.7815,13.7815,13.7815,13.7815,13.7815,13.7815,13.7815,13.7815,13.7815,13.7815,13.7815,13.7815,13.7815,13.7815,3.6986,4.1982,4.8186,7.1618,7.8686,8.237,9.1757,9.3899,9.3899,9.3974,9.3899,9.4122,9.4952,9.5642,9.6171,9.6171,9.6171,9.5882,9.5149,9.4338,9.4541,9.633,9.8578,10.0848,10.3342,10.571,10.7422,10.8236,10.8278,10.8278,10.8278,11.1419,11.317,11.32,11.545,11.716,11.8057,11.6533,11.4964,11.3438,11.1793,11.0073,10.8428,10.8428,10.8353,10.8278,10.8278,10.8278,10.8278,10.8353,10.8428,10.8428,10.8428,11.0447,11.3438,11.3363,11.5382,11.8149,11.8149,11.8149,11.8149,11.8149,11.8149,11.8224,11.8298,11.9495,12.114,12.271,12.443,12.6075,12.772,12.8094,12.8094,12.8094,12.8094,12.8169,12.8393,12.8499,12.8716,12.9372,12.9463,12.9615,12.9994,13.007,12.9894,12.9488,12.9737,12.9776,12.9172,13.192,13.3761,13.343,13.6095,13.7815,13.7815,13.7815,13.7815,13.7815,13.789,13.789,13.789,13.789,13.789,13.789,13.789,13.789,13.789,13.7815,13.7815,13.7815,13.7815,13.7815,4.3354,5.7001,6.8745,8.0539,8.691,9.0757,9.3254,9.3899,9.4049,9.4687,9.4267,9.4122,9.4952,9.5205,9.5332,9.5332,9.5332,9.5083,9.4339,9.3976,9.5196,9.8648,9.9577,10.1547,10.5784,10.6719,10.7422,10.8236,10.8278,10.8278,10.8278,11.0297,11.141,11.1311,11.3641,11.5327,11.6091,11.6386,11.6028,11.5083,11.4634,11.2914,11.0148,11.0148,10.9475,10.8278,10.8278,10.8278,10.8353,10.9624,11.0148,11.0148,11.0148,11.2167,11.4933,11.3737,11.5382,11.8149,11.8149,11.8149,11.8149,11.8149,11.8149,11.8448,11.9644,12.114,12.2785,12.4505,12.615,12.7571,12.7945,12.8094,12.8094,12.8094,12.8094,12.8094,12.8169,12.8586,12.9106,12.9741,12.9918,12.9918,12.9994,13.007,12.9894,12.9488,12.9794,12.9894,12.9426,13.2008,13.3912,13.3828,13.6192,13.7815,13.7815,13.7815,13.7965,13.8189,13.8264,13.8339,13.8638,13.8691,13.8563,13.8264,13.8264,13.8264,13.8264,13.7965,13.7815,13.7815,13.7815,13.7815,4.1542,5.9677,7.6956,8.6904,9.1606,9.3899,9.3899,9.3899,9.3976,9.4479,9.4195,9.4122,9.4952,9.5011,9.5011,9.5011,9.5011,9.4751,9.4048,9.4195,9.577,9.9501,10.0517,10.2608,10.6697,10.7373,10.7779,10.8278,10.8278,10.8278,10.8278,11.0596,11.1851,11.1848,11.4181,11.5811,11.6643,11.6774,11.6841,11.6803,11.598,11.3961,11.0746,11.0746,11.0222,10.9325,10.8577,10.8727,10.9475,11.0372,11.1269,11.1867,11.1867,11.3438,11.5532,11.4709,11.598,11.8149,11.8149,11.8149,11.8149,11.8149,11.8672,11.942,12.0392,12.2336,12.4355,12.5327,12.6823,12.8094,12.8094,12.8094,12.8094,12.8094,12.8094,12.8094,12.8244,12.877,12.9366,12.9679,12.9918,13.007,13.007,13.007,12.9963,12.9727,12.9883,13.0146,13.0526,13.253,13.4138,13.4726,13.6566,13.789,13.804,13.804,13.8264,13.8638,13.8659,13.8738,13.8964,13.8964,13.8889,13.8663,13.8721,13.8691,13.8413,13.8189,13.7965,13.7815,13.7815,13.7815,3.9148,5.7663,7.7971,9.0759,9.3899,9.3899,9.3899,9.3899,9.3899,9.3899,9.3899,9.4122,9.4952,9.5011,9.5011,9.5011,9.5011,9.4818,9.4122,9.4831,9.6591,9.983,10.1617,10.3809,10.6976,10.7899,10.8278,10.8278,10.8278,10.8278,10.8278,11.1269,11.302,11.3155,11.5302,11.7011,11.801,11.7234,11.7287,11.8149,11.6653,11.441,11.1419,11.1194,11.097,11.0671,10.9026,10.925,11.0821,11.1045,11.2092,11.3662,11.3886,11.4784,11.598,11.598,11.6952,11.8149,11.8149,11.8149,11.8224,11.8448,11.9495,12.0766,12.1215,12.3308,12.5627,12.5851,12.6973,12.8094,12.8094,12.8094,12.8094,12.8094,12.8094,12.8266,12.8513,12.9052,12.9463,12.9539,12.9842,13.007,13.007,13.007,13.007,13.007,13.007,13.0526,13.1817,13.3162,13.4452,13.5773,13.7142,13.804,13.8413,13.8471,13.862,13.9034,13.9024,13.9079,13.9155,13.9155,13.9155,13.9155,13.9256,13.914,13.8488,13.8488,13.8264,13.7965,13.789,13.789,5.3861,6.5788,7.8217,9.0753,9.3899,9.3899,9.3899,9.3899,9.3899,9.3899,9.3899,9.4122,9.4952,9.5011,9.5011,9.5011,9.5011,9.5018,9.4885,9.6176,9.8276,10.1447,10.3312,10.5292,10.7809,10.8236,10.8278,10.8278,10.8278,10.8278,10.8278,11.0148,11.1571,11.2173,11.3846,11.5478,11.7053,11.6887,11.7287,11.8149,11.7924,11.6728,11.4784,11.3513,11.2092,11.0671,10.9026,10.925,11.0895,11.2316,11.3812,11.5382,11.6803,11.7476,11.7775,11.7775,11.7924,11.8149,11.8149,11.8149,11.8448,11.9794,12.0467,12.1215,12.3907,12.5103,12.5851,12.7272,12.787,12.8094,12.8094,12.8094,12.8094,12.8094,12.8244,12.8566,12.9148,12.9372,12.9539,12.9918,12.9994,13.007,13.007,13.007,13.007,13.007,13.007,13.0526,13.1817,13.3147,13.4528,13.6245,13.7516,13.8413,13.884,13.8895,13.9007,13.9335,13.9307,13.9469,13.9773,13.9773,13.9773,13.9773,13.9463,13.9289,13.9214,13.899,13.884,13.8766,13.8413,13.8264,5.6974,6.744,7.7579,8.7694,9.2115,9.3899,9.3899,9.3899,9.2545,8.7954,9.096,9.4029,9.2303,9.4025,9.5642,9.5642,9.5332,9.5011,9.5011,9.6913,9.9176,10.1881,10.4123,10.611,10.8129,10.8278,10.8278,10.8278,10.8278,10.8652,10.9549,11.1194,11.2632,11.3868,11.5432,11.6698,11.7568,11.7568,11.7791,11.8149,11.8149,11.7775,11.6952,11.6205,11.4485,11.2017,11.0297,11.0521,11.2241,11.3886,11.5532,11.7102,11.8822,11.9495,11.9495,11.9495,11.9495,11.9495,11.9495,11.9495,11.9794,12.1364,12.2486,12.3533,12.5103,12.6225,12.7047,12.787,12.8094,12.8094,12.8094,12.8094,12.8094,12.8244,12.8618,12.9091,12.9376,12.9615,12.9842,12.9994,13.007,13.007,13.007,13.007,13.007,13.007,13.007,13.0868,13.2979,13.3834,13.5093,13.7516,13.8329,13.9233,14.0419,14.0474,14.1014,14.2219,14.146,14.108,14.1232,14.1308,14.1308,14.1308,14.0264,13.957,13.9364,13.9289,13.9118,13.901,13.862,13.8413,5.6003,6.66,7.6881,8.4001,8.933,9.2758,9.2547,9.2474,9.0473,8.3578,8.8608,9.349,9.0895,9.3201,9.5633,9.5925,9.5581,9.5269,9.5269,9.774,10.0233,10.2273,10.4811,10.6932,10.8129,10.8278,10.8278,10.8278,10.8278,10.9026,11.0671,11.2391,11.4036,11.5606,11.7326,11.8149,11.8149,11.8149,11.8149,11.8149,11.8149,11.8149,11.8149,11.8149,11.6578,11.3737,11.2092,11.2316,11.3961,11.5158,11.6878,11.8897,12.0542,12.1215,12.1215,12.1589,12.1514,12.1215,12.1215,12.1215,12.1514,12.3159,12.458,12.5776,12.6225,12.7272,12.8319,12.8319,12.8319,12.8319,12.8319,12.8319,12.8389,12.8689,12.9091,12.9463,12.9539,12.9842,13.007,13.007,13.007,13.007,13.007,13.007,13.007,13.007,13.007,13.1147,13.4102,13.4495,13.58,13.9256,13.9599,14.0448,14.237,14.2599,14.3282,14.4877,14.3738,14.3054,14.3054,14.2675,14.2447,14.2447,14.0777,13.9794,13.9491,13.9491,13.9419,13.9222,13.8708,13.8496,5.4457,6.4903,7.6745,8.1029,8.5891,8.9402,8.8432,8.7815,8.747,8.712,8.9604,9.2403,9.4214,9.369,9.3473,9.4923,9.5702,9.6114,9.6114,9.9475,10.2273,10.3221,10.6068,10.8129,10.8278,10.8278,10.8278,10.8278,10.8278,10.9026,11.0671,11.2391,11.4036,11.5606,11.7326,11.8149,11.8149,11.8149,11.8149,11.8149,11.8149,11.8149,11.8149,11.8149,11.7177,11.5382,11.3812,11.3961,11.5457,11.5606,11.7551,12.0616,12.2187,12.286,12.3009,12.458,12.4131,12.286,12.286,12.286,12.3159,12.5055,12.5802,12.6251,12.8169,12.8891,12.8966,12.8966,12.8966,12.8966,12.8966,12.8966,12.9059,12.9276,12.9382,12.9539,12.9918,12.9994,13.007,13.007,13.007,13.007,13.007,13.007,13.007,13.007,13.007,13.1147,13.4102,13.4495,13.6331,14.1108,14.1603,14.252,14.4573,14.4725,14.4801,14.5029,14.4877,14.4801,14.4801,14.3282,14.2447,14.2447,14.0777,13.994,13.9925,13.9925,13.9929,13.986,13.9243,13.8936,4.943,6.0367,7.1503,7.177,7.9186,8.6047,8.4668,8.3784,8.318,8.3421,8.9642,9.3894,9.0159,9.0059,9.1253,9.3328,9.2697,9.3035,9.5861,9.9675,10.2515,10.3337,10.6259,10.8278,10.8278,10.8278,10.8278,10.8278,10.8278,10.9475,11.2167,11.2989,11.4485,11.7102,11.785,11.8149,11.8149,11.8149,11.8149,11.8149,11.8149,11.8149,11.8149,11.8149,11.7251,11.5606,11.5008,11.5083,11.5831,11.785,11.9495,12.0916,12.3533,12.458,12.4804,12.6449,12.6,12.4729,12.5952,12.5653,12.5129,12.7197,12.7849,12.797,12.8799,12.9025,12.9025,12.9025,12.9025,12.9025,12.9025,12.9025,12.9189,12.9666,12.9842,12.9842,12.9994,13.083,13.1285,13.0222,13.083,13.1285,13.0222,13.007,13.007,13.007,13.007,13.1189,13.4338,13.6571,13.8915,14.1914,14.313,14.4497,14.6395,14.6547,14.7003,14.799,14.7079,14.7003,14.799,14.6395,14.5029,14.4042,14.2371,14.1004,13.9941,13.9941,13.9941,13.9941,13.9448,13.9185,4.462,5.453,6.4527,6.2588,7.1006,7.9986,8.127,7.9424,7.8515,8.2136,8.9518,9.3281,8.6586,8.6337,8.7818,8.9908,8.9721,9.0884,9.5567,9.988,10.2772,10.3378,10.6259,10.8278,10.8278,10.8278,10.8278,10.8278,10.8278,10.9774,11.3139,11.3363,11.4859,11.8074,11.8149,11.8149,11.8149,11.8149,11.8149,11.8149,11.8149,11.8149,11.8149,11.8149,11.7551,11.6429,11.6429,11.6429,11.6578,11.8971,12.0542,12.1663,12.4505,12.5851,12.6524,12.8169,12.7795,12.6699,12.8568,12.8212,12.7181,12.8693,12.9196,12.9221,12.9297,12.9373,12.9373,12.9373,12.9373,12.9373,12.9373,12.9752,13.0134,13.0065,13.007,13.0146,13.0678,13.1741,13.2348,13.1589,13.2044,13.2196,13.0981,13.0374,13.007,13.007,13.007,13.1057,13.3867,13.7132,14.0473,14.3662,14.5029,14.6471,14.8142,14.8294,14.8825,14.9964,14.8901,14.8825,15.004,14.8446,14.7003,14.5788,14.3586,14.1916,14.0701,14.0245,13.9941,13.9941,13.9538,13.9271,4.0959,4.7537,5.6166,5.501,6.1515,7.0226,7.813,7.4836,7.346,8.5466,8.9279,8.9248,8.5324,8.3268,8.2768,8.4338,8.7194,9.0884,9.5567,10.0369,10.3418,10.3418,10.6259,10.8278,10.8278,10.8278,10.8278,10.8278,10.8278,10.9774,11.3139,11.3363,11.4859,11.8074,11.8149,11.8149,11.8149,11.8149,11.8149,11.8149,11.8149,11.8149,11.8149,11.8149,11.8149,11.8149,11.8149,11.8149,11.8149,11.8224,12.0093,12.3234,12.4954,12.6599,12.8244,12.9814,12.954,12.8667,13.0412,13.0122,12.9064,12.9362,12.9462,12.9539,12.9918,13.007,13.007,13.007,13.007,13.007,13.007,13.1285,13.212,13.045,13.007,13.0526,13.2196,13.2576,13.3032,13.455,13.3639,13.2576,13.2576,13.1133,13.007,13.007,13.007,13.0678,13.2348,13.5461,14.0017,14.6775,14.7534,14.8218,14.9888,15.004,15.004,15.004,15.004,15.004,15.004,14.8446,14.7534,14.7534,14.4193,14.2447,14.2447,14.0777,13.9941,13.9941,13.9538,13.9288,3.6303,4.2925,5.1111,5.5393,6.0422,6.6036,7.2567,7.7912,8.15,8.1428,8.3241,8.4095,8.1834,8.3625,8.6468,8.9642,8.9648,9.1037,9.6255,9.9749,10.2146,10.3268,10.5362,10.7082,10.8203,10.8278,10.8278,10.8278,10.8278,10.9774,11.3139,11.3363,11.4859,11.8074,11.8149,11.8149,11.8149,11.8149,11.8149,11.8149,11.8149,11.8149,11.8149,11.8149,11.8149,11.8149,11.8149,11.8149,11.8298,11.942,12.114,12.3383,12.6225,12.8442,13.0313,13.1958,13.2356,13.2304,13.3104,13.2374,13.0944,13.0143,12.9842,12.9918,12.9994,13.083,13.1741,13.1741,13.2576,13.3639,13.4778,13.5461,13.5461,13.3791,13.3335,13.3487,13.4019,13.5082,13.5689,13.5006,13.5461,13.5537,13.4474,13.3791,13.3411,13.3487,13.3411,13.4019,13.5689,13.7815,14.0852,14.5332,14.7914,14.9509,15.004,15.004,15.004,15.004,15.004,15.004,15.004,14.9585,14.8749,14.7534,14.6471,14.4801,14.2447,14.313,14.2827,14.1688,14.1514,14.13,3.6917,4.1857,4.821,5.3947,5.6854,6.0902,7.0627,7.532,7.7359,7.6038,7.853,8.0829,8.0398,8.3458,8.696,8.9663,8.9597,9.1137,9.662,9.9389,10.1548,10.3193,10.4913,10.6558,10.8129,10.8278,10.8278,10.8278,10.8876,11.0447,11.3139,11.3886,11.5457,11.8074,11.8149,11.8149,11.8149,11.8149,11.8149,11.8149,11.8149,11.8149,11.8149,11.8149,11.8149,11.8149,11.8149,11.8523,11.9196,12.0243,12.2037,12.4206,12.6449,12.8966,13.1533,13.3748,13.4454,13.428,13.5187,13.4398,13.2956,13.2196,13.1969,13.1969,13.1893,13.2576,13.3563,13.4246,13.5082,13.6221,13.7967,13.8347,13.7815,13.5461,13.4854,13.493,13.5689,13.6593,13.7155,13.6899,13.7132,13.7132,13.6145,13.5385,13.493,13.5006,13.493,13.5765,13.8119,13.9865,14.2219,14.5636,14.8446,15.004,15.004,15.004,15.004,15.004,15.004,15.004,15.004,15.004,14.9585,14.8522,14.7838,14.6471,14.4421,14.4193,14.351,14.2447,14.184,14.1348,4.0942,4.3268,4.6889,5.1381,5.2309,5.594,7.0837,6.8408,6.4285,6.88,7.3557,7.7374,7.897,8.1188,8.3522,8.58,8.8043,9.1505,9.7038,9.958,10.1548,10.3343,10.4988,10.6558,10.8129,10.8278,10.8278,10.8278,10.9923,11.1643,11.3288,11.5008,11.6728,11.8298,11.8373,11.8373,11.8373,11.8224,11.8149,11.8149,11.8149,11.8149,11.8149,11.8149,11.8149,11.8149,11.8298,11.927,12.0691,12.099,12.286,12.5627,12.6176,12.8566,13.1994,13.5279,13.5836,13.5082,13.66,13.6221,13.5082,13.5082,13.5082,13.5082,13.493,13.5006,13.5461,13.7132,13.7891,13.8499,13.9941,14.0321,13.9486,13.6069,13.5082,13.5385,13.72,13.7464,13.7765,13.9604,13.8726,13.7587,13.7587,13.6297,13.5309,13.5309,13.5309,13.6448,13.9713,14.1612,14.389,14.7155,14.9053,15.004,15.004,15.004,15.004,15.004,15.004,15.004,15.004,15.004,15.004,15.004,14.8522,14.7686,14.7534,14.4421,14.2751,14.2599,14.0928,13.9926,3.6344,3.908,4.395,5.4038,5.7703,5.9863,6.3989,6.4998,6.2673,5.445,5.6202,5.9697,6.1215,6.3976,7.1218,8.7531,9.166,9.4923,10.1146,10.1394,10.1997,10.4988,10.5736,10.6558,10.8129,10.8278,10.8278,10.8278,11.1045,11.2914,11.3288,11.7251,11.9719,12.0093,12.0093,12.0093,12.0093,11.8822,11.8149,11.8149,11.8149,11.8149,11.8149,11.8149,11.8149,11.8224,11.957,12.0317,12.0916,12.3634,12.5204,12.6176,12.9116,13.0828,13.2013,13.5573,13.7655,13.8575,13.7663,13.7132,13.6676,13.5461,13.5006,13.493,13.493,13.5841,13.7208,13.8878,14.2143,14.4953,14.4042,14.3814,14.2979,13.9562,13.8726,13.8838,13.9268,13.9284,13.9411,13.9864,13.9638,13.941,13.941,13.903,13.8802,13.8802,13.8802,13.9562,14.1612,14.3358,14.5256,14.7307,14.9053,15.004,15.004,15.004,15.004,15.004,15.004,15.004,15.004,15.004,15.004,15.004,14.966,14.8825,14.7534,14.6775,14.5712,14.4345,14.2675,14.1823,3.663,3.9889,4.4383,5.2093,5.5012,5.5886,5.5814,5.5829,5.3728,4.5832,4.7662,5.2029,5.5927,6.0474,6.7819,8.091,8.4615,8.7431,9.1874,9.5142,9.8056,10.0708,10.3935,10.6558,10.8129,10.8278,10.8577,10.94,11.1867,11.3662,11.4335,11.8373,12.0691,12.0691,12.0691,12.0691,12.0691,11.9121,11.8448,11.8597,11.8448,11.8373,11.8373,11.8373,11.8373,11.8448,12.0363,12.1514,12.2438,12.5129,12.715,12.8732,13.0973,13.2763,13.4359,13.644,13.8347,13.9789,13.8878,13.8575,13.8423,13.7587,13.7284,13.736,13.8119,13.903,14.0245,14.2751,14.4877,14.6168,14.5256,14.4421,14.3206,14.0549,13.9821,13.9763,13.9884,13.9808,13.9713,13.9941,13.9941,13.9941,13.9941,13.9941,13.9941,13.9941,14.0625,14.1688,14.3434,14.5105,14.6851,14.8522,14.9509,15.004,15.004,15.004,15.004,15.004,15.004,15.004,15.004,15.004,15.004,15.004,15.004,14.9585,14.8673,14.7914,14.7079,14.6168,14.4421,14.3662,3.8662,4.2491,4.6158,4.8426,4.9286,4.9361,4.8517,4.5941,4.3136,4.1014,4.3493,4.7908,5.3928,5.9909,6.5375,6.9941,7.2885,7.5982,7.9895,8.7803,9.3774,9.5824,10.2093,10.6783,10.8129,10.8278,10.8951,11.0671,11.2615,11.441,11.598,11.9495,12.1289,12.1065,12.1065,12.099,12.0812,11.9375,11.8828,11.9203,11.8828,11.8626,11.8672,11.8672,11.8807,11.9203,12.1194,12.2908,12.4542,12.6305,12.8867,13.1743,13.2247,13.4322,13.7132,13.7663,13.8726,13.9941,13.9941,13.9941,13.9941,13.9941,14.0169,14.0625,14.2067,14.2675,14.351,14.632,14.6092,14.4953,14.4725,14.3586,14.2067,14.0397,13.9708,13.9538,13.9908,13.9713,13.9562,13.9865,13.9941,13.9941,13.9941,13.9941,14.0017,14.0321,14.1536,14.3206,14.5181,14.6623,14.8142,14.9888,15.004,15.004,15.004,15.004,15.004,15.004,15.004,15.004,15.004,15.004,15.004,15.004,15.0344,15.042,15.042,14.8977,14.8294,14.8294,14.6547,14.5788,3.8273,4.2326,4.6365,4.7193,4.7415,4.7453,4.7302,4.3525,3.9988,3.9565,3.8675,3.8769,4.16,4.5088,5.0443,5.946,6.4073,7.0651,8.234,9.0292,9.5973,9.8976,10.4438,10.7979,10.8278,10.8278,10.8951,11.0671,11.3587,11.6055,11.77,12.2262,12.4206,12.271,12.271,12.2308,12.1382,11.9874,11.9141,11.9141,11.9141,11.9088,11.9092,11.9092,11.9819,12.1256,12.2967,12.4629,12.6346,12.8176,13.0191,13.2109,13.379,13.5613,13.7511,13.903,13.9713,13.9941,13.9941,13.9941,13.9941,13.9941,14.0928,14.2143,14.2371,14.351,14.4725,14.5256,14.5181,14.4649,14.3206,14.2675,14.2067,14.0397,13.9929,13.9908,13.994,13.9941,13.9865,13.9941,13.9941,13.9941,13.9941,13.9941,14.0473,14.1916,14.2295,14.3586,14.6775,14.7383,14.8142,14.9888,15.004,15.004,15.004,15.004,15.004,15.004,15.004,15.004,15.004,15.004,15.004,15.004,15.1483,15.2166,15.2166,15.1938,15.1787,15.1787,15.0116,14.9281,3.9191,4.3451,4.7393,4.7122,4.7663,4.7768,4.5832,4.3291,4.0797,3.8861,3.6735,3.6223,3.9186,4.1759,4.5907,5.3334,5.7707,6.3669,7.3653,8.5927,9.5155,9.8501,10.4438,10.8278,10.8278,10.9101,11.0297,11.2017,11.4335,11.6803,11.942,12.2486,12.3933,12.3362,12.3383,12.2412,12.0413,11.9731,11.9424,11.9565,11.939,11.9329,11.9361,12.0343,12.1154,12.2079,12.4724,12.6317,12.7314,12.9987,13.212,13.3867,13.5613,13.7284,13.8878,13.9638,13.9941,13.9941,13.9941,13.9941,13.9941,13.9941,14.0473,14.1308,14.2219,14.3662,14.5181,14.6092,14.5029,14.3434,14.2675,14.184,14.0928,14.0169,13.9941,13.9941,13.9941,13.9941,13.9941,13.9941,13.9941,13.9941,13.9941,14.0701,14.1612,14.2371,14.4042,14.5788,14.7307,14.837,14.9205,14.9964,15.004,15.004,15.004,15.004,15.004,15.004,15.004,15.004,15.004,15.004,15.004,15.004,15.1711,15.3001,15.3837,15.3837,15.3837,15.3837,15.3077,15.2698,4.4914,0.0,5.2872,5.3146,5.3036,5.2051,0.0,4.5761,4.2827,3.9339,3.6951,3.6253,3.8691,4.0809,4.3911,4.9,5.1933,5.6704,6.5599,7.7937,8.8248,9.4014,10.0922,10.5462,10.6284,10.9058,11.1643,11.3737,11.5008,11.7102,12.0542,12.1888,12.2737,12.3063,12.3159,12.2115,11.9668,11.9668,11.9744,11.9971,11.9719,11.9814,12.0259,12.1548,12.2629,12.354,12.6274,12.7716,12.8324,13.1361,13.3563,13.5234,13.6828,13.8423,13.9941,13.9941,13.9941,13.9941,13.9941,13.9941,13.9941,13.9941,14.0245,14.0852,14.2599,14.3738,14.4649,14.6016,14.4497,14.2371,14.1991,14.0928,13.9941,13.9941,13.9941,13.9941,13.9941,13.9941,13.9941,13.9941,13.9941,13.9941,13.9941,14.1384,14.2599,14.2979,14.5636,14.7686,14.8066,14.9281,15.0031,15.0089,15.0099,15.004,15.004,15.004,15.004,15.004,15.004,15.004,15.004,15.004,15.0268,15.0648,15.1938,15.3533,15.5507,15.5887,15.6115,15.6115,15.6115,15.6115,0.0,6.3982,6.6608,7.0287,6.7408,6.2805,5.9485,5.2123,0.0,4.1988,3.9685,3.7811,3.6711,3.8123,4.1076,4.5832,4.5974,5.0505,6.4916,6.6689,7.1267,8.3972,9.1775,9.7324,10.0405,10.6795,11.2092,11.5232,11.5606,11.7102,12.0542,12.1018,12.127,12.1289,12.1876,12.1485,11.9895,11.9895,11.9895,11.9971,11.9891,12.072,12.2242,12.24,12.4148,12.7109,12.7413,12.84,12.9994,13.1817,13.3487,13.5082,13.6752,13.8423,13.9941,13.9941,13.9941,13.9941,13.9941,13.9941,13.9941,13.9941,14.1004,14.2599,14.4345,14.3814,14.2675,14.2827,14.2675,14.2143,14.0549,14.0017,13.9941,13.9941,13.9941,13.9941,13.9941,13.9941,13.9941,13.9941,13.9941,13.9941,13.9941,14.1384,14.2979,14.4573,14.6395,14.8066,14.966,14.9964,15.0063,15.0044,15.0022,15.004,15.004,15.004,15.004,15.004,15.004,15.004,15.004,15.004,15.0799,15.2394,15.2546,15.414,15.7254,15.8848,15.9607,15.9607,15.9607,15.9607,6.4798,7.0725,7.56,7.6316,7.461,7.0793,6.3368,5.7795,5.2107,4.4611,4.0635,3.8498,3.8477,3.8596,4.051,4.6237,4.7072,5.2138,6.6763,7.1846,7.8476,9.0249,9.6419,10.1565,10.6347,10.7854,11.0584,11.5263,11.6653,11.8747,12.2308,12.1663,12.1323,12.1667,12.2138,12.2022,12.149,12.149,12.0958,11.9971,11.9971,12.0807,12.2477,12.354,12.5287,12.7564,12.8628,13.007,0.0,13.3335,13.5006,13.6676,13.8347,13.941,13.9941,13.9941,13.9941,13.9941,13.9941,13.9941,13.9941,13.9941,14.0397,14.1004,14.1688,14.2903,14.4269,14.5332,14.4118,14.2295,14.1688,14.0777,13.9941,13.9941,13.9941,13.9941,13.9941,13.9941,13.9941,13.9941,13.9941,14.0321,14.1384,14.2903,14.4573,14.6016,14.7686,14.8888,14.932,14.9573,14.971,14.9725,14.9918,15.0032,15.0037,15.004,15.004,15.004,15.004,15.004,15.004,15.1103,15.1938,15.2546,15.4596,15.6191,15.7481,15.9152,15.9987,15.9987,15.9987,15.9987,7.4575,8.0874,8.6263,8.664,8.512,8.0579,6.9404,6.3838,5.7749,4.6283,4.1937,4.0184,4.0154,4.0107,4.1649,4.6426,4.8475,5.4798,7.0205,7.6705,8.3909,9.4666,9.893,10.2756,10.7137,10.9046,11.173,11.613,11.7625,11.9391,12.1859,12.1135,12.1073,12.2173,12.2401,12.2477,12.2477,12.3009,12.2401,12.0731,12.1262,12.2173,12.3312,12.4983,12.6729,12.84,13.007,13.1513,13.2728,13.4854,13.6373,13.7587,13.9258,13.9941,13.9941,13.9941,13.9941,13.9941,13.9941,13.9941,13.9941,13.9941,13.9941,14.0017,14.0625,14.2751,14.5332,14.7079,14.5484,14.3054,14.1991,14.0852,13.9941,13.9941,13.9941,13.9941,13.9941,13.9941,13.9941,13.9941,14.0397,14.1156,14.2295,14.4345,14.6092,14.6851,14.8366,14.9372,14.8997,14.9143,14.9388,14.9463,14.9687,14.9895,15.0031,15.004,15.004,15.004,15.004,15.004,15.004,15.1711,15.285,15.3305,15.6039,15.7709,15.8241,15.938,15.9987,15.9987,15.9987,15.9987,8.9951,9.616,9.9634,10.3641,10.0442,9.2699,7.8797,7.0248,6.1228,4.6896,4.3963,4.3354,4.1273,4.2527,4.4455,4.6043,4.9379,5.7844,7.5116,7.9002,8.4005,9.4635,9.7132,9.8664,10.0568,10.9825,11.6354,11.8074,11.8448,11.8643,11.8568,11.9201,12.0427,12.2401,12.2477,12.2477,12.2477,12.4148,12.4148,12.2477,12.4148,12.4983,12.5059,12.6729,12.8476,13.0146,13.1817,13.2576,13.288,13.6145,13.7436,13.7587,13.9258,13.9941,13.9941,13.9941,13.9941,13.9941,13.9941,13.9941,13.9941,13.9941,13.9941,14.0245,14.1991,14.3662,14.5408,14.7079,14.632,14.4269,14.0852,13.9941,13.9941,13.9941,13.9941,13.9941,13.9941,13.9941,13.9941,13.9941,14.1308,14.2447,14.2523,14.5332,14.7383,14.7003,14.8379,14.9313,14.8939,14.8939,14.9089,14.9463,14.9463,14.9594,15.0031,15.004,15.004,15.004,15.004,15.004,15.004,15.1711,15.3381,15.49,15.657,15.8317,15.9987,15.9987,15.9987,15.9987,15.9987,15.9987,8.9704,9.8117,10.6687,10.8046,10.5985,9.9088,8.1681,7.5015,6.7485,4.975,4.5268,4.448,4.4465,4.4115,4.4686,4.7325,5.4813,6.4045,7.4731,8.4829,9.4189,10.2487,10.5921,10.7198,10.6082,11.2278,11.7027,11.8792,11.8942,11.9592,12.1006,12.0252,12.0655,12.2401,12.2477,12.3009,12.4224,12.4755,12.4148,12.2477,12.4148,12.4983,12.5059,12.6729,12.9083,13.1817,13.2348,13.3867,13.6069,13.7056,13.8119,13.9258,13.9789,13.9941,13.9941,13.9941,13.9941,13.9789,13.8575,13.8954,13.9789,13.8575,13.8954,14.0473,14.3434,14.5408,14.7155,14.8825,14.8066,14.632,14.4042,14.1764,13.9941,13.9941,13.9941,13.9941,13.9941,13.9941,13.9941,13.9941,14.1308,14.2827,14.4042,14.5864,14.737,14.8225,14.8464,14.8508,14.8135,14.8284,14.8583,14.9089,14.9076,14.9374,15.0037,15.004,15.004,15.004,15.004,15.004,15.004,15.2774,15.4444,15.49,15.7785,15.9456,15.9987,15.9987,15.9987,15.9987,15.9987,15.9987,9.5136,10.2317,10.9833,11.0008,10.9006,10.3025,8.4047,7.8213,7.136,5.214,4.6811,4.6236,4.8267,4.6683,4.692,5.2787,5.8325,6.6642,8.0423,8.9901,9.9529,11.0524,11.3547,11.4238,11.2875,11.5662,11.8052,11.9105,11.9291,11.9869,12.1185,12.0427,12.0427,12.1414,12.2097,12.2933,12.3996,12.5287,12.5135,12.3464,12.5894,12.6653,12.6046,12.7716,12.9994,13.2576,13.3259,13.5006,13.7511,13.8119,13.903,13.9941,13.9941,13.9941,13.9941,13.9941,13.9941,13.9789,13.8802,13.9106,13.9789,13.8802,13.9562,14.146,14.4193,14.6168,14.7914,14.9585,14.8825,14.7307,14.6244,14.351,14.0777,14.0093,13.9941,13.9941,13.9941,13.9941,14.0169,14.0852,14.2295,14.4042,14.5712,14.7079,14.8158,14.8846,14.8569,14.8135,14.7761,14.791,14.8284,14.8864,14.8922,14.9209,15.0039,15.004,15.004,15.004,15.004,15.0344,15.1027,15.3533,15.5203,15.5887,15.862,15.9987,15.9987,15.9987,15.9987,15.9987,15.9987,15.9987,10.2943,10.6987,10.9797,10.9948,11.0024,10.5001,8.5643,7.9843,7.3096,5.376,4.8317,4.8209,5.1994,5.0406,5.1697,6.1462,6.261,6.9615,9.0645,9.5589,10.2678,11.7762,11.9378,11.9292,11.9551,11.938,11.9202,11.9202,11.946,11.9668,11.9895,11.9971,12.0047,12.0199,12.1642,12.2629,12.2933,12.597,12.6729,12.5287,12.8476,12.9159,12.7564,12.9235,13.1057,13.288,13.4398,13.6069,13.7815,13.9334,13.9941,13.9941,13.9941,13.9941,13.9941,13.9941,13.9941,13.9941,13.9789,13.9789,13.9941,13.9789,14.108,14.3054,14.4725,14.6395,14.8066,14.966,14.8825,14.7534,14.7534,14.5181,14.2295,14.0777,14.0321,14.0169,14.0017,14.0093,14.0625,14.1991,14.389,14.5712,14.7079,14.852,14.9276,14.8943,14.8508,14.8135,14.7761,14.7761,14.7985,14.8864,14.8922,14.9209,15.0039,15.004,15.004,15.004,15.004,15.0799,15.2546,15.4065,15.5735,15.7405,15.9152,15.9987,15.9987,15.9987,15.9987,15.9987,15.9987,15.9987,9.9241,10.3342,10.8354,10.9721,11.0024,10.4697,8.4281,7.9253,7.3132,5.2407,4.7801,4.892,5.3587,5.6969,6.1968,7.0793,8.2008,9.2277,10.0074,10.8557,11.5458,11.9359,11.9812,11.9785,11.9822,11.9778,11.9721,11.9721,11.9817,11.9895,11.9971,11.9971,12.0503,12.187,12.2249,12.3768,12.6426,12.7109,12.7337,12.6957,12.9083,12.9159,12.7564,12.9235,13.1665,13.455,13.4854,13.6676,13.9486,13.9789,13.9941,13.9941,13.9941,13.9941,13.9941,13.9941,13.9941,13.9789,13.8423,13.8878,13.9713,13.8423,14.0928,14.4801,14.6471,14.8142,14.9585,14.9964,14.8825,14.7534,14.7534,14.6016,14.4345,14.4042,14.2903,14.1536,14.0245,14.1004,14.1612,14.0701,14.4042,14.6699,14.5712,14.7497,14.9033,14.886,14.8284,14.7835,14.7761,14.7761,14.7985,14.8864,14.8922,14.9209,15.0039,15.004,15.004,15.004,15.004,15.0799,15.2546,15.4065,15.5735,15.7405,15.9152,15.9987,15.9987,15.9987,15.9987,15.9987,15.9987,15.9987,10.1216,10.4102,10.7898,10.9569,11.0024,10.614,9.1225,8.5119,7.7678,6.0165,5.3698,5.1803,5.3714,5.8611,6.538,7.4634,8.5631,9.6,10.4649,11.0675,11.5649,11.9515,11.9971,11.9971,11.9971,11.9971,11.9971,11.9971,11.9971,11.9971,11.9971,11.9971,12.0731,12.2401,12.2477,12.3692,12.6274,12.7109,12.7489,12.7564,12.9235,12.9539,12.8779,12.9615,13.1817,13.5006,13.493,13.6828,13.9941,13.9941,13.9941,13.9941,13.9941,13.9941,13.9941,13.9941,13.9941,13.9713,13.8043,13.8575,13.9941,13.9865,14.2751,14.6395,14.7231,14.8749,15.004,15.004,14.9433,14.8749,14.8749,14.7534,14.6244,14.6244,14.4953,14.3206,14.1536,14.184,14.2447,14.2371,14.5181,14.7458,14.7231,14.8123,14.8806,14.8656,14.8135,14.7761,14.7761,14.7761,14.7985,14.8864,14.8922,14.9209,15.0039,15.004,14.9964,14.9812,14.9964,15.106,15.3362,15.4382,15.6115,15.862,15.9532,15.9987,15.9987,15.9987,15.9987,15.9987,15.9987,15.9987,10.4102,10.6,10.7519,10.9493,11.0024,10.7654,9.8789,9.2196,8.4238,7.1114,6.2771,5.7722,5.7467,6.2339,6.9543,7.9149,8.6947,9.5944,10.8069,11.0092,11.2682,11.9136,11.9971,11.9971,11.9971,11.9971,11.9971,11.9971,11.9971,11.9971,11.9971,11.9971,12.0579,12.1946,12.2629,12.3844,12.5818,12.7261,12.7944,12.7944,12.9387,13.007,13.007,13.007,13.1665,13.455,13.4778,13.6676,13.9562,13.9865,13.9941,13.9941,13.9941,13.9941,13.9941,13.9941,13.9941,13.9789,13.8347,13.8954,14.0625,14.2067,14.4801,14.761,14.7914,14.8977,15.004,15.004,15.004,15.004,15.004,14.9053,14.799,14.799,14.6699,14.5105,14.3662,14.313,14.3358,14.4725,14.6623,14.8218,14.8901,14.8965,14.8774,14.8432,14.7985,14.7761,14.7761,14.7761,14.7985,14.8715,14.8846,14.9197,14.9884,14.9955,14.9812,14.9509,14.9935,15.1469,15.4254,15.4925,15.6761,15.9911,15.9987,15.9987,15.9987,15.9987,15.9987,15.9987,15.9987,15.9987,10.2507,10.5089,10.6076,10.9189,11.0024,10.743,9.7422,9.4402,9.0607,7.9369,7.2853,7.0376,7.4117,7.8988,8.5009,9.2648,10.1902,10.9867,11.5099,11.594,11.6934,11.9592,11.9971,11.9971,11.9971,11.9971,11.9971,11.9971,11.9971,11.9971,11.9971,11.9971,12.0047,12.0275,12.316,12.6198,12.9311,12.9615,12.9691,12.9691,12.9918,13.007,13.007,13.007,13.1057,13.2956,13.4322,13.5993,13.7891,13.9334,13.9941,13.9941,13.9941,13.9941,13.9941,13.9941,13.9941,13.9941,13.9713,14.0701,14.2219,14.2371,14.4801,14.7838,14.9281,14.9888,15.004,15.004,15.004,15.004,15.004,14.9888,14.9736,14.9736,14.8446,14.7155,14.6927,14.5712,14.4725,14.4953,14.7534,14.9205,14.761,14.8201,14.8785,14.8416,14.7985,14.7761,14.7761,14.7761,14.791,14.8359,14.8696,14.9067,14.9492,14.9553,14.9509,14.9509,15.0514,15.207,15.4273,15.5843,15.7676,15.9911,15.9987,15.9987,15.9987,15.9987,15.9987,15.9987,15.9987,15.9987,9.8559,10.2811,10.5544,10.7974,10.9341,10.8883,10.4357,10.0965,9.6631,8.9092,8.1706,7.6334,7.5597,8.2517,8.9739,9.4104,10.5742,11.5238,11.8066,11.8529,11.8984,11.982,11.9971,11.9971,11.9971,11.9971,11.9971,11.9971,11.9971,11.9971,11.9971,11.9971,11.9971,11.9971,12.3236,12.5742,12.7185,12.9083,13.007,13.007,13.007,13.007,13.007,13.007,13.0981,13.2576,13.3259,13.5082,13.7511,13.8195,13.9106,13.9941,13.9941,13.9941,13.9941,13.9941,13.9941,13.9789,13.8878,14.0245,14.2675,14.3586,14.556,14.7838,14.9585,15.004,15.004,15.004,15.004,15.004,15.004,15.004,15.004,15.004,14.9509,14.8597,14.7458,14.6801,14.6339,14.6112,14.8214,14.9652,14.8304,14.8548,14.8715,14.806,14.7835,14.7761,14.7761,14.7761,14.791,14.8284,14.8493,14.8713,14.9067,14.9123,14.9058,14.882,15.0366,15.1989,15.3635,15.5687,15.7727,15.9595,15.9901,15.9987,15.9987,15.9987,15.9987,15.9987,15.9987,15.9987,9.315,9.8308,10.2036,10.5847,10.8126,10.9417,10.9417,10.6495,10.2797,9.9029,9.1687,8.4748,8.1061,8.7356,9.3841,9.5887,10.6975,11.6212,11.8676,11.9212,11.944,11.9895,11.9971,11.9971,11.9971,11.9971,11.9971,11.9971,11.9971,11.9971,11.9971,11.9971,11.9895,11.982,12.3187,12.4951,12.4875,12.8313,13.007,13.007,13.007,13.007,13.007,13.007,13.0754,13.1969,13.2348,13.3943,13.6297,13.7056,13.8195,13.9334,13.9789,13.9941,13.9941,13.9941,13.9936,13.9749,13.8392,13.9884,14.2641,14.4416,14.6168,14.7838,14.9585,15.004,15.004,15.004,15.004,15.004,15.004,15.004,15.004,15.004,14.9964,14.9509,14.7914,14.7747,14.7835,14.7611,14.8841,14.9759,14.9298,14.9046,14.8583,14.7835,14.7761,14.7761,14.7761,14.7761,14.7835,14.8135,14.8209,14.8418,14.8698,14.8771,14.8648,14.8397,14.9987,15.1483,15.268,15.5238,15.7438,15.8844,15.9607,15.9987,15.9987,15.9987,15.9987,15.9987,15.9987,15.9759,8.6219,9.0357,9.2911,10.265,10.638,10.7595,10.7595,10.843,10.9123,10.8585,10.4059,10.0091,9.9565,9.9939,10.1095,10.3319,10.8286,11.3198,11.7006,11.7542,11.8149,11.9744,11.9971,11.9971,11.9971,11.9971,11.9971,11.9971,11.9971,11.9971,11.9971,11.9971,11.982,11.9592,12.309,12.4869,12.4644,12.8224,13.007,13.007,13.007,13.007,13.007,13.007,13.007,13.0222,13.1893,13.2652,13.3032,13.6145,13.7511,13.7739,13.9334,13.9941,13.9941,13.9941,13.9932,13.9884,13.9426,14.0395,14.225,14.4333,14.6168,14.7838,14.9585,15.004,15.004,15.004,15.004,15.004,15.004,15.004,15.004,15.004,14.9736,14.9509,14.9357,14.9108,14.8939,14.9313,14.9425,14.9594,14.9954,14.9347,14.8583,14.7835,14.7761,14.7761,14.7761,14.7761,14.7761,14.7761,14.806,14.8341,14.8322,14.8322,14.8322,14.8284,14.9555,15.0677,15.15,15.4625,15.6726,15.7548,15.9152,15.9987,15.9987,15.9987,15.9987,15.9987,15.9987,15.9152,8.2669,8.7259,9.0583,10.0563,10.3656,10.4557,10.562,10.6026,10.6412,10.7432,10.4091,10.1324,10.2296,10.3418,10.4838,10.6857,11.1465,11.5786,11.8428,11.8923,11.9288,11.982,11.9971,11.9971,11.9971,11.9971,11.9971,11.9971,11.9971,11.9971,11.9971,11.9744,11.9668,11.9516,12.2957,12.4692,12.4617,12.8209,13.007,13.007,13.007,13.007,13.007,13.007,13.007,13.007,13.0678,13.1589,13.2728,13.493,13.6448,13.7587,13.9258,13.9789,13.9556,13.9586,13.9464,13.9297,13.9363,13.9738,14.0639,14.2728,14.4497,14.6244,14.7914,14.9205,15.004,15.004,15.004,15.004,15.004,15.004,15.004,14.9736,14.9585,14.9328,14.882,14.8863,14.8864,14.879,14.9164,14.9555,14.9642,14.9251,14.8606,14.7853,14.7761,14.7761,14.7761,14.7761,14.7761,14.7761,14.7835,14.791,14.791,14.791,14.791,14.791,14.9406,15.0453,15.1051,15.3364,15.4876,15.5431,15.6267,15.6722,15.6722,15.6722,15.6722,15.6722,15.6722,15.6418,7.4161,7.9175,8.3685,9.3699,9.8045,10.0228,10.1875,10.2302,10.2754,10.3872,10.2894,10.2072,10.3193,10.5212,10.7422,10.9449,11.3157,11.6484,11.8567,11.9454,11.9971,11.9971,11.9971,11.9971,11.9971,11.944,11.9288,11.9895,11.9971,11.9971,11.9971,11.9668,11.9498,11.9399,12.2182,12.3969,12.4368,12.7582,12.9463,13.007,13.007,13.007,13.007,13.007,13.007,13.007,13.007,13.0678,13.1817,13.3487,13.5082,13.6752,13.8423,13.9246,13.9366,13.9374,13.908,13.8672,13.907,13.9295,13.9612,14.1773,14.3206,14.4497,14.6168,14.7458,14.837,14.837,14.8749,14.9205,14.9205,14.9509,14.9812,14.9509,14.9287,14.8946,14.8418,14.8359,14.8434,14.8284,14.879,14.9164,14.9463,14.9058,14.8586,14.8207,14.791,14.7761,14.7761,14.7761,14.7761,14.7761,14.7761,14.7761,14.7761,14.7761,14.7761,14.7761,14.8808,14.963,15.0154,15.198,15.3191,15.376,15.452,15.49,15.49,15.49,15.49,15.49,15.49,15.4596,6.1204,6.5927,7.1822,8.2096,8.9487,9.4596,9.6122,9.761,9.8647,9.878,10.1099,10.3118,10.3268,10.5885,10.8843,11.1054,11.285,11.4805,11.7072,11.8832,11.982,11.982,11.982,11.982,11.982,11.8377,11.8073,11.982,11.9971,11.9971,11.9895,11.9667,11.9414,11.9137,12.1007,12.2676,12.3925,12.6299,12.8324,12.9994,12.9994,13.007,13.007,13.007,13.007,13.007,13.007,13.007,13.0146,13.1893,13.3487,13.5006,13.6676,13.81,13.925,13.9213,13.8616,13.7815,13.8691,13.8964,13.9359,14.166,14.2447,14.2827,14.442,14.4952,14.5029,14.5029,14.6168,14.7458,14.7534,14.8446,14.9433,14.9431,14.8881,14.8284,14.8284,14.7985,14.7835,14.8209,14.8284,14.8508,14.9313,14.8835,14.8498,14.8826,14.8209,14.7761,14.7761,14.7761,14.7761,14.7761,14.7761,14.7761,14.7761,14.7761,14.7761,14.7761,14.7761,14.806,14.8864,15.0471,15.177,15.247,15.3989,15.4748,15.4748,15.4748,15.4748,15.4748,15.4748,15.3989,6.9194,6.7764,6.7647,8.2561,8.4914,8.4777,8.8757,8.977,9.0939,9.4551,9.5827,9.6987,9.9454,10.252,10.5437,10.7422,11.0298,11.343,11.6699,11.7693,11.8073,11.8073,11.8073,11.8073,11.8073,11.7693,11.8073,11.982,11.9971,11.982,11.9668,11.9413,11.9091,11.8762,12.0708,12.1999,12.2337,12.5767,12.7716,12.8248,12.9463,13.007,13.007,13.007,13.007,13.007,13.007,13.007,13.0146,13.1893,13.2804,13.3335,13.4778,13.6127,13.7105,13.5686,13.5572,13.6245,13.6895,13.7911,13.9131,13.999,14.1232,14.2506,14.2668,14.3809,14.5029,14.5029,14.5332,14.594,14.6851,14.7383,14.7803,14.8429,14.8493,14.8209,14.791,14.7835,14.7761,14.7835,14.8135,14.8434,14.9014,14.8609,14.8498,14.8826,14.8209,14.7761,14.7761,14.7761,14.7761,14.7761,14.7761,14.7761,14.7761,14.7761,14.7761,14.7761,14.7985,14.8359,14.8864,14.9603,15.0245,15.0724,15.1179,15.1407,15.1407,15.1407,15.1407,15.1407,15.1407,15.1179,6.1655,5.9106,5.8817,7.1119,7.2664,7.329,8.1585,8.2274,8.2811,8.8496,9.1154,9.3098,9.5117,9.8707,10.2221,10.4804,10.765,11.0839,11.4453,11.5217,11.5643,11.6327,11.458,11.3517,11.4277,11.4808,11.6175,11.8681,11.939,11.9731,11.9667,11.9374,11.9029,11.8792,11.9989,12.0984,12.1708,12.4174,12.6122,12.7564,12.8476,12.9387,13.007,13.007,13.007,13.007,13.007,13.007,13.0146,13.1133,13.1817,13.2423,13.3153,13.4213,13.5018,13.3025,13.3179,13.46,13.5773,13.6857,13.7835,13.8899,14.0129,14.11,14.0911,14.1774,14.2903,14.2903,14.3434,14.4118,14.4649,14.5232,14.5933,14.6993,14.7088,14.7162,14.7611,14.7761,14.7761,14.7761,14.791,14.8209,14.8583,14.8319,14.8167,14.8621,14.8135,14.7761,14.7761,14.7761,14.7761,14.7761,14.7761,14.7761,14.7761,14.7761,14.7761,14.7761,14.806,14.8486,14.8881,14.9245,14.966,15.004,15.004,15.004,15.004,15.004,15.004,15.004,15.004,14.8901,4.5643,4.5491,4.8647,5.435,5.666,6.0648,0.0,7.3282,7.3282,7.9937,8.4947,8.8387,8.906,9.3472,9.8071,10.155,10.4409,10.7332,11.0806,11.1726,11.2454,11.3821,10.9797,10.7671,10.9569,11.0936,11.3211,11.6836,11.8483,11.9472,11.9861,11.938,11.915,11.9092,11.9166,11.9857,12.1406,12.2124,12.3996,12.6957,12.7337,12.8324,12.9767,12.9994,13.007,13.007,13.007,13.007,13.007,13.007,13.0676,13.1715,13.163,13.2158,13.2706,13.0861,13.1235,13.2955,13.4726,13.5474,13.59,13.7759,13.8594,13.8766,13.8996,13.9297,13.9697,13.9864,14.1004,14.2067,14.191,14.2698,14.3891,14.5143,14.5218,14.5443,14.7088,14.7462,14.7462,14.7686,14.7761,14.7835,14.8209,14.7985,14.7835,14.8209,14.791,14.7761,14.7761,14.7761,14.7761,14.7761,14.7761,14.7761,14.7761,14.7761,14.7761,14.7761,14.8135,14.8542,14.8911,14.9287,14.9736,15.004,14.9888,14.966,14.9509,14.9281,14.9129,14.8901,14.8901,14.6471,0.0,0.0,0.0,0.0,0.0,0.0,0.0,5.5485,5.7878,6.4533,6.7674,7.0889,7.6273,8.2405,8.7823,9.1324,9.7979,10.345,10.5742,10.7455,10.8126,10.7063,10.4861,10.4633,10.7671,10.9493,11.1675,11.4854,11.6745,11.8275,11.9252,11.9215,11.9012,11.8718,11.9017,11.9293,11.9666,12.1517,12.2781,12.3464,12.6198,12.7716,12.8096,12.9387,13.007,13.007,13.007,13.007,13.007,13.007,13.0018,12.9918,12.9735,12.9415,12.9066,12.8692,12.9515,13.101,13.1734,13.2906,13.4103,13.4449,13.4727,13.53,13.6593,13.7272,13.791,13.9521,13.9941,14.0237,14.1196,14.1498,14.1853,14.3124,14.3349,14.3797,14.5368,14.5667,14.6116,14.7462,14.7761,14.7835,14.8209,14.7985,14.7761,14.7835,14.7761,14.7761,14.7761,14.7761,14.7761,14.7761,14.7761,14.7761,14.7761,14.7761,14.7761,14.7761,14.8359,14.8843,14.8911,14.9591,14.9964,15.004,14.8749,14.7383,14.6016,14.4649,14.3282,14.1916,14.1916,14.1384,0.0,0.0,0.0,0.0,0.0,0.0,0.0,0.0,0.0,0.0,0.0,6.1742,6.6589,0.0,8.043,8.533,9.2121,9.827,10.2475,10.3438,10.31,10.1442,10.0533,10.1292,10.4633,10.6423,10.8989,11.3192,11.4878,11.6769,11.9212,11.9246,11.903,11.8867,11.9166,11.9397,11.9315,12.0565,12.1642,12.2477,12.4148,12.5438,12.6274,12.7109,12.7489,12.7489,12.7489,12.7489,12.7489,12.7489,12.7714,12.776,12.4879,12.3533,12.3234,12.4056,12.5402,12.6973,12.8891,13.0612,13.2108,13.2955,13.3604,13.4102,13.4941,13.555,13.6171,13.7192,13.7815,13.8314,13.8774,13.9241,13.9984,14.133,14.1629,14.2078,14.3723,14.4022,14.4321,14.5143,14.5966,14.6564,14.6714,14.6639,14.6489,14.6489,14.7162,14.7761,14.7761,14.7761,14.591,14.1032,14.3387,14.4041,14.0808,14.3461,14.6041,14.7611,14.8434,14.8918,14.8911,14.9667,14.9281,14.761,14.6699,14.5029,14.2447,14.0777,13.9941,13.9789,13.3943,13.1665,0.0,0.0,0.0,0.0,0.0,0.0,0.0,0.0,0.0,0.0,0.0,0.0,0.0,0.0,0.0,7.9347,8.6069,9.2487,9.8447,9.8502,9.775,9.7184,9.7116,9.8255,10.1216,10.2845,10.5709,11.0613,11.2416,11.4674,11.784,11.8065,11.8298,11.8643,11.8861,11.9163,11.9516,11.982,12.0579,12.1946,12.2325,0.0,12.4527,12.4831,12.4983,12.4983,12.4983,12.4983,12.4983,12.4972,12.5267,12.5191,12.0477,11.8626,11.8897,12.0542,12.1962,12.3458,12.615,12.8169,12.9739,13.116,13.1958,13.2528,13.2899,13.3217,0.0,13.4246,13.5152,13.5952,13.5956,13.6918,13.8114,13.9161,13.961,14.0283,14.2003,14.2377,14.2526,14.2825,14.3872,14.477,14.477,14.4022,14.2845,14.1238,14.3088,14.4358,14.3685,14.5237,14.3536,13.6086,14.0716,14.2191,13.7038,13.9614,14.3443,14.791,14.6732,14.5791,14.5554,14.6241,14.4649,14.0245,13.9865,13.865,13.66,13.4854,13.4778,13.5764,12.1715,11.7235,0.0,0.0,0.0,0.0,0.0,0.0,0.0,0.0,0.0,0.0,0.0,0.0,0.0,0.0,0.0,0.0,7.8755,8.6369,9.0258,9.074,9.189,9.4984,9.537,9.6053,9.7951,9.9534,10.1818,10.522,10.855,11.1108,11.2421,11.3898,0.0,0.0,0.0,11.7777,11.9516,11.982,12.0047,12.0275,12.1718,12.2553,12.2781,12.4299,12.4983,12.4983,12.4983,12.4983,12.4982,12.4993,12.4073,12.2308,11.9914,11.9495,12.0616,12.2187,12.2935,12.3084,12.3458,0.0,0.0,12.6647,12.6823,12.7194,12.93,12.9,12.8552,13.1893,13.2474,13.2391,13.3802,13.4996,13.5871,13.6021,13.7067,13.8563,14.0283,14.0657,14.1105,14.2601,14.305,14.3124,14.3124,13.9651,13.4482,12.731,13.0252,13.2171,12.9153,13.6235,14.1704,14.2094,14.6525,0.0,14.8376,14.105,14.0378,14.9406,14.0659,13.4551,13.342,13.4089,13.083,12.2933,12.1262,12.1794,12.4451,12.2705,12.2017,12.1676,9.9348,9.5387,0.0,0.0,0.0,0.0,0.0,0.0,0.0,0.0,0.0,0.0,0.0,0.0,0.0,0.0,0.0,0.0,7.0814,7.7475,7.91,8.267,8.6839,9.157,9.3016,9.4231,9.5977,9.6736,9.8834,10.3006,10.4612,10.6838,11.0242,11.1811,11.2945,11.3662,11.5724,11.7255,11.8083,11.9308,11.9971,11.9971,12.0655,12.0958,12.1034,12.1718,12.2022,12.2022,12.2022,12.149,12.0579,12.0606,11.9925,11.865,0.0,0.0,0.0,0.0,11.5681,11.7551,11.8448,11.9869,12.1289,12.1541,12.1843,12.2231,12.3353,12.3312,12.3236,12.4755,12.6141,12.7486,12.9212,13.1058,13.2805,13.3777,13.4525,13.5198,13.5871,13.6843,13.774,13.8413,14.0133,0.0,13.7591,13.7014,13.584,13.2467,13.6199,13.8942,13.7467,14.2583,14.4375,13.9425,14.4823,14.733,14.3587,14.2003,0.0,0.0,0.0,14.2111,14.2881,14.1451,0.0,0.0,0.0,11.6175,11.3669,10.4142,0.0,0.0,8.7904,8.5543,0.0,0.0,0.0,0.0,0.0,0.0,0.0,0.0,0.0,0.0,0.0,0.0,0.0,0.0,0.0,0.0,6.2316,6.8373,6.8586,7.469,8.068,8.4624,8.7847,9.0206,9.1421,9.2408,9.4838,9.9394,10.0393,10.2598,10.6602,10.8182,10.9389,11.0329,11.3342,11.5236,11.5792,11.7679,11.8832,11.9212,11.8832,11.906,11.9895,11.944,11.9212,11.9212,11.9212,11.8301,11.6782,11.6782,11.6171,11.4935,11.1933,10.9516,10.7755,10.8652,11.0521,11.284,11.4485,11.613,11.7625,11.7924,11.8248,11.8607,11.8901,11.8756,11.8681,11.9136,12.0592,12.2399,12.4122,12.6799,12.9365,13.0637,13.1983,13.2955,13.2955,13.3927,13.4824,13.4824,13.5946,13.5572,13.1235,13.2754,13.4024,13.235,13.6288,13.9501,13.9969,14.4489,14.5479,13.974,14.5496,14.787,14.3229,14.3123,14.5927,15.2173,14.66,14.5329,15.0378,14.4324,13.8449,13.3411,12.0123,11.0176,0.0,0.0,0.0,0.0,0.0,0.0,0.0,0.0,0.0,0.0,0.0,0.0,0.0,0.0,0.0,0.0,0.0,0.0,0.0,0.0,0.0,0.0,0.0,0.0,5.9852,6.7107,7.2511,7.2821,7.8742,8.2765,8.2841,8.5802,8.9143,9.256,9.59,9.8375,9.9745,10.1421,10.3893,10.7115,10.8993,11.077,11.268,11.4352,11.6023,11.7466,11.5947,11.6858,11.9895,11.8225,11.7466,11.7466,11.7466,11.6554,11.5188,11.5188,11.376,11.1529,10.9532,10.7638,10.6409,10.9549,11.0746,11.112,11.284,11.4559,11.6174,11.6571,11.6845,11.7162,11.739,11.6403,11.5567,11.7086,11.7191,11.7296,11.8925,12.2588,12.5701,12.5776,12.944,13.2955,13.2955,13.3029,13.3029,13.3029,13.0562,12.7571,12.4729,12.5379,12.4407,11.853,12.1666,0.0,12.6752,13.5228,14.2732,14.7244,15.2054,15.479,15.464,14.4706,14.2483,15.2023,13.9218,13.6625,14.8508,13.483,12.5682,12.3008,10.9721,10.0451,9.5387,0.0,0.0,0.0,0.0,0.0,0.0,0.0,0.0,0.0,0.0,0.0,0.0,0.0,0.0,0.0,0.0,0.0,0.0,0.0,0.0,0.0,0.0,0.0,0.0,6.0488,6.7646,6.8808,7.4934,7.7298,7.2818,7.7444,8.0758,8.0802,8.7076,9.1555,9.312,9.5717,9.8653,10.1944,10.4839,10.7123,10.8961,11.0784,11.253,11.4201,11.3669,11.458,11.6706,11.6099,11.5871,11.5871,11.5871,11.4884,11.3365,11.3213,11.0681,10.6863,10.6005,10.5212,10.4689,10.5586,10.5885,10.6184,10.7829,10.8951,10.9682,11.0176,10.9586,10.8809,10.9113,10.9569,11.01,11.048,11.1881,11.3624,11.5148,11.7281,11.957,12.1813,12.2785,12.3458,12.458,12.4879,12.5178,12.6225,12.286,11.8925,11.6021,12.0444,12.2969,11.8712,12.5997,13.2745,13.5338,14.2266,14.8077,15.0843,15.4506,15.6809,15.6809,15.1232,14.914,15.2397,14.4881,14.2415,14.703,13.8106,13.2311,13.0753,12.1946,10.7209,8.6639,0.0,0.0,0.0,0.0,0.0,0.0,0.0,0.0,0.0,0.0,0.0,0.0,0.0,0.0,0.0,0.0,0.0,0.0,0.0,0.0,0.0,0.0,0.0,0.0,0.0,0.0,6.359,6.8681,0.0,6.3488,6.7295,6.9776,6.8669,7.5283,8.093,8.4402,8.8177,9.201,9.6038,9.9982,10.2583,10.3722,10.6152,10.8202,10.9873,10.9873,11.1087,11.3213,11.2682,11.2378,11.2378,11.2378,11.1391,10.9796,10.8784,10.5161,9.9963,9.8395,9.6637,9.5029,9.6725,9.7697,9.8701,10.2823,10.4804,10.5481,10.6003,10.395,10.0989,9.9926,9.9166,9.8787,9.985,10.2605,10.601,10.8735,11.2123,11.5382,11.7551,11.8149,11.8448,11.957,11.9345,11.8822,11.8747,11.6653,11.3424,10.8616,11.4221,11.8644,11.6549,12.3879,13.2297,13.9556,14.4695,14.8658,15.1425,15.4715,15.651,15.5911,15.3294,15.15,15.0901,14.5667,14.2656,14.2837,13.7011,13.1571,12.7033,11.9212,10.4321,0.0,0.0,0.0,0.0,0.0,0.0,0.0,0.0,0.0,0.0,0.0,0.0,0.0,0.0,0.0,0.0,0.0,0.0,0.0,0.0,0.0,0.0,0.0,0.0,0.0,0.0,0.0,5.7021,5.9986,0.0,0.0,0.0,0.0,5.6302,6.1158,6.6939,7.3496,7.8513,8.37,8.9065,9.4078,9.6812,9.704,10.0305,10.2811,10.4481,10.4557,10.6304,10.9493,10.7974,10.7215,10.7215,10.7367,10.638,10.4632,10.1875,9.703,9.0961,8.7122,8.2584,7.882,8.3644,8.6454,8.8983,9.7345,10.1476,10.3033,10.3355,9.9318,9.3699,9.013,8.565,0.0,0.0,8.9842,9.4464,9.9738,10.6732,11.2422,11.2989,11.5457,11.77,11.7775,11.6504,11.4186,11.0447,11.1151,10.9731,10.1245,0.0,11.0004,11.0395,11.4735,12.3288,13.8101,14.1724,14.477,14.963,15.307,15.4341,15.2696,15.1051,14.9406,14.7611,14.133,13.7217,13.6117,13.0869,12.2897,11.1994,10.1824,0.0,0.0,0.0,0.0,0.0,0.0,0.0,0.0,0.0,0.0,0.0,0.0,0.0,0.0,0.0,0.0,0.0,0.0,0.0,0.0,0.0,0.0,0.0,0.0,0.0,0.0,4.4727,5.0703,5.3303,5.3271,5.0591,0.0,0.0,0.0,0.0,0.0,0.0,5.9822,6.4741,7.0928,7.8496,8.2386,8.6225,9.0054,9.3395,9.5901,9.7572,9.8862,10.0533,10.2507,10.3342,10.3722,10.3798,10.5089,10.4633,10.2278,9.1599,8.5561,8.2648,7.7634,7.4158,7.21,7.3195,7.4556,7.6948,8.4032,8.8595,9.081,8.8406,8.6755,8.436,7.7222,0.0,0.0,0.0,0.0,8.3423,9.1818,9.6334,10.0517,10.7862,11.0222,11.112,11.2391,11.1344,10.6998,9.6524,9.3976,8.9439,7.6262,8.0706,0.0,8.9283,10.1055,11.4486,12.8042,13.7484,14.4321,14.7985,15.1275,15.307,15.2621,15.0004,14.7162,14.4321,13.9086,13.4375,13.0687,12.1187,11.131,10.1134,0.0,0.0,0.0,0.0,0.0,0.0,0.0,0.0,0.0,0.0,0.0,0.0,0.0,0.0,0.0,0.0,0.0,0.0,0.0,0.0,0.0,0.0,0.0,0.0,0.0,0.0,0.0,3.8512,4.3788,4.6535,4.4672,4.1179,0.0,0.0,0.0,0.0,0.0,0.0,0.0,0.0,0.0,6.5845,7.0003,7.4621,7.9666,8.3088,8.6005,8.8536,9.1649,9.3623,9.4534,9.6199,9.7029,9.7025,9.7159,9.4613,8.9723,8.1237,7.4738,6.9483,0.0,0.0,0.0,0.0,6.0528,6.2899,7.0305,7.5702,7.8681,7.4611,0.0,0.0,0.0,0.0,0.0,0.0,0.0,7.5565,8.3022,9.0972,9.8396,10.3751,10.5586,10.6409,10.7381,9.9515,9.0111,8.2756,8.0199,7.516,6.2403,6.606,0.0,0.0,0.0,10.4743,11.7842,13.1924,14.1629,14.4246,14.8733,15.1275,15.0527,14.7462,14.4171,14.0881,13.4675,12.8094,12.1364,11.002,9.8365,0.0,0.0,0.0,0.0,0.0,0.0,0.0,0.0,0.0,0.0,0.0,0.0,0.0,0.0,0.0,0.0,0.0,0.0,0.0,0.0,0.0,0.0,0.0,0.0,0.0,0.0,0.0,0.0,0.0,3.6958,3.9269,0.0,0.0,0.0,0.0,0.0,0.0,0.0,0.0,0.0,0.0,0.0,0.0,0.0,6.1894,6.6785,7.0395,7.3838,7.7146,8.1853,8.4283,8.451,8.6218,8.7254,8.7474,8.4568,0.0,7.2989,7.0049,0.0,0.0,0.0,0.0,0.0,0.0,0.0,0.0,0.0,0.0,0.0,0.0,0.0,0.0,0.0,0.0,0.0,0.0,0.0,0.0,0.0,0.0,9.7242,9.7808,9.9601,10.0612,9.8669,8.3743,7.0389,6.9089,6.7622,6.3403,0.0,0.0,0.0,0.0,0.0,0.0,10.8388,12.6296,13.8488,14.0133,14.6116,14.9181,14.7237,14.4321,14.0806,13.6768,12.797,11.8879,10.9631,9.8441,0.0,0.0,0.0,0.0,0.0,0.0,0.0,0.0,0.0,0.0,0.0,0.0,0.0,0.0,0.0,0.0,0.0,0.0,0.0,0.0,0.0,0.0,0.0,0.0,0.0,0.0,0.0,0.0,0.0,0.0,0.0,0.0,0.0,0.0,0.0,0.0,0.0,0.0,0.0,0.0,0.0,0.0,0.0,0.0,0.0,0.0,0.0,0.0,0.0,0.0,6.4895,6.731,6.8735,7.0459,7.2658,7.4774,6.6135,6.3221,6.3908,5.5047,0.0,0.0,0.0,0.0,0.0,0.0,0.0,0.0,0.0,0.0,0.0,0.0,0.0,0.0,0.0,0.0,0.0,0.0,0.0,0.0,0.0,0.0,7.6095,8.1476,8.6127,8.5973,7.3597,0.0,0.0,0.0,0.0,0.0,0.0,0.0,0.0,0.0,0.0,0.0,10.1486,12.3432,13.8488,14.0133,14.5069,14.6938,14.4022,14.1928,13.7666,13.0263,11.6944,10.5647,0.0,0.0,0.0,0.0,0.0,0.0,0.0,0.0,0.0,0.0,0.0,0.0,0.0,0.0,0.0,0.0,0.0,0.0,0.0,0.0,0.0,0.0,0.0,0.0,0.0,0.0,0.0,0.0,0.0,0.0,0.0,0.0,0.0,0.0,0.0,0.0,0.0,0.0,0.0,0.0,0.0,0.0,0.0,0.0,0.0,0.0,0.0,0.0,0.0,0.0,0.0,0.0,0.0,0.0,0.0,0.0,0.0,0.0,5.4256,4.7833,0.0,0.0,0.0,0.0,0.0,0.0,0.0,0.0,0.0,0.0,0.0,0.0,0.0,0.0,0.0,0.0,0.0,0.0,0.0,0.0,0.0,0.0,0.0,0.0,0.0,0.0,0.0,0.0,0.0,0.0,0.0,0.0,0.0,0.0,0.0,0.0,0.0,0.0,0.0,0.0,9.4923,11.9878,13.7591,14.0059,14.3947,14.5443,14.305,13.9759,13.253,11.9978,10.7659,0.0,0.0,0.0,0.0,0.0,0.0,0.0,0.0,0.0,0.0,0.0,0.0,0.0,0.0,0.0,0.0,0.0,0.0,0.0,0.0,0.0,0.0,0.0,0.0,0.0,0.0,0.0,0.0,0.0,0.0,0.0,0.0,0.0,0.0,0.0,0.0,0.0,0.0,0.0,0.0,0.0,0.0,0.0,0.0,0.0,0.0,0.0,0.0,0.0,0.0,0.0,0.0,0.0,0.0,0.0,0.0,0.0,0.0,0.0,4.4552,3.5977,0.0,0.0,0.0,0.0,0.0,0.0,0.0,0.0,0.0,0.0,0.0,0.0,0.0,0.0,0.0,0.0,0.0,0.0,0.0,0.0,0.0,0.0,0.0,0.0,0.0,0.0,0.0,0.0,0.0,0.0,0.0,0.0,0.0,0.0,0.0,0.0,0.0,0.0,0.0,0.0,8.9929,11.6772,13.6095,13.9012,14.2526,14.3947,14.2003,13.7591,12.7645,11.0517,9.8835,0.0,0.0,0.0,0.0,0.0,0.0,0.0,0.0,0.0,0.0,0.0,0.0,0.0,0.0,0.0,0.0,0.0,0.0,0.0,0.0,0.0,0.0,0.0,0.0,0.0,0.0,0.0,0.0,0.0,0.0,0.0,0.0,0.0,0.0,0.0,0.0,0.0,0.0,0.0,0.0,0.0,0.0,0.0,0.0,0.0,0.0,0.0,0.0,0.0,0.0,0.0,0.0,0.0,0.0,0.0,0.0,0.0,0.0,0.0,0.0,0.0,0.0,0.0,0.0,0.0,0.0,0.0,0.0,0.0,0.0,0.0,0.0,0.0,0.0,0.0,0.0,0.0,0.0,0.0,0.0,0.0,0.0,0.0,0.0,0.0,0.0,0.0,0.0,0.0,0.0,0.0,0.0,0.0,0.0,0.0,0.0,0.0,0.0,0.0,0.0,0.0,8.8211,11.5009,13.3927,13.5721,14.0208,14.1778,13.8563,13.5198,12.4956,10.5509,0.0,0.0,0.0,0.0,0.0,0.0,0.0,0.0,0.0,0.0,0.0,0.0,0.0,0.0,0.0,0.0,0.0,0.0,0.0,0.0,0.0,0.0,0.0,0.0,0.0,0.0,0.0,0.0,0.0,0.0,0.0,0.0,0.0,0.0,0.0,0.0,0.0,0.0,0.0,0.0,0.0,0.0,0.0,0.0,0.0,0.0,0.0,0.0,0.0,0.0,0.0,0.0,0.0,0.0,0.0,0.0,0.0,0.0,0.0,0.0,0.0,0.0,0.0,0.0,0.0,0.0,0.0,0.0,0.0,0.0,0.0,0.0,0.0,0.0,0.0,0.0,0.0,0.0,0.0,0.0,0.0,0.0,0.0,0.0,0.0,0.0,0.0,0.0,0.0,0.0,0.0,0.0,0.0,0.0,0.0,0.0,0.0,0.0,0.0,0.0,0.0,0.0,8.9291,11.4488,13.2805,13.6469,13.9535,13.9984,13.6694,13.3403,12.0526,9.4896,0.0,0.0,0.0,0.0,0.0,0.0,0.0,0.0,0.0,0.0,0.0,0.0,0.0,0.0,0.0,0.0,0.0,0.0,0.0,0.0,0.0,0.0,0.0,0.0,0.0,0.0,0.0,0.0,0.0,0.0,0.0,0.0,0.0,0.0,0.0,0.0,0.0,0.0,0.0,0.0,0.0,0.0,0.0,0.0,0.0,0.0,0.0,0.0,0.0,0.0,0.0,0.0,0.0,0.0,0.0,0.0,0.0,0.0,0.0,0.0,0.0,0.0,0.0,0.0,0.0,0.0,0.0,0.0,0.0,0.0,0.0,0.0,0.0,0.0,0.0,0.0,0.0,0.0,0.0,0.0,0.0,0.0,0.0,0.0,0.0,0.0,0.0,0.0,0.0,0.0,0.0,0.0,0.0,0.0,0.0,0.0,0.0,0.0,0.0,0.0,0.0,0.0,8.9533,11.3198,13.0861,13.5871,13.789,13.7965,13.5721,13.0661,11.6053,8.8949,0.0,0.0,0.0,0.0,0.0,0.0,0.0,0.0,0.0,0.0,0.0,0.0,0.0,0.0,0.0,0.0,0.0,0.0,0.0,0.0,0.0,0.0,0.0,0.0,0.0,0.0,0.0,0.0,0.0,0.0,0.0,0.0,0.0,0.0,0.0,0.0,0.0,0.0,0.0,0.0,0.0,0.0,0.0,0.0,0.0,0.0,0.0,0.0,0.0,0.0,0.0,0.0,0.0,0.0,0.0,0.0,0.0,0.0,0.0,0.0,0.0,0.0,0.0,0.0,0.0,0.0,0.0,0.0,0.0,0.0,0.0,0.0,0.0,0.0,0.0,0.0,0.0,0.0,0.0,0.0,0.0,0.0,0.0,0.0,0.0,0.0,0.0,0.0,0.0,0.0,0.0,0.0,0.0,0.0,0.0,0.0,0.0,0.0,0.0,0.0,0.0,0.0,8.776,11.0442,12.7496,13.2506,13.4525,13.5497,13.5497,12.6599,11.1857,0.0,0.0,0.0,0.0,0.0,0.0,0.0,0.0,0.0,0.0,0.0,0.0,0.0,0.0,0.0,0.0,0.0,0.0,0.0,0.0,0.0,0.0,0.0,0.0,0.0,0.0,0.0,0.0,0.0,0.0,0.0,0.0,0.0,0.0,0.0,0.0,0.0,0.0,0.0,0.0,0.0,0.0,0.0,0.0,0.0,0.0,0.0,0.0,0.0,0.0,0.0,0.0,0.0,0.0,0.0,0.0,0.0,0.0,0.0,0.0,0.0,0.0,0.0,0.0,0.0,0.0,0.0,0.0,0.0,0.0,0.0,0.0,0.0,0.0,0.0,0.0,0.0,0.0,0.0,0.0,0.0,0.0,0.0,0.0,0.0,0.0,0.0,0.0,0.0,0.0,0.0,0.0,0.0,0.0,0.0,0.0,0.0,0.0,0.0,0.0,0.0,0.0,0.0,8.5123,10.2893,11.7891,12.8493,13.2132,13.3329,13.2132,12.7148,11.3587,8.8894,0.0,0.0,0.0,0.0,0.0,0.0,0.0,0.0,0.0,0.0,0.0,0.0,0.0,0.0,0.0,0.0,0.0,0.0,0.0,0.0,0.0,0.0,0.0,0.0,0.0,0.0,0.0,0.0,0.0,0.0,0.0,0.0,0.0,0.0,0.0,0.0,0.0,0.0,0.0,0.0,0.0,0.0,0.0,0.0,0.0,0.0,0.0,0.0,0.0,0.0,0.0,0.0,0.0,0.0,0.0,0.0,0.0,0.0,0.0,0.0,0.0,0.0,0.0,0.0,0.0,0.0,0.0,0.0,0.0,0.0,0.0,0.0,0.0,0.0,0.0,0.0,0.0,0.0,0.0,0.0,0.0,0.0,0.0,0.0,0.0,0.0,0.0,0.0,0.0,0.0,0.0,0.0,0.0,0.0,0.0,0.0,0.0,0.0,0.0,0.0,0.0,0.0,0.0,10.1655,11.6971,12.7047,13.0487,13.1384,12.9665,12.5503,11.2497,8.808,0.0,0.0,0.0,0.0,0.0,0.0,0.0,0.0,0.0,0.0,0.0,0.0,0.0,0.0,0.0,0.0,0.0,0.0,0.0,0.0,0.0,0.0,0.0,0.0,0.0,0.0,0.0,0.0,0.0,0.0,0.0,0.0,0.0,0.0,0.0,0.0,0.0,0.0,0.0,0.0,0.0,0.0,0.0,0.0,0.0,0.0,0.0,0.0,0.0,0.0,0.0,0.0,0.0,0.0,0.0,0.0,0.0,0.0,0.0,0.0,0.0,0.0,0.0,0.0,0.0,0.0,0.0,0.0,0.0,0.0,0.0,0.0,0.0,0.0,0.0,0.0,0.0,0.0,0.0,0.0,0.0,0.0,0.0,0.0,0.0,0.0,0.0,0.0,0.0,0.0,0.0,0.0,0.0,0.0,0.0,0.0,0.0,0.0,0.0,0.0,0.0,0.0,0.0,10.4809,12.1439,12.6973,12.8991,12.9291,12.787,12.2118,10.9352,8.7834,7.4503,0.0,0.0,0.0,0.0,0.0,0.0,0.0,0.0,0.0,0.0,0.0,0.0,0.0,0.0,0.0,0.0,0.0,0.0,0.0,0.0,0.0,0.0,0.0,0.0,0.0,0.0,0.0,0.0,0.0,0.0,0.0,0.0,0.0,0.0,0.0,0.0,0.0,0.0,0.0,0.0,0.0,0.0,0.0,0.0,0.0,0.0,0.0,0.0,0.0,0.0,0.0,0.0,0.0,0.0,0.0,0.0,0.0,0.0,0.0,0.0,0.0,0.0,0.0,0.0,0.0,0.0,0.0,0.0,0.0,0.0,0.0,0.0,0.0,0.0,0.0,0.0,0.0,0.0,0.0,0.0,0.0,0.0,0.0,0.0,0.0,0.0,0.0,0.0,0.0,0.0,0.0,0.0,0.0,0.0,0.0,0.0,0.0,0.0,0.0,0.0,0.0,0.0,9.826,10.9987,12.1289,12.3832,12.4654,12.4281,12.057,10.9242,8.7834,7.645,0.0,0.0,0.0,0.0,0.0,0.0,0.0,0.0,0.0,0.0,0.0,0.0,0.0,0.0,0.0,0.0,0.0,0.0,0.0,0.0,0.0,0.0,0.0,0.0,0.0,0.0,0.0,0.0,0.0,0.0,0.0,0.0,0.0,0.0,0.0,0.0,0.0,0.0,0.0,0.0,0.0,0.0,0.0,0.0,0.0,0.0,0.0,0.0,0.0,0.0,0.0,0.0,0.0,0.0,0.0,0.0,0.0,0.0,0.0,0.0,0.0,0.0,0.0,0.0,0.0,0.0,0.0,0.0,0.0,0.0,0.0,0.0,0.0,0.0,0.0,0.0,0.0,0.0,0.0,0.0,0.0,0.0,0.0,0.0,0.0,0.0,0.0,0.0,0.0,0.0,0.0,0.0,0.0,0.0,0.0,0.0,0.0,0.0,0.0,0.0,0.0,0.0,8.2311,9.6628,11.7356,12.1663,12.2785,12.2037,11.8971,10.8019,8.677,7.4657,0.0,0.0,0.0,0.0,0.0,0.0,0.0,0.0,0.0,0.0,0.0,0.0,0.0,0.0,0.0,0.0,0.0,0.0,0.0,0.0,0.0,0.0,0.0,0.0,0.0,0.0,0.0,0.0,0.0,0.0,0.0,0.0,0.0,0.0,0.0,0.0,0.0,0.0,0.0,0.0,0.0,0.0,0.0,0.0,0.0,0.0,0.0,0.0,0.0,0.0,0.0,0.0,0.0,0.0,0.0,0.0,0.0,0.0,0.0,0.0,0.0,0.0,0.0,0.0,0.0,0.0,0.0,0.0,0.0,0.0,0.0,0.0,0.0,0.0,0.0,0.0,0.0,0.0,0.0,0.0,0.0,0.0,0.0,0.0,0.0,0.0,0.0,0.0,0.0,0.0,0.0,0.0,0.0,0.0,0.0,0.0,0.0,0.0,0.0,0.0,0.0,0.0,0.0,8.5844,11.1736,11.8925,12.1364,12.0018,11.6653,10.5632,8.4744,0.0,0.0,0.0,0.0,0.0,0.0,0.0,0.0,0.0,0.0,0.0,0.0,0.0,0.0,0.0,0.0,0.0,0.0,0.0,0.0,0.0,0.0,0.0,0.0,0.0,0.0,0.0,0.0,0.0,0.0,0.0,0.0,0.0,0.0,0.0,0.0,0.0,0.0,0.0,0.0,0.0,0.0,0.0,0.0,0.0,0.0,0.0,0.0,0.0,0.0,0.0,0.0,0.0,0.0,0.0,0.0,0.0,0.0,0.0,0.0,0.0,0.0,0.0,0.0,0.0,0.0,0.0,0.0,0.0,0.0,0.0,0.0,0.0,0.0,0.0,0.0,0.0,0.0,0.0,0.0,0.0,0.0,0.0,0.0,0.0,0.0,0.0,0.0,0.0,0.0,0.0,0.0,0.0,0.0,0.0,0.0,0.0,0.0,0.0,0.0,0.0,0.0,0.0,0.0,8.8046,9.6591,10.9078,11.6728,11.6429,11.2092,10.0974,8.1128,0.0,0.0,0.0,0.0,0.0,0.0,0.0,0.0,0.0,0.0,0.0,0.0,0.0,0.0]}],[{"header":{"parameterUnit":"kt","parameterCategory":2,"dx":1,"dy":1,"la1":29.285339999999998,"la2":30.599998999999997,"lo1":-89.70041500000002,"lo2":-87.6738589999976,"nx":112,"ny":82,"refTime":"2022-10-26T06:00:00:Z","depth":0,"parameterNumber":2,"parameterNumberName":"V-component_of_WINDS"},"data":[-0.9156,-0.6571,-0.4483,-0.4518,-0.1558,0.05,-0.219,-0.3528,-0.4317,-0.4837,-0.5096,-0.4872,-0.3733,-0.3766,-0.4008,-0.4238,0.0,0.0,0.0,-0.7455,-0.859,0.0,0.0,0.0,0.0,0.0,-1.701,-2.3373,-2.1258,-2.0874,-2.4015,-2.3311,-2.1942,-2.0196,-1.9791,-1.9501,-1.9092,-1.9092,-1.9092,-1.9092,-1.9092,-1.9251,-1.9541,-1.9646,-1.9949,-2.0398,-2.0503,-2.0661,-2.0833,-2.0833,-2.0833,-2.0833,-2.0833,-2.0833,-2.0833,-2.0833,-2.0833,-2.0833,-2.0833,-2.0833,-2.0833,-2.0833,-2.0833,-2.0859,-2.0965,-2.1123,-2.136,-2.1743,-2.1993,-2.2204,-2.2507,-2.2586,-2.2586,-2.2586,-2.2586,-2.2586,-2.2586,-2.2586,-2.2586,-2.2586,-2.2586,-2.2586,-2.2586,-2.2586,-2.2586,-2.2586,-2.2586,-2.2586,-2.2586,-2.2586,-2.2586,-2.2586,-2.3101,-2.3523,-2.3734,-2.409,-2.4301,-2.4301,-2.4301,-2.4301,-2.4301,-2.4301,-2.4301,-2.4301,-2.4301,-2.4301,-2.4301,-2.4301,-2.4301,-2.4301,-2.4301,-2.4301,-0.8287,-0.7212,-0.6928,-0.6886,-0.5109,-0.3735,-0.5895,-0.6526,-0.6673,-0.6537,-0.5671,-0.4785,-0.4516,-0.4815,-0.5049,-0.4883,-0.5878,-0.666,0.0,-0.7898,-0.912,-0.9948,0.0,0.0,0.0,-1.766,-1.9694,-2.4122,-2.1623,-2.0915,-2.3164,-2.2587,-2.1391,-1.9949,-1.9686,-1.9396,-1.9092,-1.9092,-1.9092,-1.9092,-1.9092,-1.9198,-1.9382,-1.9488,-1.9804,-2.0266,-2.0358,-2.0556,-2.0833,-2.0833,-2.0833,-2.0833,-2.0833,-2.0833,-2.0833,-2.0833,-2.0833,-2.0833,-2.0833,-2.0833,-2.0833,-2.0833,-2.0833,-2.0833,-2.0833,-2.0978,-2.1215,-2.1598,-2.1848,-2.2085,-2.2481,-2.2586,-2.2586,-2.2586,-2.2586,-2.2586,-2.2586,-2.2586,-2.2586,-2.2586,-2.2586,-2.2586,-2.2586,-2.2586,-2.2586,-2.2586,-2.2586,-2.2586,-2.2586,-2.2586,-2.2626,-2.2718,-2.3153,-2.3483,-2.3589,-2.4037,-2.4301,-2.4301,-2.4301,-2.4301,-2.4301,-2.4301,-2.4301,-2.4301,-2.4301,-2.4301,-2.4301,-2.4301,-2.4301,-2.4301,-2.4301,-2.4301,-1.525,-1.1019,-0.6969,-0.6992,-0.825,-0.8794,-0.632,-0.6074,-0.6245,-0.5799,-0.5854,-0.5829,-0.5381,-0.5674,-0.6135,-0.6443,-0.6987,0.0,0.0,-0.8432,-0.9647,-1.1681,-1.6762,-2.0354,-2.0848,-2.0161,-2.0893,-2.3502,-2.0699,-1.979,-2.1797,-2.1864,-2.1405,-1.9949,-1.9686,-1.9382,-1.9092,-1.9092,-1.9092,-1.9092,-1.9092,-1.9092,-1.9106,-1.9382,-1.9686,-1.9989,-2.0253,-2.0543,-2.082,-2.082,-2.0833,-2.0833,-2.0833,-2.0833,-2.0833,-2.0833,-2.0833,-2.0833,-2.0833,-2.0833,-2.0833,-2.0833,-2.0833,-2.0833,-2.0833,-2.0833,-2.0965,-2.1532,-2.1703,-2.1835,-2.2428,-2.2586,-2.2586,-2.2586,-2.2586,-2.2586,-2.2586,-2.2586,-2.2586,-2.2586,-2.2586,-2.2586,-2.2586,-2.2586,-2.2586,-2.2586,-2.2586,-2.2586,-2.2586,-2.2586,-2.2692,-2.2969,-2.3272,-2.3562,-2.3865,-2.4142,-2.4301,-2.4301,-2.4301,-2.4301,-2.4301,-2.4301,-2.4301,-2.4301,-2.4301,-2.4301,-2.4301,-2.4301,-2.4301,-2.4301,-2.4301,-2.4301,-1.2027,-1.0715,-0.9916,-1.1052,-0.9991,-0.8484,-0.7908,-0.6629,-0.5765,-0.6362,-0.5551,0.0,0.0,0.0,-0.6789,-0.7311,0.0,-1.183,-0.9251,-1.3025,-1.7352,-2.0894,-2.2177,-2.4179,-2.7554,-2.4199,-2.3733,-2.8349,-2.1786,-1.9,-2.1906,-2.0686,-1.9983,-1.9976,-1.9475,-1.9171,-1.9092,-1.9092,-1.9092,-1.9092,-1.9092,-1.9092,-1.9092,-1.9171,-1.9369,-1.9659,-1.9738,-2.0055,-2.0516,-2.0516,-2.0648,-2.0833,-2.0833,-2.0833,-2.0833,-2.0833,-2.0833,-2.0833,-2.0833,-2.0833,-2.0833,-2.0833,-2.0833,-2.0833,-2.0833,-2.0833,-2.0965,-2.1532,-2.1703,-2.1835,-2.2428,-2.2586,-2.2586,-2.2586,-2.2586,-2.2586,-2.2586,-2.2586,-2.2586,-2.2586,-2.2586,-2.2586,-2.2586,-2.2586,-2.2586,-2.2586,-2.2586,-2.2586,-2.2586,-2.2586,-2.2692,-2.2969,-2.3272,-2.3562,-2.3865,-2.4142,-2.4301,-2.4301,-2.4301,-2.4301,-2.4301,-2.4301,-2.4301,-2.4301,-2.4301,-2.4301,-2.4301,-2.4301,-2.4301,-2.4301,-2.4301,-2.4301,-1.2585,-1.2969,-1.3403,-1.2675,-1.174,-1.0339,-0.8281,-0.7015,-0.6324,-0.6462,0.0,0.0,0.0,0.0,0.0,0.0,-1.1886,-1.4097,-1.296,-1.6316,-2.014,-2.3189,-2.4624,-2.6938,-3.106,-2.7684,-2.6566,-2.9434,-2.2518,-1.9067,-2.0979,-2.0252,-1.9804,-1.9976,-1.9409,-1.9092,-1.9092,-1.9092,-1.9092,-1.9092,-1.9092,-1.9092,-1.9092,-1.9092,-1.9251,-1.9527,-1.9527,-1.9857,-2.0398,-2.0398,-2.0569,-2.082,-2.0701,-2.0727,-2.0833,-2.0833,-2.0833,-2.0833,-2.0833,-2.0833,-2.0833,-2.0833,-2.0833,-2.0833,-2.0833,-2.0833,-2.0965,-2.1532,-2.1703,-2.1835,-2.2428,-2.2586,-2.2586,-2.2586,-2.2586,-2.2586,-2.2586,-2.2586,-2.2586,-2.2586,-2.2586,-2.2586,-2.2586,-2.2586,-2.2586,-2.2586,-2.2586,-2.2586,-2.2586,-2.2586,-2.2745,-2.314,-2.3338,-2.3615,-2.4024,-2.4208,-2.4301,-2.4301,-2.4301,-2.4301,-2.4301,-2.4301,-2.4301,-2.4301,-2.4301,-2.4301,-2.4301,-2.4301,-2.4301,-2.4301,-2.4301,-2.4301,-1.4935,-1.5658,-1.6372,-1.2911,-1.3014,-1.2823,-0.8469,0.0,-0.7837,-0.7043,0.0,-0.7202,-0.7878,0.0,0.0,-1.1183,-1.3643,-1.6118,-1.7606,-1.9556,-2.1257,-2.2964,-2.6282,-2.9658,-3.2774,-3.1008,-2.9258,-2.847,-2.2787,-1.9616,-1.9897,-1.9949,-1.9949,-1.9989,-1.9435,-1.9119,-1.9092,-1.9092,-1.9092,-1.9092,-1.9092,-1.9092,-1.9092,-1.9092,-1.9237,-1.9488,-1.9488,-1.9791,-2.0292,-2.0292,-2.049,-2.0767,-2.0503,-2.0556,-2.0793,-2.082,-2.0833,-2.0833,-2.0833,-2.0833,-2.0833,-2.0833,-2.0833,-2.0833,-2.0833,-2.0833,-2.0965,-2.1532,-2.1703,-2.1835,-2.2428,-2.2586,-2.2586,-2.2586,-2.2586,-2.2586,-2.2586,-2.2586,-2.2586,-2.2586,-2.2586,-2.2586,-2.2586,-2.2586,-2.2586,-2.2586,-2.2586,-2.2586,-2.2586,-2.2613,-2.2837,-2.3391,-2.3483,-2.372,-2.4261,-2.4301,-2.4301,-2.4301,-2.4301,-2.4301,-2.4301,-2.4301,-2.4301,-2.4301,-2.4301,-2.4301,-2.4301,-2.4301,-2.4301,-2.4301,-2.4301,-2.4301,-1.328,-1.3748,-1.432,-1.3366,-1.2315,-1.1595,0.0,0.0,0.0,-1.1954,-1.2633,-1.3448,-1.4986,-1.643,-1.7953,-1.9581,-2.3193,-2.4453,-2.0607,-2.5586,-3.0691,-3.3433,-3.4488,-3.5423,-3.654,-3.587,-3.3386,-2.878,-2.256,-1.9355,-1.9936,-1.9752,-1.9725,-1.9976,-1.9633,-1.933,-1.9092,-1.9092,-1.9092,-1.9092,-1.9092,-1.9092,-1.9092,-1.9092,-1.9119,-1.9171,-1.9171,-1.9369,-1.9699,-1.9699,-2.0002,-2.0477,-2.0424,-2.0424,-2.0516,-2.0754,-2.0833,-2.0833,-2.0833,-2.0833,-2.0833,-2.0833,-2.0833,-2.0833,-2.0833,-2.0833,-2.0965,-2.1532,-2.1703,-2.1835,-2.2428,-2.2586,-2.2586,-2.2586,-2.2586,-2.2586,-2.2586,-2.2586,-2.2586,-2.2586,-2.2586,-2.2586,-2.2586,-2.2586,-2.2586,-2.2586,-2.2586,-2.2586,-2.2586,-2.2784,-2.3048,-2.3404,-2.3668,-2.3945,-2.4274,-2.4301,-2.4301,-2.4301,-2.4301,-2.4301,-2.4301,-2.4301,-2.4301,-2.4301,-2.4301,-2.4301,-2.4301,-2.4301,-2.4301,-2.4301,-2.4301,-2.4301,-1.2965,-1.3494,-1.4151,-1.3154,-1.2516,0.0,0.0,-1.1036,-1.05,-1.2824,-1.3683,-1.4693,-1.6825,-1.8423,-2.0087,-2.2397,-2.4464,-2.5732,-2.61,-2.943,-3.2607,-3.4385,-3.4618,-3.5319,-3.7033,-3.6955,-3.4508,-2.882,-2.275,-1.9514,-1.9963,-1.9844,-1.9831,-1.9976,-1.9686,-1.9396,-1.9092,-1.9092,-1.9092,-1.9092,-1.9092,-1.9092,-1.9092,-1.9092,-1.9092,-1.9092,-1.9092,-1.9264,-1.9527,-1.9527,-1.9699,-1.9976,-2.0134,-2.0266,-2.0437,-2.0727,-2.0833,-2.0833,-2.0833,-2.0833,-2.0833,-2.0833,-2.0833,-2.0833,-2.0833,-2.0833,-2.0965,-2.1532,-2.1703,-2.1835,-2.2428,-2.2586,-2.2586,-2.2586,-2.2586,-2.2586,-2.2586,-2.2586,-2.2586,-2.2586,-2.2586,-2.2586,-2.2586,-2.2586,-2.2586,-2.2586,-2.2586,-2.2586,-2.2586,-2.2824,-2.3114,-2.3417,-2.3707,-2.3997,-2.4274,-2.4301,-2.4301,-2.4301,-2.4301,-2.4301,-2.4301,-2.4301,-2.4301,-2.4301,-2.4301,-2.4301,-2.4301,-2.4301,-2.4301,-2.4301,-2.4301,-2.4301,-1.2762,-1.3384,-1.4221,-1.3212,-1.2883,0.0,-1.3765,-1.2491,-1.1952,-1.4923,-1.612,-1.724,-1.9318,-2.0929,-2.2822,-2.5089,-2.5229,-2.6643,-3.1534,-3.2229,-3.2463,-3.293,-3.2982,-3.3995,-3.654,-3.6009,-3.3719,-2.88,-2.3317,-2.0078,-1.9963,-1.9989,-2.0002,-2.0068,-1.9778,-1.9475,-1.9185,-1.9119,-1.9092,-1.9092,-1.9092,-1.9092,-1.9092,-1.9092,-1.9092,-1.9092,-1.9092,-1.9224,-1.9448,-1.9448,-1.9448,-1.9475,-1.9778,-2.0068,-2.0345,-2.0648,-2.0793,-2.0833,-2.0833,-2.0833,-2.0833,-2.0833,-2.0833,-2.0833,-2.0833,-2.0833,-2.0938,-2.14,-2.1611,-2.1835,-2.2428,-2.2586,-2.2586,-2.2586,-2.2586,-2.2586,-2.2586,-2.2586,-2.2586,-2.2586,-2.2586,-2.2586,-2.2586,-2.2586,-2.2586,-2.2586,-2.2586,-2.2586,-2.2586,-2.2877,-2.318,-2.3417,-2.376,-2.4063,-2.4274,-2.4301,-2.4301,-2.4301,-2.4301,-2.4301,-2.4301,-2.4301,-2.4301,-2.4301,-2.4301,-2.4301,-2.4301,-2.4301,-2.4301,-2.4301,-2.4301,-2.4301,-1.1457,-1.2065,-1.306,-1.4335,-1.2724,0.0,-1.972,-1.9414,-1.9087,-2.4202,-2.6436,-2.7634,-2.8478,-2.9662,-3.1119,-3.2808,-3.3228,-3.328,-3.3859,-3.4358,-3.4722,-3.4774,-3.48,-3.5319,-3.6644,-3.3854,-3.0858,-2.855,-2.5183,-2.2223,-2.0196,-1.9989,-2.0094,-2.0345,-2.0081,-1.9791,-1.9488,-1.9224,-1.9092,-1.9092,-1.9092,-1.9092,-1.9092,-1.9092,-1.9092,-1.9092,-1.9092,-1.9106,-1.9132,-1.9132,-1.9132,-1.9171,-1.9462,-1.9765,-2.0068,-2.0345,-2.0609,-2.0833,-2.0833,-2.0833,-2.0833,-2.0833,-2.0833,-2.0833,-2.0833,-2.0833,-2.0846,-2.0912,-2.1307,-2.1835,-2.2428,-2.2586,-2.2586,-2.2586,-2.2586,-2.2586,-2.2586,-2.2586,-2.2586,-2.2586,-2.2586,-2.2586,-2.2586,-2.2586,-2.2586,-2.2586,-2.2586,-2.2586,-2.2586,-2.3061,-2.3404,-2.3444,-2.3931,-2.4261,-2.4301,-2.4301,-2.4301,-2.4301,-2.4301,-2.4301,-2.4301,-2.4301,-2.4301,-2.4301,-2.4301,-2.4301,-2.4301,-2.4301,-2.4301,-2.4301,-2.4301,-2.4301,-1.0472,-1.0704,-1.1271,-1.2529,0.0,0.0,-2.0079,-2.079,-2.1586,-2.5955,-2.7543,-2.8563,-2.9824,-3.046,-3.1598,-3.3942,-3.4273,-3.4343,-3.4277,-3.4384,-3.454,-3.454,-3.454,-3.5008,-3.6176,-3.3176,-3.0571,-2.855,-2.5596,-2.2483,-1.9689,-1.9791,-2.0108,-2.0385,-2.0279,-2.0002,-1.9541,-1.9409,-1.9264,-1.9092,-1.9092,-1.9092,-1.9092,-1.9092,-1.9092,-1.9092,-1.9092,-1.9092,-1.9092,-1.9092,-1.9092,-1.9119,-1.9422,-1.9712,-2.0015,-2.0292,-2.0582,-2.0833,-2.0833,-2.0833,-2.0833,-2.0833,-2.0833,-2.0833,-2.0833,-2.0833,-2.0872,-2.1044,-2.1387,-2.1835,-2.2428,-2.2586,-2.2586,-2.2586,-2.2586,-2.2586,-2.2586,-2.2586,-2.2586,-2.2586,-2.26,-2.2626,-2.2626,-2.2626,-2.2626,-2.2626,-2.26,-2.2586,-2.2586,-2.3088,-2.3444,-2.3444,-2.3958,-2.4301,-2.4301,-2.4301,-2.4301,-2.4301,-2.4301,-2.4301,-2.4301,-2.4301,-2.4301,-2.4301,-2.4301,-2.4301,-2.4301,-2.4301,-2.4301,-2.4301,-2.4301,-2.4301,-1.0212,0.0,0.0,0.0,0.0,0.0,-2.2533,-2.3401,-2.4467,-2.8147,-2.9138,-2.971,-3.0878,-3.1222,-3.1222,-3.1865,-3.2483,-3.3125,-3.3125,-3.3741,-3.4177,-3.4177,-3.4332,-3.4408,-3.4737,-3.2061,-2.9364,-2.7165,-2.4215,-2.142,-1.9092,-1.9659,-2.0147,-2.0503,-2.0437,-2.02,-1.9778,-1.962,-1.9422,-1.9211,-1.9132,-1.9092,-1.9092,-1.9092,-1.9092,-1.9092,-1.9092,-1.9092,-1.9092,-1.9092,-1.9092,-1.9106,-1.933,-1.9646,-2.0002,-2.02,-2.0516,-2.0833,-2.0833,-2.0833,-2.0833,-2.0833,-2.0833,-2.0833,-2.0833,-2.0833,-2.0899,-2.1202,-2.1479,-2.1822,-2.2336,-2.2521,-2.2586,-2.2586,-2.2586,-2.2586,-2.2586,-2.2586,-2.2586,-2.26,-2.2626,-2.1798,-1.9798,-1.9506,-2.0079,-2.2372,-2.2639,-2.2613,-2.2586,-2.3101,-2.3457,-2.3444,-2.3958,-2.4301,-2.4301,-2.4301,-2.4301,-2.4301,-2.4301,-2.4301,-2.4301,-2.4301,-2.4301,-2.4301,-2.4301,-2.4301,-2.4301,-2.4301,-2.4301,-2.4301,-2.4301,-2.4301,0.0,0.0,0.0,-1.9319,-1.955,-2.0708,-2.9718,-2.9844,-2.9252,-3.3272,-3.4172,-3.4021,-3.4151,-3.4177,-3.2277,-2.7041,-2.8294,-2.9957,-2.9957,-3.2483,-3.4177,-3.4177,-3.4696,-3.3971,-3.1658,-2.9238,-2.6731,-2.3948,-2.095,-1.9092,-1.9092,-1.9659,-2.0239,-2.0806,-2.0543,-2.0385,-2.0371,-1.9818,-1.9527,-1.9514,-1.9224,-1.9092,-1.9092,-1.9092,-1.9092,-1.9092,-1.9092,-1.9092,-1.9092,-1.9092,-1.9092,-1.9092,-1.9106,-1.9462,-1.9989,-1.9989,-2.0358,-2.0833,-2.0833,-2.0833,-2.0833,-2.0833,-2.0833,-2.0833,-2.0833,-2.0833,-2.0899,-2.1202,-2.1479,-2.1769,-2.2072,-2.2375,-2.2586,-2.2586,-2.2586,-2.2586,-2.2586,-2.2586,-2.26,-2.2639,-2.2652,-2.0079,-1.2986,-1.1572,-1.4119,-2.1505,-2.2424,-2.2424,-2.26,-2.3127,-2.3787,-2.3457,-2.3958,-2.4301,-2.4301,-2.4301,-2.4301,-2.4301,-2.4301,-2.4301,-2.4301,-2.4301,-2.4301,-2.4301,-2.4301,-2.4301,-2.4301,-2.4301,-2.4301,-2.4301,-2.4301,-2.4301,-1.4378,-1.573,-1.7415,-2.1673,-2.3889,-2.5938,-2.9642,-3.139,-3.2226,-3.1642,-3.2904,-3.3125,-2.9357,-3.0187,-3.0808,-2.8919,-2.9334,-3.0601,-3.2483,-3.3536,-3.4332,-3.4722,-3.4956,-3.4121,-3.2118,-2.9203,-2.6522,-2.3948,-2.0715,-1.9092,-1.9092,-1.9659,-2.1047,-2.3471,-2.1798,-2.0595,-2.0398,-2.02,-1.991,-1.9541,-1.9435,-1.9277,-1.9092,-1.9092,-1.9092,-1.9092,-1.9092,-1.9092,-1.9092,-1.9092,-1.9092,-1.9092,-1.9092,-1.9462,-1.9989,-1.9989,-2.0345,-2.0833,-2.0833,-2.0833,-2.0833,-2.0833,-2.0833,-2.0833,-2.0833,-2.0978,-2.1189,-2.1479,-2.1769,-2.2059,-2.2362,-2.2507,-2.2586,-2.2586,-2.2586,-2.2586,-2.2586,-2.2613,-2.2652,-2.2424,-1.4417,-0.6768,-0.4233,-1.217,-1.7873,-1.5543,-1.9282,-2.1287,-1.8049,-2.1085,-2.38,-2.3787,-2.3984,-2.4301,-2.4301,-2.4301,-2.4301,-2.4301,-2.4301,-2.4301,-2.4301,-2.4301,-2.4301,-2.4301,-2.4301,-2.4301,-2.4301,-2.4301,-2.4301,-2.4301,-2.4301,-2.4301,-1.639,-1.7943,-1.9579,-2.4465,-2.7367,-2.9528,-3.0947,-3.2838,-3.3848,-3.2022,-3.2945,-3.2714,-2.8086,-2.7877,-2.8502,-2.8502,-2.8502,-2.9542,-3.2277,-3.3536,-3.441,-3.5008,-3.4183,-3.2864,-3.0566,-2.7848,-2.5082,-2.2328,-2.0258,-1.9092,-1.9092,-1.9659,-2.095,-2.3134,-2.2782,-2.2008,-2.0556,-2.045,-2.016,-1.9699,-1.958,-1.9382,-1.9092,-1.9092,-1.9092,-1.9092,-1.9092,-1.9092,-1.9092,-1.9092,-1.9092,-1.9092,-1.9092,-1.9462,-1.9989,-1.9989,-2.0345,-2.0833,-2.0833,-2.0833,-2.0833,-2.0833,-2.0833,-2.0833,-2.0833,-2.1044,-2.1347,-2.1624,-2.1914,-2.2204,-2.2507,-2.2586,-2.2586,-2.2586,-2.2586,-2.2586,-2.26,-2.1188,-1.8653,-1.5279,-0.6497,0.0,0.0,-0.7931,-1.4759,-1.5297,-1.9327,-2.0466,-1.4383,-1.7028,-2.0549,-2.3509,-2.3984,-2.4301,-2.4301,-2.4301,-2.4301,-2.4301,-2.4301,-2.4301,-2.4301,-2.4301,-2.4301,-2.4301,-2.4301,-2.4301,-2.4301,-2.4301,-2.4301,-2.4301,-2.4301,-2.4301,-1.7345,-1.9022,-2.0952,-2.7851,-3.0205,-3.1413,-3.3624,-3.4177,-3.4177,-3.3972,-3.4177,-3.333,-3.0394,-2.7877,-2.5994,-2.5994,-2.5994,-2.7041,-2.9772,-3.2483,-3.441,-3.4823,-3.2745,-3.0352,-2.769,-2.5135,-2.2344,-1.9329,-1.9092,-1.9092,-1.9092,-1.9646,-2.021,-2.047,-2.4014,-2.4369,-2.1348,-2.081,-2.053,-2.0002,-1.9712,-1.9409,-1.9119,-1.9119,-1.9106,-1.9092,-1.9092,-1.9092,-1.9092,-1.9106,-1.9119,-1.9119,-1.9119,-1.9475,-2.0002,-1.9989,-2.0345,-2.0833,-2.0833,-2.0833,-2.0833,-2.0833,-2.0833,-2.0846,-2.0859,-2.107,-2.136,-2.1637,-2.194,-2.223,-2.2521,-2.2586,-2.2586,-2.2586,-2.2586,-2.26,-2.2639,-1.8631,-1.2394,-0.1976,0.0,0.0,0.0,0.0,-0.5104,-2.0219,-2.2002,-1.8817,-1.1585,-1.1542,-1.524,-2.2927,-2.3997,-2.4301,-2.4301,-2.4301,-2.4301,-2.4301,-2.4314,-2.4314,-2.4314,-2.4314,-2.4314,-2.4314,-2.4314,-2.4314,-2.4314,-2.4301,-2.4301,-2.4301,-2.4301,-2.4301,-2.1616,-2.6884,-3.0787,-3.2745,-3.3144,-3.3482,-3.4172,-3.4177,-3.3536,-3.1452,-3.2689,-3.333,-3.0394,-2.9334,-2.8919,-2.8919,-2.8919,-2.998,-3.2714,-3.3741,-3.3711,-3.2291,-3.1635,-2.9598,-2.5153,-2.4148,-2.2344,-1.9329,-1.9092,-1.9092,-1.9092,-1.9448,-2.2161,-2.7495,-2.6236,-2.636,-2.8407,-2.5802,-2.3079,-2.0292,-2.0213,-1.991,-1.9422,-1.9422,-1.9303,-1.9092,-1.9092,-1.9092,-1.9106,-1.933,-1.9422,-1.9422,-1.9422,-1.9778,-2.0266,-2.0055,-2.0345,-2.0833,-2.0833,-2.0833,-2.0833,-2.0833,-2.0833,-2.0886,-2.1097,-2.136,-2.165,-2.1954,-2.2244,-2.2494,-2.256,-2.2586,-2.2586,-2.2586,-2.2586,-2.2586,-2.26,-2.1518,-1.6424,-0.2548,0.0,0.0,0.0,0.0,-0.5104,-2.0219,-1.307,-0.5104,-0.3107,-0.8363,-1.5257,-2.3297,-2.4321,-2.4301,-2.4301,-2.4301,-2.4327,-2.4366,-2.438,-2.4393,-2.4446,-2.4143,-2.4432,-2.438,-2.438,-2.438,-2.438,-2.4327,-2.4301,-2.4301,-2.4301,-2.4301,-2.0825,-2.6883,-3.2073,-3.3795,-3.425,-3.4177,-3.4177,-3.4177,-3.3741,-3.2071,-3.3125,-3.333,-3.0394,-2.9957,-2.9957,-2.9957,-2.9957,-3.1015,-3.3767,-3.3125,-3.2044,-3.1372,-2.906,-2.6297,-2.3899,-2.2578,-2.095,-1.9092,-1.9092,-1.9092,-1.9092,-1.9501,-2.1489,-2.5565,-2.5575,-2.594,-2.6394,-2.6156,-2.4037,-2.0595,-2.045,-2.0094,-1.9527,-1.9527,-1.9435,-1.9277,-1.9145,-1.9171,-1.9303,-1.9462,-1.962,-1.9725,-1.9725,-2.0002,-2.0371,-2.0226,-2.045,-2.0833,-2.0833,-2.0833,-2.0833,-2.0833,-2.0925,-2.1057,-2.1228,-2.1571,-2.1927,-2.2099,-2.2362,-2.2586,-2.2586,-2.2586,-2.2586,-2.2586,-2.2586,-2.2586,-2.2613,-1.7239,-1.0181,-0.1698,0.0,0.0,0.0,0.0,-0.2836,-1.135,-0.5387,0.0,0.0,-0.7236,-1.5283,-2.3453,-2.4388,-2.4314,-2.434,-2.434,-2.438,-2.4446,-2.1032,-1.8881,-1.8912,-1.8912,-1.8902,-1.8871,-2.2592,-2.4143,-2.4406,-2.4366,-2.4327,-2.4301,-2.4301,-2.4301,-1.9839,-2.4477,-2.9735,-3.3258,-3.4177,-3.4177,-3.4177,-3.4177,-3.4177,-3.4177,-3.4177,-3.333,-3.0394,-2.9957,-2.9957,-2.9957,-2.9957,-3.0808,-3.333,-3.15,-2.9992,-3.0045,-2.5572,-2.2539,-2.2982,-2.0729,-1.9092,-1.9092,-1.9092,-1.9092,-1.9092,-1.962,-2.0183,-2.0717,-2.3983,-2.4338,-2.1606,-2.4385,-2.4129,-2.0833,-2.0569,-2.0174,-1.9646,-1.9607,-1.9567,-1.9514,-1.9224,-1.9264,-1.9541,-1.958,-1.9765,-2.0042,-2.0081,-2.0239,-2.045,-2.045,-2.0622,-2.0833,-2.0833,-2.0833,-2.0846,-2.0886,-2.107,-2.1294,-2.1373,-2.1743,-2.2151,-2.2191,-2.2389,-2.2586,-2.2586,-2.2586,-2.2586,-2.2586,-2.2586,-2.204,-2.0067,-0.9307,0.0,0.0,0.0,0.0,0.0,0.0,0.0,0.0,0.0,0.0,0.0,-0.8145,-1.6509,-2.3635,-2.4182,-2.434,-2.4406,-2.3172,-2.2265,-2.1089,-1.4612,-1.0641,-1.0646,-1.0646,-1.0646,-1.0646,-1.9571,-2.4221,-2.4419,-2.4419,-2.438,-2.4327,-2.4314,-2.4314,-3.0473,-3.2265,-3.2799,-3.3931,-3.4177,-3.4177,-3.4177,-3.4177,-3.4177,-3.4177,-3.4177,-3.333,-3.0394,-2.9957,-2.9957,-2.9957,-2.9957,-3.0187,-3.0601,-3.0555,-2.8878,-2.4355,-2.3377,-2.2141,-1.9981,-1.9329,-1.9092,-1.9092,-1.9092,-1.9092,-1.9092,-1.9422,-2.093,-2.4099,-2.4979,-2.5337,-2.488,-2.5646,-2.4129,-2.0833,-2.0793,-2.0582,-2.0239,-2.0015,-1.9765,-1.9514,-1.9224,-1.9264,-1.9554,-1.9804,-2.0068,-2.0345,-2.0595,-2.0714,-2.0767,-2.0767,-2.0793,-2.0833,-2.0833,-2.0833,-2.0886,-2.1123,-2.1242,-2.1373,-2.1848,-2.2059,-2.2191,-2.2441,-2.2547,-2.2586,-2.2586,-2.2586,-2.2586,-2.2586,-2.2613,-1.9214,-0.6486,-0.1976,0.0,0.0,0.0,0.0,0.0,0.0,0.0,0.0,0.0,0.0,0.0,-1.3114,-2.2814,-2.4024,-2.4248,-2.4406,-2.4169,-1.8286,-1.1551,-0.4561,-0.2736,-0.213,-0.2135,-0.2135,-0.2135,-0.2135,-1.6815,-2.4247,-2.4234,-2.4195,-2.4169,-2.4156,-2.4406,-2.438,-2.9343,-3.1807,-3.333,-3.3006,-3.3527,-3.4177,-3.4177,-3.4177,-3.3455,-3.05,-3.1098,-3.0779,-2.7122,-2.7183,-2.7877,-2.7877,-2.8919,-2.9957,-2.9957,-2.8937,-2.6806,-2.282,-2.1421,-2.0385,-1.9066,-1.9092,-1.9092,-1.9092,-1.9092,-1.9158,-1.9316,-1.9607,-2.0621,-2.265,-2.2961,-2.3213,-2.3119,-2.3119,-2.2363,-2.0833,-2.0833,-2.0767,-2.0622,-2.049,-2.0187,-1.9752,-1.9448,-1.9488,-1.9791,-2.0081,-2.0371,-2.0648,-2.0951,-2.107,-2.107,-2.107,-2.107,-2.107,-2.107,-2.107,-2.1123,-2.14,-2.1598,-2.1782,-2.2059,-2.2257,-2.2402,-2.2547,-2.2586,-2.2586,-2.2586,-2.2586,-2.2586,-2.2613,-1.6647,-0.8744,-0.1694,0.0,0.0,0.0,0.0,0.0,0.0,0.0,0.0,0.0,0.0,-0.3141,-1.1634,-1.9405,-2.4429,-2.4248,-2.0673,-1.6171,-1.1976,-0.7977,-0.4308,-0.031,0.0,0.0,0.0,0.0,0.0,0.0,-0.7658,-1.5902,-2.426,-2.4247,-2.2034,-1.7993,-2.2265,-2.4406,-2.6862,-3.0001,-3.3031,-3.2878,-3.3399,-3.3761,-3.3228,-3.343,-3.2261,-2.756,-2.879,-2.9477,-2.5421,-2.5628,-2.6521,-2.6602,-2.8086,-2.9127,-2.9127,-2.6876,-2.4527,-2.1739,-1.9899,-1.8855,-1.9066,-1.9092,-1.9092,-1.9092,-1.9092,-1.9224,-1.9514,-1.9818,-2.0108,-2.0385,-2.0688,-2.0833,-2.0833,-2.0833,-2.0833,-2.0833,-2.0833,-2.0833,-2.0833,-2.0833,-2.0556,-2.0055,-1.9765,-1.9804,-2.0094,-2.0305,-2.0609,-2.0965,-2.1255,-2.1373,-2.1373,-2.1439,-2.1426,-2.1373,-2.1373,-2.1373,-2.1426,-2.1716,-2.1967,-2.2178,-2.2257,-2.2441,-2.2626,-2.2626,-2.2626,-2.2626,-2.2626,-2.2626,-2.1773,-1.8373,-0.8744,0.0,0.0,0.0,0.0,0.0,0.0,0.0,0.0,0.0,0.0,0.0,0.0,-0.6013,-2.214,-2.4321,-2.303,-1.9571,-1.3442,-0.7053,-0.0621,0.0,0.0,0.0,0.0,0.0,0.0,0.0,0.0,0.0,0.0,-0.6409,-1.8984,-1.8984,-1.5885,-0.9735,-1.7954,-2.2556,-3.0342,-3.1306,-3.2576,-3.5865,-3.4702,-3.2099,-2.9804,-3.0666,-3.119,-2.8939,-3.1072,-3.2269,-2.9706,-2.9092,-2.9024,-2.9474,-2.7668,-2.6204,-2.6204,-2.4111,-2.1739,-1.8898,-1.8941,-1.9066,-1.9092,-1.9092,-1.9092,-1.9092,-1.9092,-1.9224,-1.9514,-1.9818,-2.0108,-2.0385,-2.0688,-2.0833,-2.0833,-2.0833,-2.0833,-2.0833,-2.0833,-2.0833,-2.0833,-2.0833,-2.0661,-2.0345,-2.0068,-2.0094,-2.0358,-2.0385,-2.0727,-2.1268,-2.1545,-2.1663,-2.169,-2.1967,-2.1888,-2.1663,-2.1663,-2.1663,-2.1716,-2.2332,-2.2465,-2.2546,-2.26,-2.2437,-2.245,-2.245,-2.245,-2.245,-2.245,-2.245,-1.9,-0.5362,-0.1129,0.0,0.0,0.0,0.0,0.0,0.0,0.0,0.0,0.0,0.0,0.0,0.0,-0.6013,-2.214,-2.4321,-1.8554,-0.3695,-0.1545,-0.0933,-0.0,0.0,0.0,0.0,0.0,0.0,0.0,0.0,0.0,0.0,0.0,-0.0611,-0.2137,-0.2137,-0.1832,-0.1221,-0.9432,-1.7367,-2.6559,-2.8471,-3.0351,-2.9912,-3.0595,-3.1106,-2.9775,-2.8849,-2.8033,-2.7307,-2.9777,-3.1189,-2.8427,-2.6677,-2.6382,-2.8979,-2.658,-2.4494,-2.5686,-2.393,-2.1323,-1.8686,-1.8736,-1.9092,-1.9092,-1.9092,-1.9092,-1.9092,-1.9092,-1.9303,-1.9778,-1.9923,-2.0187,-2.0648,-2.078,-2.0833,-2.0833,-2.0833,-2.0833,-2.0833,-2.0833,-2.0833,-2.0833,-2.0833,-2.0675,-2.0385,-2.0279,-2.0292,-2.0424,-2.078,-2.107,-2.1321,-2.1782,-2.1967,-2.2006,-2.2296,-2.2217,-2.1993,-2.2492,-2.2439,-2.2345,-2.2428,-1.9392,-1.5713,-1.5815,-1.5842,-1.5842,-1.5842,-1.5842,-1.5842,-1.5842,-1.5842,-1.3009,-0.2546,0.0,0.0,0.0,0.0,0.0,0.0,0.0,0.0,0.0,0.0,0.0,0.0,0.0,-0.229,-0.8805,-0.955,-0.728,-0.0619,0.0,0.0,0.0,0.0,0.0,0.0,0.0,0.0,0.0,0.0,0.0,0.0,0.0,0.0,0.0,0.0,0.0,-0.0305,-1.3427,-2.1112,-2.3476,-2.4995,-2.6563,-2.5287,-2.6902,-2.9112,-2.958,-2.6575,-2.4192,-2.6095,-2.844,-2.9635,-2.8133,-2.6396,-2.6221,-2.9213,-2.5939,-2.3716,-2.5607,-2.3059,-2.0443,-1.8461,-1.8736,-1.9092,-1.9092,-1.9092,-1.9092,-1.9092,-1.9092,-1.9356,-1.9949,-1.9989,-2.0253,-2.082,-2.0833,-2.0833,-2.0833,-2.0833,-2.0833,-2.0833,-2.0833,-2.0833,-2.0833,-2.0833,-2.0727,-2.053,-2.053,-2.053,-2.0556,-2.0978,-2.1255,-2.1453,-2.1954,-2.2191,-2.231,-2.26,-2.2534,-2.2626,-2.2959,-2.1455,-1.8724,-1.6657,-1.2156,-0.7904,-0.7908,-0.7913,-0.7913,-0.7913,-0.7913,-0.7913,-0.7913,-0.7936,-0.6535,-0.1135,0.0,0.0,0.0,0.0,0.0,0.0,0.0,0.0,0.0,0.0,0.0,0.0,0.0,0.0,0.0,0.0,0.0,0.0,0.0,0.0,0.0,0.0,0.0,0.0,0.0,0.0,0.0,0.0,0.0,0.0,0.0,0.0,0.0,0.0,0.0,-0.0305,-1.6824,-2.2994,-2.2587,-2.1664,-2.1279,-2.3919,-2.4698,-2.5734,-2.8437,-2.3237,-1.9512,-2.613,-2.7936,-2.8783,-3.0424,-3.0307,-3.0125,-3.0697,-2.645,-2.3716,-2.5607,-2.1563,-1.8235,-1.8235,-1.8736,-1.9092,-1.9092,-1.9092,-1.9092,-1.9092,-1.9092,-1.9356,-1.9949,-1.9989,-2.0253,-2.082,-2.0833,-2.0833,-2.0833,-2.0833,-2.0833,-2.0833,-2.0833,-2.0833,-2.0833,-2.0833,-2.0833,-2.0833,-2.0833,-2.0833,-2.0833,-2.0846,-2.1176,-2.1729,-2.2033,-2.2323,-2.2613,-2.289,-2.3133,-2.3267,-2.2995,-1.7998,-1.0158,-0.254,-0.0282,-0.0,-0.0,-0.0,-0.0,-0.0,-0.0,-0.0,-0.0,-0.0,-0.0,-0.0,0.0,0.0,0.0,0.0,0.0,0.0,0.0,0.0,0.0,0.0,0.0,0.0,0.0,0.0,0.0,0.0,0.0,0.0,0.0,0.0,0.0,0.0,0.0,0.0,0.0,0.0,0.0,0.0,0.0,0.0,0.0,0.0,0.0,0.0,0.0,-0.0305,-1.6824,-1.9886,-2.0644,-2.1285,-2.2224,-2.3799,-2.4566,-2.5019,-2.481,-2.6069,-2.7072,-2.6065,-2.7852,-2.9573,-2.9583,-3.0437,-3.0832,-2.9777,-2.5918,-2.312,-2.2887,-2.0068,-1.8011,-1.8209,-1.8578,-1.8881,-1.9079,-1.9092,-1.9092,-1.9092,-1.9092,-1.9356,-1.9949,-1.9989,-2.0253,-2.082,-2.0833,-2.0833,-2.0833,-2.0833,-2.0833,-2.0833,-2.0833,-2.0833,-2.0833,-2.0833,-2.0833,-2.0833,-2.0833,-2.0833,-2.0859,-2.1057,-2.136,-2.1756,-2.2257,-2.2359,-2.2685,-2.2971,-2.3338,-2.1843,-1.106,-0.578,-0.3143,-0.0852,0.0,0.0,0.0,0.0,0.0,0.0,0.0,0.0,0.0,0.0,0.0,0.0,0.0,0.0,0.0,0.0,0.0,0.0,0.0,0.0,0.0,0.0,0.0,0.0,0.0,0.0,0.0,0.0,0.0,0.0,0.0,0.0,0.0,0.0,0.0,0.0,0.0,0.0,0.0,0.0,0.0,0.0,0.0,0.0,0.0,0.0,0.0,-0.0,-0.5251,-1.2362,-2.11,-2.1212,-2.1464,-2.3317,-2.326,-2.2922,-2.4147,-2.5202,-2.5322,-2.3975,-2.5895,-2.7635,-2.7487,-2.9554,-3.0581,-2.8486,-2.5269,-2.2723,-2.1641,-1.9544,-1.7906,-1.8196,-1.8499,-1.8789,-1.9066,-1.9092,-1.9092,-1.9092,-1.9198,-1.9475,-1.9949,-2.0081,-2.0358,-2.082,-2.0833,-2.0833,-2.0833,-2.0833,-2.0833,-2.0833,-2.0833,-2.0833,-2.0833,-2.0833,-2.0833,-2.0833,-2.0833,-2.0899,-2.1017,-2.1202,-2.1518,-2.1901,-2.2296,-2.245,-2.2306,-1.9989,-1.7105,-1.3225,-0.354,0.0,0.0,0.0,0.0,0.0,0.0,0.0,0.0,0.0,0.0,0.0,0.0,0.0,0.0,0.0,0.0,0.0,0.0,0.477,0.7488,0.1195,0.0,0.0,0.0,0.0,0.0,0.0,0.0,0.0,0.0,0.0,0.0,0.0,0.0,0.0,0.0,0.0,0.0,0.0,0.0,0.0,0.0,0.0,0.0,0.0,0.0,0.0,0.0,0.0,0.0,0.0,0.0,-0.8645,-2.2929,-2.1103,-1.9542,-2.2742,-2.1134,-2.036,-2.5608,-2.1405,-1.7375,-2.038,-2.2489,-2.4025,-2.4521,-2.7757,-2.9372,-2.6847,-2.4623,-2.2815,-2.1513,-1.9356,-1.7906,-1.8222,-1.8512,-1.8789,-1.9066,-1.9092,-1.9092,-1.9092,-1.9382,-1.9686,-1.9976,-2.0279,-2.0582,-2.0859,-2.0872,-2.0872,-2.0872,-2.0846,-2.0833,-2.0833,-2.0833,-2.0833,-2.0833,-2.0833,-2.0833,-2.0833,-2.0859,-2.1031,-2.1281,-2.1334,-2.1663,-2.2151,-2.2532,-2.2092,-2.0906,-1.392,-0.6525,0.0,0.0,0.0,0.0,0.0,0.0,0.0,0.0,0.0,0.0,0.0,0.0,0.0,0.0,0.0,0.0,0.0,0.0,0.0295,0.1497,1.2631,1.8137,0.3046,0.0,0.0,0.0,0.0,0.0,0.0,0.0,0.0,0.0,0.0,0.0,0.0,0.0,0.0,0.0,0.0,0.0,0.0,0.0,0.0,0.0,0.0,0.0,0.0,0.0,0.0,0.0,0.0,0.0,0.0,0.0,-0.8252,-1.9631,-1.9805,-2.0378,-2.2521,-2.215,-2.1346,-2.1255,-2.159,-2.1122,-1.7692,-1.9627,-2.2024,-2.2735,-2.4238,-2.522,-2.448,-2.4346,-2.3228,-1.9661,-1.8335,-1.7985,-1.8512,-1.8644,-1.8789,-1.9066,-1.9092,-1.9092,-1.9092,-1.958,-1.991,-1.9976,-2.0675,-2.111,-2.1176,-2.1176,-2.1176,-2.1176,-2.0951,-2.0833,-2.0833,-2.0833,-2.0833,-2.0833,-2.0833,-2.0833,-2.0846,-2.1083,-2.1215,-2.1321,-2.2078,-2.2359,-2.2532,-2.2476,-1.8969,-1.3002,-0.5623,-0.1502,0.0,0.0,0.0,0.0,0.0,0.0,0.0,0.0,0.0,0.0,0.0,0.0,0.0,0.0,0.0,0.0,0.0,0.0,0.3333,1.5868,1.188,0.4564,0.061,0.0,0.0,0.0,0.0,0.0,0.0,0.0,0.0,0.0,0.0,0.0,0.0,0.0,0.0,0.0,0.0,0.0,0.0,0.0,0.0,0.0,0.0,0.0,0.0,0.0,0.0,0.0,0.0,0.0,0.0,0.0,-0.2166,-1.9579,-1.9888,-2.0344,-2.0651,-2.0023,-1.9379,-1.9355,-1.977,-1.9555,-1.7479,-1.9257,-2.1418,-2.2313,-2.3822,-2.502,-2.493,-2.4463,-2.2815,-1.9529,-1.8709,-1.8838,-1.912,-1.8794,-1.8789,-1.9066,-1.9092,-1.9145,-1.929,-1.9725,-2.0042,-2.016,-2.0872,-2.1281,-2.1281,-2.1281,-2.1281,-2.1281,-2.1004,-2.0886,-2.0912,-2.0886,-2.0872,-2.0872,-2.0872,-2.0872,-2.0886,-2.0953,-2.1426,-2.1865,-2.2345,-2.0423,-1.6948,-1.3477,-0.9575,-0.5573,-0.1488,0.0,0.0,0.0,0.0,0.0,0.0,0.0,0.0,0.0,0.0,0.0,0.0,0.0,0.0,0.0,0.0,0.0,0.0,0.5799,1.1613,1.2853,0.6104,0.0,0.0,0.0,0.0,0.0,0.0,0.0,0.0,0.0,0.0,0.0,0.0,0.0,0.0,0.0,0.0,0.0,0.0,0.0,0.0,0.0,0.0,0.0,0.0,0.0,0.0,0.0,0.0,0.0,0.0,0.0,0.0,0.0,0.0,-2.0449,-2.0267,-1.9712,-1.8347,-1.7091,-1.6636,-1.8746,-1.7405,-1.6235,-1.7833,-1.9364,-2.0831,-2.1788,-2.3599,-2.5259,-2.5629,-2.3858,-2.1788,-2.0105,-1.9667,-1.9719,-1.9932,-1.9152,-1.8829,-1.9066,-1.9092,-1.9211,-1.9514,-1.9857,-2.0174,-2.045,-2.107,-2.1387,-2.1347,-2.1347,-2.1334,-2.1031,-1.9976,-1.9086,-1.9147,-1.9086,-1.9851,-2.0925,-2.0925,-2.0148,-1.9147,-1.9195,-2.0017,-2.0841,-1.944,-1.5252,-0.8924,-0.2597,0.0,0.0,0.0,0.0,0.0,0.0,0.0,0.0,0.0,0.0,0.0,0.0,0.0,0.0,0.0,0.0,0.0,0.0,0.0,0.0,0.0,1.0382,1.6824,0.3053,0.0,0.0,0.0,0.0,0.0,0.0,0.0,0.0,0.0,0.0,0.0,0.0,0.0,0.0,0.0,0.0,0.0,0.0,0.0,0.0,0.0,0.0,0.0,0.0,0.0,0.0,0.0,0.0,0.0,0.0,0.0,0.0,0.0,0.0,0.0,-1.8874,-1.8624,-1.8615,-1.7527,-1.7141,-1.7037,-1.7451,-1.6708,-1.6156,-1.6389,-1.7118,-1.7464,-1.7231,-1.8331,-1.987,-2.1789,-2.051,-1.9427,-2.0339,-2.0017,-1.9962,-2.0812,-1.9828,-1.904,-1.9092,-1.9092,-1.9211,-1.9514,-2.0029,-2.0464,-2.0754,-2.1558,-2.1901,-2.1637,-2.1637,-2.1291,-2.0857,-1.4984,-1.1997,-1.1997,-1.1997,-1.515,-2.0731,-2.0731,-1.764,-1.221,-1.2653,-1.2824,-1.2444,-0.6157,-0.2841,-0.1729,-0.0584,0.0,0.0,0.0,0.0,0.0,0.0,0.0,0.0,0.0,0.0,0.0,0.0,0.0,0.0,0.0,0.0,0.0,0.0,0.0,0.0,0.0,0.1832,0.3053,0.0611,0.0,0.0,0.0,0.0,0.0,0.0,0.0,0.0,0.0,0.0,0.0,0.0,0.0,0.0,0.0,0.0,0.0,0.0,0.0,0.0,0.0,0.0,0.0,0.0,0.0,0.0,0.0,0.0,0.0,0.0,0.0,0.0,0.0,0.0,0.0,-1.9754,-1.9459,-1.8908,-1.7501,-1.7348,-1.7504,-1.7479,-1.7711,-1.7951,-1.7813,-1.8215,-1.8556,-1.8377,-1.8592,-1.9133,-2.0607,-2.0152,-1.977,-2.0253,-2.0035,-1.9792,-2.0488,-1.9828,-1.9092,-1.9092,-1.9237,-1.9448,-1.9752,-2.016,-2.0595,-2.1057,-2.1598,-2.2132,-2.2307,-2.1756,-1.7749,-0.9741,-0.6275,-0.4692,-0.4959,-1.2548,-1.7834,-2.051,-1.2914,-0.7941,-0.4797,-0.5173,-0.5239,-0.5002,-0.1418,0.0,0.0,0.0,0.0,0.0,0.0,0.0,0.0,0.0,0.0,0.0,0.0,0.0,0.0,0.0,0.0,0.0,0.0,0.0,0.0,0.0,0.0,0.0,0.0,0.0,0.0,0.0,0.0,0.0,0.0,0.0,0.0,0.0,0.0,0.0,0.0,0.0,0.0,0.0,0.0,0.0,0.0,0.0,0.0,0.0,0.0,0.0,0.0,0.0,0.0,0.0,0.0,0.0,0.0,0.0,0.0,0.0,0.0,0.0,0.0,0.0,0.0,-2.1183,0.0,-1.9244,-1.7525,-1.7617,-1.7923,0.0,-1.8489,-1.918,-1.8764,-1.9133,-1.9479,-1.9396,-1.9029,-1.8979,-1.9797,-1.9805,-1.9802,-2.0212,-1.9793,-1.9766,-2.0413,-1.9617,-1.9308,-1.9459,-1.9475,-1.9686,-2.0055,-2.0279,-2.0648,-2.1255,-2.1492,-2.1918,-2.2253,-1.8406,-1.1221,-0.0,0.0,0.0,-0.0,-1.0737,-1.604,-1.5566,-0.4776,0.0,0.0,0.0,0.0,0.0,0.0,0.0,0.0,0.0,0.0,0.0,0.0,0.0,0.0,0.0,0.0,0.0,0.0,0.0,0.0,0.0,0.0,0.0,0.0,0.0,0.0,0.0,0.0,0.0,0.0,0.0,0.0,0.0,0.0,0.0,0.0,0.0,0.0,0.0,0.0,0.0,0.0,0.0,0.0,0.0,0.0,0.1637,0.5569,0.2292,0.0,0.0,0.0,0.0,0.0,0.0,0.0,0.0,0.0,0.0,0.0,0.0,0.0,0.0,0.0,0.0,0.0,0.0,0.0,0.0,-2.0789,-1.8942,-1.7524,-1.7747,-1.8157,-1.7338,-1.7947,0.0,-1.7285,-1.7462,-1.7732,-1.7216,-1.6675,-1.6909,-1.8517,-1.7533,-1.7514,-1.9847,-1.9754,-1.9764,-2.1326,-2.0346,-1.9801,-2.0656,-2.0034,-1.9765,-2.0319,-2.0385,-2.0648,-2.1255,-2.1611,-2.1929,-2.1387,-0.8522,-0.106,-0.0,0.0,0.0,-0.0,-0.1046,-0.158,-0.1334,-0.0534,0.0,0.0,0.0,0.0,0.0,0.0,0.0,0.0,0.0,0.0,0.0,0.0,0.0,0.0,0.0,0.0,0.0,0.0,0.0,0.0,0.0,0.0,0.0,0.0,0.0,0.0,0.0,0.0,0.0,0.0,0.0,0.0,0.0,0.0,0.0,0.0,0.0,0.0,0.0,0.0,0.0,0.0,0.0,0.0,0.0,0.0,0.6224,2.2424,0.9833,0.0,0.0,0.0,0.0,0.0,0.0,0.0,0.0,0.0,0.0,0.0,0.0,0.0,0.0,0.0,0.0,0.0,0.0,0.0,-2.3105,-1.7962,-1.333,-1.6396,-1.774,-1.8308,-1.7276,-1.7946,-1.8452,-1.7685,-1.7563,-1.8054,-1.8975,-1.8203,-1.8036,-2.0104,-1.9498,-1.8591,-1.8672,-1.9083,-1.9203,-1.8772,-2.0055,-2.0664,-1.995,-2.0965,-2.1245,-2.0583,-2.0569,-2.0938,-2.1291,-2.1453,-1.7321,-0.8241,-0.2932,0.0,0.0,0.0,0.0,0.0,0.0,0.0,0.0,0.0,0.0,0.0,0.0,0.0,0.0,0.0,0.0,0.0,0.0,0.0,0.0,0.0,0.0,0.0,0.0,0.0,0.0,0.0,0.0,0.0,0.0,0.0,0.0,0.0,0.0,0.0,0.0,0.0,0.0,0.0,0.0,0.0,0.0,0.0,0.0,0.0,0.0,0.0,0.0,0.0,0.0,0.0,0.0,0.1949,0.7499,1.2757,1.8714,2.5391,2.007,1.1808,0.0982,0.0,0.0,0.0,0.0,0.0,0.0,0.0,0.0,0.0,0.0,0.0,0.0,0.0,0.0,0.0,0.0,0.0,-1.756,-1.2628,-1.021,-1.5862,-1.6546,-1.6028,-1.6983,-1.7854,-1.8347,-1.7998,-1.7801,-1.8207,-1.9693,-1.8916,-1.8652,-2.0428,-2.0079,-1.927,-1.8156,-1.877,-1.8987,-1.7973,-1.9903,-2.0906,-1.9857,-2.1196,-2.1718,-2.0477,-2.0741,-2.0783,-2.1213,-1.7024,-1.006,-0.0267,0.0,0.0,0.0,0.0,0.0,0.0,0.0,0.0,0.0,0.0,0.0,0.0,0.0,0.0,0.0,0.0,0.0,0.0,0.0,0.0,0.0,0.0,0.0,0.0,0.0,0.0,0.0,0.0,0.0,0.0,0.0,0.0,0.0,0.0,0.0,0.0,0.0,0.0,0.0,0.0,0.0,0.0,0.0,0.0,0.0,0.0,0.0,0.0,0.0,0.0,0.0,0.0,0.4857,1.0445,1.6318,2.229,2.6005,2.6018,2.6057,1.9069,0.1637,0.0,0.0,0.0,0.0,0.0,0.0,0.0,0.0,0.0,0.0,0.0,0.0,0.0,0.0,0.0,0.0,0.0,-0.4321,-0.4829,-1.0912,-1.5952,-1.367,-1.1382,-1.6031,-1.7678,-1.8137,-1.7884,-1.7874,-1.7958,-1.8376,-1.8161,-1.8074,-1.8603,-1.8831,-1.8795,-1.8555,-1.8967,-1.9587,-1.9684,-1.9983,-2.0073,-2.0232,-2.0355,-2.0516,-2.082,-2.0886,-2.0653,-2.064,-0.7552,0.0,0.0,0.0,0.0,0.0,0.0,0.0,0.0,0.0,0.0,0.0,0.0,0.0,0.0,0.0,0.0,0.0,0.0,0.0,0.0,0.0,0.0,0.0,0.0,0.0,0.0,0.0,0.0,0.0,0.0,0.0,0.0,0.0,0.0,0.0,0.0,0.0,0.0,0.0,0.0,0.0,0.0,0.0,0.0,0.0,0.0,0.0,0.0,0.0,0.0,0.0,0.0,0.0,0.0,1.4941,2.5992,2.5927,2.5927,2.5953,2.6018,2.6018,1.9031,0.1637,0.0,0.0,0.0,0.0,0.0,0.0,0.0,0.0,0.0,0.0,0.0,0.0,0.0,0.0,0.0,0.0,0.0,-0.4701,-1.0096,-1.4519,-0.7082,-0.7179,-0.9541,-1.0753,-1.4412,-1.7453,-1.7373,-1.7038,-1.7186,-1.8646,-1.8499,-1.851,-1.9482,-1.968,-1.9581,-1.9153,-1.939,-1.9591,-1.9922,-1.5594,-1.5782,-2.3518,-2.2079,-2.0635,-2.0679,-2.0705,-1.6542,-0.6606,-0.2361,0.0,0.0,0.0,0.0,0.0,0.0,0.0,0.0,0.0,0.0,0.0,0.0,0.0,0.0,0.0,0.0,0.0,0.0,0.0,0.0,0.0,0.0,0.0,0.0,0.0,0.0,0.0,0.0,0.0,0.0,0.0,0.0,0.0,0.0,0.0,0.0,0.0,0.0,0.0,0.0,0.0,0.0,0.0,0.0,0.0,0.0,0.0,0.0,0.0,0.0,0.0,0.0,0.1929,0.8092,1.8887,2.6186,2.612,2.6146,2.6199,2.5953,2.062,1.2412,0.0982,0.0,0.0,0.0,0.0,0.0,0.0,0.0,0.0,0.0,0.0,0.0,0.0,0.0,0.0,0.0,0.0,0.0,-0.3946,-0.7379,-0.9609,-0.192,-0.2616,-0.585,-0.8093,-1.2913,-1.6967,-1.644,-1.6577,-1.6829,-1.7687,-1.7803,-1.8246,-1.9474,-2.0225,-2.0693,-2.0799,-1.9314,-1.6655,-1.2593,-1.0683,-1.3521,-2.2965,-1.9615,-1.6591,-1.6739,-1.4119,-0.8908,-0.0529,0.0,0.0,0.0,0.0,0.0,0.0,0.0,0.0,0.0,0.0,0.0,0.0,0.0,0.0,0.0,0.0,0.0,0.0,0.0,0.0,0.0,0.0,0.0,0.0,0.0,0.0,0.0,0.0,0.0,0.0,0.0,0.0,0.0,0.0,0.0,0.0,0.0,0.0,0.0,0.0,0.0,0.0,0.0,0.0,0.0,0.0,0.0,0.0,0.0,0.0,0.0,0.0,0.0,0.4203,1.6301,2.2535,2.612,2.6054,2.6081,2.6146,2.5914,1.8285,0.9453,0.0655,0.0,0.0,0.0,0.0,0.0,0.0,0.0,0.0,0.0,0.0,0.0,0.0,0.0,0.0,0.0,0.0,0.0,-0.2022,0.0,0.0,0.0,0.0,-0.1604,-0.7305,-1.2825,-1.654,-1.5542,-1.6167,-1.6718,-1.6145,-1.6621,-1.7549,-1.8938,-2.0343,-2.1616,-2.2811,-1.8797,-1.1699,-0.1285,-0.5734,-1.2012,-1.8401,-1.3338,-0.9643,-0.9643,-0.365,0.0,0.0,0.0,0.0,0.0,0.0,0.0,0.0,0.0,0.0,0.0,0.0,0.0,0.0,0.0,0.0,0.0,0.0,0.0,0.0,0.0,0.0,0.0,0.0,0.0,0.0,0.0,0.0,0.0,0.0,0.0,0.0,0.0,0.0,0.0,0.0,0.0,0.0,0.0,0.0,0.0,0.0,0.0,0.0,0.0,0.0,0.0,0.0,0.0,0.0,0.0,0.0,0.0,0.0,0.0648,0.6844,2.359,2.6186,2.612,2.6054,2.6054,2.6094,2.5914,1.8285,0.9453,0.0655,0.0,0.0,0.0,0.0,0.0,0.0,0.0,0.0,0.0,0.0,0.0,0.0,0.0,0.0,0.0,0.0,0.0,-0.0433,0.0,0.0,0.0,0.0,-0.1599,-0.7188,-1.1668,-1.4547,-1.5027,-1.5301,-1.5542,-1.6128,-1.701,-1.7769,-1.8308,-1.9122,-2.088,-2.3564,-1.6951,-0.8833,-0.1042,-0.1307,-0.2875,-0.4184,-0.3137,-0.2351,-0.2351,-0.0784,0.0,0.0,0.0,0.0,0.0,0.0,0.0,0.0,0.0,0.0,0.0,0.0,0.0,0.0,0.0,0.0,0.0,0.0,0.0,0.0,0.0,0.0,0.0,0.0,0.0,0.0,0.0,0.0,0.0,0.0,0.0,0.0,0.0,0.0,0.0,0.0,0.0,0.0,0.0,0.0,0.0,0.0,0.0,0.0,0.0,0.0,0.0,0.0,0.0,0.0,0.0,0.0,0.0,0.0,0.5795,1.3694,2.4577,2.6146,2.6067,2.6054,2.6054,2.6094,2.5914,1.8285,0.9453,0.0655,0.0,0.0,0.0,0.0,0.0,0.0,0.0,0.0,0.0,0.0,0.0,0.0,0.0,0.0,0.0,0.0,0.0,0.0,0.0,0.0,0.0,0.0,-0.1621,-0.7981,-1.1395,-1.3348,-1.3476,-1.464,-1.5468,-1.5149,-1.653,-1.7978,-1.8608,-1.9966,-2.1283,-2.2244,-1.261,-0.4039,-0.0521,0.0,0.0,0.0,0.0,0.0,0.0,0.0,0.0,0.0,0.0,0.0,0.0,0.0,0.0,0.0,0.0,0.0,0.0,0.0,0.0,0.0,0.0,0.0,0.0,0.0,0.0,0.0,0.0,0.0,0.0,0.0,0.0,0.0,0.0,0.0,0.0,0.0,0.0,0.0,0.0,0.0,0.0,0.0,0.0,0.0,0.0,0.0,0.0,0.0,0.0,0.0,0.0,0.0,0.0,0.0,0.0,0.0,0.0,0.0,0.0,0.0,0.7115,1.5968,2.4877,2.612,2.6054,2.6054,2.6054,2.6094,2.5914,1.8285,0.9453,0.0655,0.0,0.0,0.0,0.0,0.3626,1.207,0.438,0.0,0.0,0.0,0.0,0.0,0.0,0.0,0.0,0.0,0.0,0.0,0.0,0.0,0.0,0.0,-0.1879,-0.8643,-1.1116,-1.2214,-1.2539,-1.4348,-1.5466,-1.4328,-1.6122,-1.7985,-1.9002,-2.0674,-2.0831,-1.76,-0.7216,0.0,0.0,0.0,0.0,0.0,0.0,0.0,0.0,0.0,0.0,0.0,0.0,0.0,0.0,0.0,0.0,0.0,0.0,0.0,0.0,0.0,0.0,0.0,0.0,0.0,0.0,0.0,0.0,0.0,0.0,0.0,0.0,0.0,0.0,0.0,0.0,0.0,0.0,0.0,0.0,0.0,0.0,0.0,0.0,0.0,0.0,0.0,0.0,0.0,0.0,0.0,0.0,0.0,0.0,0.0,0.0,0.0,0.0,0.0,0.0,0.0,0.0,0.0,0.8459,1.7609,2.4839,2.6094,2.6054,2.6054,2.6054,2.6094,2.5888,1.8276,1.076,0.4907,0.1636,0.0,0.0,0.2944,1.0924,2.5467,1.2533,0.3421,0.0,0.0,0.0,0.0,0.0,0.0,0.0,0.0,0.0,0.0,0.0,0.0,0.0,0.0,-0.1641,-0.7667,-0.909,-1.0323,-1.3817,-1.3996,-1.3999,-1.5416,-1.6609,-1.7489,-1.8009,-1.9347,-1.642,-0.4522,-0.1265,0.0,0.0,0.0,0.0,0.0,0.0,0.0,0.0,0.0,0.0,0.0,0.0,0.0,0.0,0.0,0.0,0.0,0.0,0.0,0.0,0.0,0.0,0.0,0.0,0.0,0.0,0.0,0.0,0.0,0.0,0.0,0.0,0.0,0.0,0.0,0.0,0.0,0.0,0.0,0.0,0.0,0.0,0.0,0.0,0.0,0.0,0.0,0.0,0.0,0.0,0.0,0.0,0.0,0.0,0.0,0.0,0.0,0.0,0.0,0.0,0.0,0.0,0.0,1.3618,2.4565,2.5836,2.6094,2.6054,2.6054,2.6054,2.6081,2.616,1.8258,1.5668,2.2008,0.882,0.0,0.0,1.4162,2.3746,2.5816,2.4683,1.6572,0.0349,0.0,0.0,0.0,0.0,0.0,0.0,0.0,0.0,0.0,0.0,0.0,0.0,0.0,-0.0713,-0.3188,-0.5954,-0.8029,-0.8775,-1.2211,-1.5184,-1.538,-1.6788,-1.785,-1.8079,-1.6275,-1.135,-0.1288,0.0,0.0,0.0,0.0,0.0,0.0,0.0,0.0,0.0,0.0,0.0,0.0,0.0,0.0,0.0,0.0,0.0,0.0,0.0,0.0,0.0,0.0,0.0,0.0,0.0,0.0,0.0,0.0,0.0,0.0,0.0,0.0,0.0,0.0,0.0,0.0,0.0,0.0,0.0,0.0,0.0,0.0,0.0,0.0,0.0,0.0,0.0,0.0,0.0,0.0,0.0,0.0,0.0,0.0,0.0,0.0,0.0,0.0,0.7694,1.4736,1.4713,0.6795,0.1633,0.6475,1.7582,2.5888,2.6107,2.6067,2.6054,2.6054,2.6054,2.6081,2.6146,2.2524,1.9909,1.8964,1.1736,0.9443,1.433,2.1802,2.6116,2.6399,2.7452,2.3924,1.5719,0.5235,0.0,0.0,0.0,0.0,0.0,0.0,0.0,-0.1829,-0.2145,-0.1781,-0.0462,0.0,0.0,0.0,-0.2789,-0.5837,-0.7576,-1.2682,-1.6473,-1.594,-1.698,-1.8241,-1.8856,-1.4084,-0.7872,-0.1036,0.0,0.0,0.0,0.0,0.0,0.0,0.0,0.0,0.0,0.0,0.0,0.0,0.0,0.0,0.0,0.3495,0.5182,0.5179,0.168,0.0,0.0,0.0,0.0,0.0,0.0,0.0,0.0,0.0,0.0,0.0,0.0,0.0,0.0,0.0,0.0,0.0,0.0,0.1221,0.3354,0.5437,0.6107,0.5604,0.126,0.0,0.0,0.0,0.0,0.0,0.0,0.0,0.0,0.0,0.0,0.0,0.0,0.0,0.0,0.0,1.3576,2.6067,2.6028,1.5644,0.7849,1.2406,2.0284,2.6199,2.6067,2.6054,2.6054,2.6054,2.6054,2.6067,2.612,2.6133,2.3507,1.6942,1.6293,1.924,2.5499,2.6109,2.637,2.6578,2.7373,2.5288,2.0912,0.6969,0.0,0.0,0.0,0.0,0.0,0.0,0.0,-0.6786,-0.8303,-0.6905,-0.1344,0.0,0.0,0.0,-0.0237,-0.3811,-1.5744,-1.7647,-1.7424,-1.778,-1.7847,-1.8281,-1.9616,-1.4016,-0.7419,-0.1021,0.0,0.0,0.0,0.0,0.0,0.0,0.0,0.0,0.0,0.0,0.0,0.0,0.0,0.0,0.0,1.2937,1.9777,1.9742,0.672,0.0,0.0,0.0,0.0,0.0,0.0,0.0,0.0,0.0,0.0,0.0,0.0,0.0,0.0,0.0,0.0,0.0,0.0,0.4887,1.2853,2.0526,2.3179,2.0625,0.504,0.0,0.0,0.0,0.0,0.0,0.0,0.0,0.0,0.0,0.0,0.0,0.0,0.0,0.0,0.0,1.3701,2.5927,2.5992,2.534,2.2357,1.4439,2.0325,2.6199,2.6067,2.6054,2.6054,2.6054,2.6054,2.6054,2.6054,2.6107,2.5823,2.5486,2.5486,2.5486,2.6146,2.6371,2.6568,2.6713,2.6917,1.8897,0.1719,0.0347,0.0,0.0,0.0,0.0,0.0,0.0,0.0,-0.8142,-0.8787,-0.9121,-1.0791,-0.5432,0.0,0.0,-0.3239,-0.8608,-1.7256,-1.8354,-1.7866,-1.8038,-1.8235,-1.8486,-1.8842,-1.3686,-1.0385,-1.297,-0.5712,0.0,0.0,0.0,0.0,0.0,0.0,0.0,0.0,0.0,0.0,0.0,0.0,0.0,0.0,1.3466,2.0866,2.0854,0.7,0.0,0.0,0.0,0.0,0.0,0.0,0.0,0.0,0.0,0.0,0.0,0.0,0.0,0.0,0.0,0.0,0.1218,1.1905,1.4043,1.3413,2.145,2.4325,2.1646,0.5296,0.0,0.0,0.0,0.0,0.0,0.0,0.0,0.0,0.0,0.0,0.0,0.0,0.0,0.2932,1.433,2.1584,2.5914,2.5901,2.5966,2.5027,2.2031,1.9318,1.9564,2.5074,2.6054,2.6054,2.6054,2.6054,2.6054,2.6054,2.6067,2.6081,2.6081,2.6081,2.6081,2.6081,2.6344,2.6529,2.6634,2.1213,1.2189,0.0339,0.0,0.0,0.0,0.0,0.0,0.0,0.0,0.0,-0.845,-0.9371,-1.0646,-1.2544,-0.6426,-0.0437,-0.2223,-0.6481,-1.1707,-1.7382,-1.8143,-1.7998,-1.8196,-1.8552,-1.87,-1.8561,-1.54,-1.3272,-1.3771,-0.5738,0.0,0.0,0.0,0.0,0.0,0.0,0.0,0.0,0.0,0.0,0.0,0.0,0.2086,0.678,1.6086,1.9635,1.7479,0.5849,0.0,0.0,0.0,0.0,0.0,0.0,0.0,0.0,0.0,0.0,0.0,0.0,0.0,0.0,0.0,0.1823,0.578,1.9278,2.0786,1.7027,2.2338,2.2374,1.807,0.4332,0.0,0.0,0.0,0.0,0.0,0.0,0.0,0.0,0.0,0.0,0.0,0.0,0.4561,1.2049,2.3507,2.616,2.6173,2.6146,2.5901,2.5966,2.6018,1.9624,1.7258,2.4801,2.6081,2.6054,2.6054,2.6054,2.6054,2.6054,2.6054,2.6054,2.6054,2.6054,2.6054,2.6054,2.6239,2.6384,2.6476,1.7652,0.9034,0.0335,0.0,0.0,0.0,0.0,0.0,0.0,0.0,0.0,-0.8058,-1.0885,-1.1536,-0.5921,-0.2539,-0.1651,-0.6722,-0.9829,-1.2768,-1.653,-1.7827,-1.8183,-1.8209,-1.867,-1.8947,-1.9083,-1.9391,-1.5114,-0.1788,0.0,0.0,0.0,0.0,0.0,0.0,0.0,0.0,0.0,0.0,0.0,0.0,0.0261,0.6519,2.0471,2.0793,1.7514,1.057,0.3583,0.0,0.0,0.0,0.0,0.0,0.0,0.0,0.0,0.0,0.0,0.0,0.0,0.0,0.0,0.0,0.5124,1.3102,2.1427,2.413,2.4301,2.4143,1.8912,1.0968,0.2782,0.0,0.0,0.063,0.0316,0.0,0.0,0.0,0.0,0.0,0.0,0.0,0.0652,1.368,2.6146,2.6146,2.6094,2.6067,2.6133,2.6146,2.6186,2.5992,2.1249,1.9221,2.5239,2.6133,2.6054,2.6054,2.6054,2.6054,2.6054,2.6054,2.6054,2.6054,2.6054,2.6054,2.6054,2.6054,2.6107,2.5914,1.7477,0.8618,0.0,0.0,0.0,0.0,0.0,0.0,0.0,0.0,0.0,-1.065,-1.2712,-1.0714,-1.1603,-1.0614,-0.9847,-1.1685,-1.3216,-1.4607,-1.6035,-1.6681,-1.7101,-1.7536,-1.8077,-1.8591,-1.87,-1.5011,-0.9425,-0.1273,0.0,0.0,0.0,0.0,0.0,0.0,0.0,0.0,0.0,0.0,0.0,0.0,0.4953,1.1729,2.0407,2.0741,1.7417,1.0434,0.3568,0.0,0.0,0.0,0.0,0.0,0.0,0.0,0.0,0.0,0.0,0.0,0.0,0.0,0.0,0.0,0.5051,1.3202,2.0884,2.3905,2.4024,2.3831,1.8769,1.095,0.2749,0.0,0.2176,1.4052,0.9426,0.0,0.0,0.0,0.0,0.0,0.0,0.3225,1.5928,2.2524,2.6133,2.6081,2.6067,2.6054,2.6067,2.612,2.6173,2.594,2.1216,1.9221,2.5239,2.6133,2.6054,2.6054,2.6054,2.6054,2.6054,2.6054,2.6054,2.6054,2.6054,2.6054,2.6054,2.6094,2.616,2.5914,1.1446,0.2623,0.0,0.0,0.0,0.0,0.0,0.0,0.0,0.0,0.0,-0.9214,-1.1088,-0.9184,-1.2061,-1.2486,-1.2429,-1.347,-1.3952,-1.4416,-1.5405,-1.6073,-1.6416,-1.6772,-1.7405,-1.8024,-1.8244,-1.2979,-0.848,-0.8003,-0.3269,0.0,0.0,0.0,0.0,0.0,0.0,0.0,0.0,0.5474,0.6275,0.0261,0.9395,1.6728,2.0679,2.0888,1.7542,1.0648,0.3523,0.0,0.0,0.0,0.0,0.0,0.0,0.0,0.0,0.0,0.0,0.0,0.0,0.0,0.0578,0.6978,1.2332,1.7476,2.1665,2.3483,2.3734,2.3635,2.0759,1.5704,0.7583,0.7344,1.2034,2.1374,1.3027,0.0,0.0,0.0,0.0,0.0,0.5389,1.3409,2.3281,2.5936,2.5949,2.6028,2.6054,2.6054,2.6054,2.6081,2.6133,2.6199,2.316,2.2144,2.5538,2.612,2.6054,2.6054,2.6054,2.6054,2.6054,2.6054,2.6054,2.6054,2.6054,2.6054,2.6054,2.6107,2.4515,2.0924,0.7495,0.0,0.0,0.0,0.0,0.0,0.0,0.0,0.0,0.0,0.0,-0.52,-0.7409,-0.7379,-0.9217,-1.0118,-1.1104,0.0,-1.2922,-1.2922,-1.4095,-1.4979,-1.5585,-1.5704,-1.6482,-1.7072,-1.745,-1.2589,-1.1044,-1.7798,-0.7813,0.0,0.0,0.0,0.0,0.0,0.0,0.0741,0.2294,1.2453,1.3876,0.2877,1.3338,1.9939,2.0731,2.0744,1.7378,1.0622,0.3465,0.0,0.0,0.0,0.0,0.0,0.0,0.0,0.0,0.0,0.0,0.0,0.0,0.057,0.2587,1.7037,2.2709,2.3101,2.3074,2.314,2.3444,2.3453,2.3583,2.2437,1.5696,1.8246,2.4156,2.326,1.3413,0.2134,0.061,0.0,0.031,0.1238,1.374,2.5696,2.5593,2.5606,2.5645,2.5936,2.6001,2.6001,2.6041,2.6054,2.6067,2.6133,2.6094,2.6067,2.6133,2.6081,2.6054,2.6054,2.6054,2.6054,2.6054,2.6054,2.6054,2.6054,2.6054,2.6054,2.6054,2.612,2.22,1.3355,0.4561,0.0,0.0,0.0,0.0,0.0,0.0,0.0,0.0,0.0,0.0,0.0,0.0,0.0,0.0,0.0,0.0,0.0,-0.9784,-1.0205,-1.1379,-1.1933,-1.25,-1.3449,-1.453,-1.5288,-1.5078,-1.5299,-1.5692,-1.6275,-0.6808,0.0,0.0,0.0,0.0,0.0,0.0,0.4632,1.5886,0.8932,0.7752,1.6229,1.411,1.514,2.0666,2.0718,1.7562,1.0469,0.3447,0.0,0.0,0.0,0.0,0.0,0.0,0.0,0.0,0.0,0.0,0.0,0.0,0.3689,0.994,1.91,2.2528,2.2758,2.2692,2.2837,2.3101,2.2932,2.2837,2.3043,2.1896,2.2546,2.2338,1.5865,1.5944,1.5713,0.3349,0.0,0.153,0.8636,1.7687,2.5013,2.5237,2.5276,2.5355,2.5632,2.5685,2.5764,2.6001,2.6054,2.6067,2.6133,2.6094,2.6054,2.6067,2.6054,2.6054,2.6054,2.6054,2.6054,2.6054,2.6054,2.6054,2.6054,2.6054,2.6054,2.6054,2.616,2.2245,1.3355,0.457,0.0,0.0,0.0,0.0,0.0,0.0,0.0,0.0,0.0,0.0,0.0,0.0,0.0,0.0,0.0,0.0,0.0,0.0,0.0,0.0,0.0,-1.1026,-1.2793,0.0,-1.4363,-1.543,-1.5829,-1.4906,-1.2129,-0.9505,-0.5854,-0.0664,0.0,0.0,0.0,0.6276,1.0494,1.0401,1.0303,1.0473,1.043,1.385,1.7259,2.0692,2.0744,1.5719,0.547,0.1841,0.0,0.0,0.0,0.0,0.0,0.0,0.0,0.0,0.0,0.0,0.0,0.0,0.446,1.2021,1.9221,2.1782,2.1729,2.1874,2.2112,2.2389,2.2437,2.2737,2.2997,2.3444,2.3258,2.214,1.8065,1.4247,0.9821,0.2095,0.0,0.3018,1.5505,2.1742,2.4683,2.492,2.4973,2.5052,2.5342,2.5395,2.5448,2.5593,2.5738,2.5843,2.587,2.5856,2.583,2.583,2.5949,2.6054,2.6054,2.6054,2.6056,2.6139,2.5929,2.5722,2.6097,2.5942,2.5751,2.6028,2.6173,2.2256,1.3355,0.4573,0.0,0.0,0.0,0.0,0.0,0.0,0.0,0.0,0.0,0.0,0.0,0.0,0.0,0.0,0.0,0.0,0.0,0.0,0.0,0.0,0.0,0.0,0.0,0.0,0.0,-1.5603,-1.5176,-1.2998,-0.818,-1.2095,-1.1353,-0.1272,0.0,0.0,0.0,1.0129,1.3214,0.4588,1.2063,1.3065,0.4372,1.4758,2.0859,2.0653,1.9358,1.2525,0.0,0.0,0.0,0.0,0.0,0.0,0.0,0.0,0.0,0.0,0.0,0.0,0.0,0.1636,0.6565,1.3987,1.9351,2.1184,2.0965,2.1255,2.1505,2.1769,2.2244,2.26,2.2877,2.3127,2.2971,2.1881,1.8973,0.9608,0.0,0.0,0.1179,0.5639,2.0622,2.4142,2.4353,2.4538,2.4617,2.4736,2.5039,2.5105,2.5131,2.5184,2.5369,2.5527,2.5527,2.5395,2.5509,2.5858,2.5874,2.6104,2.5983,2.5936,2.5956,2.6144,2.5763,2.5712,2.6017,2.5876,2.5616,2.6081,2.6203,2.2114,1.3375,0.4787,0.0,0.0,0.0,0.0,0.0,0.0,-0.0294,-0.0592,-0.0797,-0.0767,0.0,0.0,0.0,0.0,0.0,0.0,0.0,0.0,0.0,0.0,0.0,0.0,0.0,0.0,0.0,0.0,-1.3356,-1.2331,-0.7698,-1.1141,-1.047,-0.1036,0.0,0.0,0.0,0.152,0.6897,1.7608,0.8543,0.6796,1.7303,1.9571,0.0,0.0,0.0,0.7204,0.0,0.0,0.0,0.0,0.0,0.0,0.0,0.0,0.0,0.0,0.0,0.0,0.0545,0.7371,1.4411,2.1291,2.0875,2.107,2.1268,2.1545,2.1677,2.1703,2.1769,0.0,0.0,2.2047,2.2362,2.0146,0.6493,0.1407,0.0,0.0,0.5205,1.3039,2.2091,2.4107,2.3958,2.3984,2.4169,2.4432,2.4736,2.4802,2.4881,2.5144,2.5224,2.5237,2.5237,2.5253,2.5228,2.5902,2.5909,2.5991,2.5983,2.6173,2.6263,2.6656,2.6496,0.0,2.6497,2.646,2.6334,2.6344,2.607,2.2214,1.3435,0.4682,0.0,0.0,0.0,0.0,0.0,0.0,-0.1065,-0.3186,-0.3035,-0.3331,0.0,0.0,0.0,0.0,0.0,0.0,0.0,0.0,0.0,0.0,0.0,0.0,0.0,0.0,0.0,0.0,-1.2487,-1.1752,-0.9362,-0.8871,-0.6644,-0.0799,0.0,0.0,0.0,0.0,0.2372,0.8333,1.0765,1.454,2.0183,2.0471,2.0169,2.0042,1.6779,1.3878,1.111,0.3645,0.0,0.0,0.0,0.0,0.0,0.0,0.0,0.0,0.0,0.0,0.0263,0.3422,0.9175,1.6148,0.0,0.0,0.0,0.0,2.0398,2.0727,2.0886,2.1136,2.1387,2.1705,1.8481,1.3117,0.2961,0.0,0.0,0.0,0.5783,1.3962,2.1913,2.3699,2.3417,2.3589,2.372,2.3839,2.3958,2.4129,2.4287,2.4406,2.4709,0.0,2.4261,2.4468,2.4564,2.485,2.555,2.5751,2.5788,2.6105,2.6433,2.6471,2.6515,2.631,2.6936,2.6319,0.0,0.0,0.0,2.4419,2.1035,1.2375,0.0,0.0,0.0,0.0,-0.0,-0.2727,0.0,0.0,-0.5569,-0.5607,0.0,0.0,0.0,0.0,0.0,0.0,0.0,0.0,0.0,0.0,0.0,0.0,0.0,0.0,0.0,0.0,-1.1269,-1.0982,-1.0097,-0.7027,-0.4228,-0.2585,-0.0958,0.0,0.0,0.0,0.0,0.0,0.9446,1.6709,2.0239,2.005,1.9781,1.9702,1.9221,1.7479,1.3961,0.4624,0.0,0.0,0.0,0.0,0.0,0.0,0.0,0.0,0.0,0.0,0.0,0.0,0.4311,1.132,1.6978,1.9064,1.9,1.9158,1.9488,1.9897,2.0187,2.0477,2.0741,2.0793,1.4519,0.5956,0.1297,0.0,0.0,0.0,0.5792,1.3675,2.1049,2.2929,2.2811,2.3035,2.3272,2.3444,2.3444,2.3615,2.3773,2.3773,2.3971,2.3905,2.314,2.3707,2.3934,2.4231,2.4645,2.5226,2.5626,2.5803,2.6307,2.6846,2.6638,2.6739,2.7193,2.6526,2.6388,2.6832,2.651,2.628,2.6516,1.7721,0.8771,0.0291,0.0,-0.024,0.0,0.0,0.0,0.0,0.0,0.0,0.0,0.0,0.0,0.0,0.0,0.0,0.0,0.0,0.0,0.0,0.0,0.0,0.0,0.0,0.0,0.0,0.0,0.0,-0.8945,-0.5724,-0.4753,-0.8136,-0.3438,0.0,0.0,0.0,0.0,0.0,0.0418,0.6017,1.8487,1.9026,1.9021,1.9128,1.8973,1.311,0.0737,0.0249,0.0,0.0,0.0,0.0,0.0,0.0,0.0,0.0,0.0,0.0,0.0,0.0,0.3724,1.0248,1.7103,1.9222,1.8763,1.9316,1.9527,1.9593,1.9897,2.02,2.0223,1.9246,1.048,0.0256,0.0,0.0,0.0,0.0,0.5373,1.2846,1.9901,2.1891,2.2165,2.2178,2.2824,2.3444,2.3444,2.3457,2.3457,2.3457,2.3022,2.2494,2.1993,2.2672,2.3338,2.4115,2.3925,0.0,2.5212,2.5368,2.6132,2.7622,2.7496,2.7294,2.7267,2.7146,2.7051,2.6806,2.6746,2.6557,2.6186,1.7153,0.8513,0.0268,0.0,-0.1096,-0.3331,0.0,0.0,0.0,0.0,0.0,0.0,0.0,0.0,0.0,0.0,0.0,0.0,0.0,0.0,0.0,0.0,0.0,0.0,0.0,0.0,0.0,0.0,0.0,0.0,-0.6358,-0.6514,-0.8449,-0.3599,0.0,0.0,-0.3551,-0.547,-0.4765,-0.171,0.1798,0.6103,1.4519,1.8953,1.9124,1.0788,0.4443,0.0,0.0,0.0,0.0,0.0,0.0,0.0,0.0,0.0,0.0,0.0,0.0,0.0,0.0,0.6285,1.5971,1.7977,1.8552,1.8459,1.8618,1.867,1.8723,1.9013,1.9211,1.7617,0.9155,0.3587,0.0,0.0,0.0,0.0,0.0,0.5129,1.2193,1.9011,2.0944,2.1083,2.1479,2.165,2.1769,2.1967,2.2019,2.2072,2.2257,2.1663,2.1237,2.1503,1.9076,1.8652,2.2807,2.3921,2.4603,2.4778,2.5726,2.6443,2.6937,2.7591,2.765,2.765,2.7347,2.6969,2.6872,2.6199,2.5753,2.4934,1.6652,0.8382,0.0285,0.0,-0.117,-0.3593,0.0,0.0,0.0,0.0,0.0,0.0,0.0,0.0,0.0,0.0,0.0,0.0,0.0,0.0,0.0,0.0,0.0,0.0,0.0,0.0,0.0,0.0,0.0,0.0,0.0,0.0,-0.5843,-0.2248,0.0,-0.2911,-0.6184,-0.7334,-0.5254,-0.2465,-0.1413,-0.2394,0.4814,1.0077,1.2218,0.4365,0.0,0.0,0.0,0.0,0.0,0.0,0.0,0.0,0.0,0.0,0.0,0.0,0.0,0.024,0.2374,0.8046,1.5386,1.5584,1.5522,1.5476,1.7273,1.7007,1.6074,1.7668,1.8244,1.6471,0.3933,0.0,0.0,0.0,0.0,0.0,0.0,0.65,1.4427,1.8684,2.0023,2.0345,2.0727,2.0833,2.0886,2.1083,2.1044,2.0951,2.0938,2.0569,2.051,2.0621,1.6561,1.562,2.2391,2.408,2.452,2.4922,2.5514,2.6212,2.67,2.728,2.7597,2.7491,2.703,2.6713,2.6608,2.5685,2.4833,2.4223,1.6216,0.8047,0.0277,0.0,-0.1366,0.0,0.0,0.0,0.0,0.0,0.0,0.0,0.0,0.0,0.0,0.0,0.0,0.0,0.0,0.0,0.0,0.0,0.0,0.0,0.0,0.0,0.0,0.0,0.0,0.0,0.0,0.0,-0.0622,-0.0131,0.0,0.0,0.0,0.0,-0.2089,-0.2269,-0.3801,-0.6753,-0.7733,-0.5853,-0.0583,-0.041,-0.0211,-0.0,0.0,0.0,0.0,0.0,0.0,0.0,0.0,0.0,0.0,0.0,0.0,0.0457,0.6008,0.8702,0.9159,1.0697,1.0872,1.0377,1.4937,1.4274,1.1715,1.5418,1.6981,1.5398,0.3609,-0.0217,0.0,0.0,0.0,0.0,0.0,0.9641,1.9004,1.8936,1.9541,2.0076,1.9923,2.0358,2.0754,2.0767,2.0543,2.0134,1.9475,1.9849,1.9595,1.8308,0.0,1.375,2.2962,2.3343,2.3128,2.5284,2.5309,2.5527,2.6384,2.699,2.7215,2.6924,2.6634,2.6344,2.6028,2.492,2.4195,2.4307,1.5779,0.8055,0.0977,0.0222,0.0,0.0,0.0,0.0,0.0,0.0,0.0,0.0,0.0,0.0,0.0,0.0,0.0,0.0,0.0,0.0,0.0,0.0,0.0,0.0,0.0,0.0,0.0,0.0,0.0,0.0,-0.5195,-0.3101,-0.0349,-0.186,-0.3649,0.0,0.0,0.0,0.0,0.0,0.0,-0.6156,-0.3676,-0.3097,-0.5145,-0.6122,-0.433,-0.0,0.0,0.0,0.0,0.0,0.0,0.0,0.0,0.0,0.0,0.0,0.0,-0.0446,-0.4801,0.1493,1.4016,1.5266,1.5594,1.4669,0.9474,0.833,0.9448,1.0318,0.6584,0.0792,-0.3087,-0.2461,0.0,0.0,0.0,0.0,0.0,0.0,1.9068,1.8681,1.8944,1.9311,1.9262,1.9435,1.9593,1.9818,1.9633,1.9348,1.8762,1.912,1.6173,0.6504,0.37,0.0,2.1023,1.8502,1.7365,2.3731,2.4861,2.5448,2.6094,2.6674,2.699,2.6911,2.645,2.5949,2.5448,2.4525,2.3694,2.275,1.488,1.1699,1.4213,0.0,0.0,0.0,0.0,0.0,0.0,0.0,0.0,0.0,0.0,0.0,0.0,0.0,0.0,0.0,0.0,0.0,0.0,0.0,0.0,0.0,0.0,0.0,0.0,0.0,0.0,0.0,-0.4729,-0.2966,-0.1015,-0.2146,-0.3241,0.0,0.0,0.0,0.0,0.0,0.0,0.0,0.0,0.0,-0.7648,-0.6586,-0.5054,-0.313,-0.3083,-0.2064,0.0,0.0,0.0,-0.0,-0.1049,-0.1482,-0.1694,-0.2544,-0.3717,-0.431,-0.1241,0.5554,1.3821,0.0,0.0,0.0,0.0,0.9046,0.856,0.7389,0.0495,-0.7576,-0.62,0.0,0.0,0.0,0.0,0.0,0.0,0.0,1.8316,1.5387,1.6655,1.8681,1.8528,1.8618,1.8763,1.8934,1.8893,1.7924,1.5151,1.2523,0.8397,0.1225,0.0,0.0,0.0,0.0,1.4721,2.2906,2.4451,2.4973,2.5434,2.6226,2.6674,2.6542,2.6001,2.5421,2.4841,2.3747,2.2586,2.14,1.6934,1.3168,0.0,0.0,0.0,0.0,0.0,0.0,0.0,0.0,0.0,0.0,0.0,0.0,0.0,0.0,0.0,0.0,0.0,0.0,0.0,0.0,0.0,0.0,0.0,0.0,0.0,0.0,0.0,0.0,0.0,-0.4293,-0.223,0.0,0.0,0.0,0.0,0.0,0.0,0.0,0.0,0.0,0.0,0.0,0.0,0.0,-0.4192,-0.6725,-0.6468,-0.4193,-0.0168,-0.0357,-0.0368,-0.0553,-0.2634,-0.3428,-0.3628,-0.647,0.0,-0.7994,0.6899,0.0,0.0,0.0,0.0,0.0,0.0,0.0,0.0,0.0,0.0,0.0,0.0,0.0,0.0,0.0,0.0,0.0,0.0,0.0,0.0,0.0,0.0,1.8242,1.7687,1.8011,1.7967,1.7176,1.6468,1.4321,0.9249,0.384,0.0,0.0,0.0,0.0,0.0,0.0,0.0,2.2545,2.3978,2.4419,2.4709,2.5764,2.6305,2.5962,2.5448,2.4828,2.4116,2.2853,2.1497,2.0566,1.8023,0.0,0.0,0.0,0.0,0.0,0.0,0.0,0.0,0.0,0.0,0.0,0.0,0.0,0.0,0.0,0.0,0.0,0.0,0.0,0.0,0.0,0.0,0.0,0.0,0.0,0.0,0.0,0.0,0.0,0.0,0.0,0.0,0.0,0.0,0.0,0.0,0.0,0.0,0.0,0.0,0.0,0.0,0.0,0.0,0.0,0.0,0.0,0.0,0.0,0.0,-0.1841,-0.2351,-0.2851,-0.3384,-0.349,-0.3755,-0.8413,-0.7203,-0.1813,-0.06,0.0,0.0,0.0,0.0,0.0,0.0,0.0,0.0,0.0,0.0,0.0,0.0,0.0,0.0,0.0,0.0,0.0,0.0,0.0,0.0,0.0,0.0,1.7393,1.6576,1.6936,1.6128,1.1492,0.0,0.0,0.0,0.0,0.0,0.0,0.0,0.0,0.0,0.0,0.0,2.2499,2.3993,2.4419,2.4709,2.558,2.5909,2.5395,2.5026,2.4274,2.2969,2.1938,2.0775,0.0,0.0,0.0,0.0,0.0,0.0,0.0,0.0,0.0,0.0,0.0,0.0,0.0,0.0,0.0,0.0,0.0,0.0,0.0,0.0,0.0,0.0,0.0,0.0,0.0,0.0,0.0,0.0,0.0,0.0,0.0,0.0,0.0,0.0,0.0,0.0,0.0,0.0,0.0,0.0,0.0,0.0,0.0,0.0,0.0,0.0,0.0,0.0,0.0,0.0,0.0,0.0,0.0,0.0,0.0,0.0,0.0,0.0,-0.5344,-0.4711,0.0,0.0,0.0,0.0,0.0,0.0,0.0,0.0,0.0,0.0,0.0,0.0,0.0,0.0,0.0,0.0,0.0,0.0,0.0,0.0,0.0,0.0,0.0,0.0,0.0,0.0,0.0,0.0,0.0,0.0,0.0,0.0,0.0,0.0,0.0,0.0,0.0,0.0,0.0,0.0,2.1915,2.3573,2.4261,2.4696,2.5382,2.5645,2.5224,2.4643,2.3667,2.2237,2.1171,0.0,0.0,0.0,0.0,0.0,0.0,0.0,0.0,0.0,0.0,0.0,0.0,0.0,0.0,0.0,0.0,0.0,0.0,0.0,0.0,0.0,0.0,0.0,0.0,0.0,0.0,0.0,0.0,0.0,0.0,0.0,0.0,0.0,0.0,0.0,0.0,0.0,0.0,0.0,0.0,0.0,0.0,0.0,0.0,0.0,0.0,0.0,0.0,0.0,0.0,0.0,0.0,0.0,0.0,0.0,0.0,0.0,0.0,0.0,-0.292,-0.3464,0.0,0.0,0.0,0.0,0.0,0.0,0.0,0.0,0.0,0.0,0.0,0.0,0.0,0.0,0.0,0.0,0.0,0.0,0.0,0.0,0.0,0.0,0.0,0.0,0.0,0.0,0.0,0.0,0.0,0.0,0.0,0.0,0.0,0.0,0.0,0.0,0.0,0.0,0.0,0.0,2.159,2.3227,2.3997,2.4512,2.5131,2.5382,2.5039,2.4261,2.337,2.1983,1.9212,0.0,0.0,0.0,0.0,0.0,0.0,0.0,0.0,0.0,0.0,0.0,0.0,0.0,0.0,0.0,0.0,0.0,0.0,0.0,0.0,0.0,0.0,0.0,0.0,0.0,0.0,0.0,0.0,0.0,0.0,0.0,0.0,0.0,0.0,0.0,0.0,0.0,0.0,0.0,0.0,0.0,0.0,0.0,0.0,0.0,0.0,0.0,0.0,0.0,0.0,0.0,0.0,0.0,0.0,0.0,0.0,0.0,0.0,0.0,0.0,0.0,0.0,0.0,0.0,0.0,0.0,0.0,0.0,0.0,0.0,0.0,0.0,0.0,0.0,0.0,0.0,0.0,0.0,0.0,0.0,0.0,0.0,0.0,0.0,0.0,0.0,0.0,0.0,0.0,0.0,0.0,0.0,0.0,0.0,0.0,0.0,0.0,0.0,0.0,0.0,0.0,2.1585,2.3138,2.3615,2.3931,2.4722,2.4999,2.4432,2.3839,2.2877,2.1466,0.0,0.0,0.0,0.0,0.0,0.0,0.0,0.0,0.0,0.0,0.0,0.0,0.0,0.0,0.0,0.0,0.0,0.0,0.0,0.0,0.0,0.0,0.0,0.0,0.0,0.0,0.0,0.0,0.0,0.0,0.0,0.0,0.0,0.0,0.0,0.0,0.0,0.0,0.0,0.0,0.0,0.0,0.0,0.0,0.0,0.0,0.0,0.0,0.0,0.0,0.0,0.0,0.0,0.0,0.0,0.0,0.0,0.0,0.0,0.0,0.0,0.0,0.0,0.0,0.0,0.0,0.0,0.0,0.0,0.0,0.0,0.0,0.0,0.0,0.0,0.0,0.0,0.0,0.0,0.0,0.0,0.0,0.0,0.0,0.0,0.0,0.0,0.0,0.0,0.0,0.0,0.0,0.0,0.0,0.0,0.0,0.0,0.0,0.0,0.0,0.0,0.0,2.1643,2.3033,2.3417,2.4063,2.4604,2.4683,2.4103,2.3523,2.261,2.1691,0.0,0.0,0.0,0.0,0.0,0.0,0.0,0.0,0.0,0.0,0.0,0.0,0.0,0.0,0.0,0.0,0.0,0.0,0.0,0.0,0.0,0.0,0.0,0.0,0.0,0.0,0.0,0.0,0.0,0.0,0.0,0.0,0.0,0.0,0.0,0.0,0.0,0.0,0.0,0.0,0.0,0.0,0.0,0.0,0.0,0.0,0.0,0.0,0.0,0.0,0.0,0.0,0.0,0.0,0.0,0.0,0.0,0.0,0.0,0.0,0.0,0.0,0.0,0.0,0.0,0.0,0.0,0.0,0.0,0.0,0.0,0.0,0.0,0.0,0.0,0.0,0.0,0.0,0.0,0.0,0.0,0.0,0.0,0.0,0.0,0.0,0.0,0.0,0.0,0.0,0.0,0.0,0.0,0.0,0.0,0.0,0.0,0.0,0.0,0.0,0.0,0.0,2.1288,2.2516,2.3074,2.3958,2.4314,2.4327,2.3931,2.3333,2.2558,2.1766,0.0,0.0,0.0,0.0,0.0,0.0,0.0,0.0,0.0,0.0,0.0,0.0,0.0,0.0,0.0,0.0,0.0,0.0,0.0,0.0,0.0,0.0,0.0,0.0,0.0,0.0,0.0,0.0,0.0,0.0,0.0,0.0,0.0,0.0,0.0,0.0,0.0,0.0,0.0,0.0,0.0,0.0,0.0,0.0,0.0,0.0,0.0,0.0,0.0,0.0,0.0,0.0,0.0,0.0,0.0,0.0,0.0,0.0,0.0,0.0,0.0,0.0,0.0,0.0,0.0,0.0,0.0,0.0,0.0,0.0,0.0,0.0,0.0,0.0,0.0,0.0,0.0,0.0,0.0,0.0,0.0,0.0,0.0,0.0,0.0,0.0,0.0,0.0,0.0,0.0,0.0,0.0,0.0,0.0,0.0,0.0,0.0,0.0,0.0,0.0,0.0,0.0,2.0867,2.1968,2.2481,2.3364,2.372,2.3892,2.3892,2.3178,2.225,0.0,0.0,0.0,0.0,0.0,0.0,0.0,0.0,0.0,0.0,0.0,0.0,0.0,0.0,0.0,0.0,0.0,0.0,0.0,0.0,0.0,0.0,0.0,0.0,0.0,0.0,0.0,0.0,0.0,0.0,0.0,0.0,0.0,0.0,0.0,0.0,0.0,0.0,0.0,0.0,0.0,0.0,0.0,0.0,0.0,0.0,0.0,0.0,0.0,0.0,0.0,0.0,0.0,0.0,0.0,0.0,0.0,0.0,0.0,0.0,0.0,0.0,0.0,0.0,0.0,0.0,0.0,0.0,0.0,0.0,0.0,0.0,0.0,0.0,0.0,0.0,0.0,0.0,0.0,0.0,0.0,0.0,0.0,0.0,0.0,0.0,0.0,0.0,0.0,0.0,0.0,0.0,0.0,0.0,0.0,0.0,0.0,0.0,0.0,0.0,0.0,0.0,0.0,2.1421,2.2105,2.2649,2.2946,2.3298,2.3509,2.3298,2.2706,2.0029,1.4876,0.0,0.0,0.0,0.0,0.0,0.0,0.0,0.0,0.0,0.0,0.0,0.0,0.0,0.0,0.0,0.0,0.0,0.0,0.0,0.0,0.0,0.0,0.0,0.0,0.0,0.0,0.0,0.0,0.0,0.0,0.0,0.0,0.0,0.0,0.0,0.0,0.0,0.0,0.0,0.0,0.0,0.0,0.0,0.0,0.0,0.0,0.0,0.0,0.0,0.0,0.0,0.0,0.0,0.0,0.0,0.0,0.0,0.0,0.0,0.0,0.0,0.0,0.0,0.0,0.0,0.0,0.0,0.0,0.0,0.0,0.0,0.0,0.0,0.0,0.0,0.0,0.0,0.0,0.0,0.0,0.0,0.0,0.0,0.0,0.0,0.0,0.0,0.0,0.0,0.0,0.0,0.0,0.0,0.0,0.0,0.0,0.0,0.0,0.0,0.0,0.0,0.0,0.0,2.022,2.2208,2.2402,2.3008,2.3167,2.2863,2.2412,2.0089,1.5135,0.0,0.0,0.0,0.0,0.0,0.0,0.0,0.0,0.0,0.0,0.0,0.0,0.0,0.0,0.0,0.0,0.0,0.0,0.0,0.0,0.0,0.0,0.0,0.0,0.0,0.0,0.0,0.0,0.0,0.0,0.0,0.0,0.0,0.0,0.0,0.0,0.0,0.0,0.0,0.0,0.0,0.0,0.0,0.0,0.0,0.0,0.0,0.0,0.0,0.0,0.0,0.0,0.0,0.0,0.0,0.0,0.0,0.0,0.0,0.0,0.0,0.0,0.0,0.0,0.0,0.0,0.0,0.0,0.0,0.0,0.0,0.0,0.0,0.0,0.0,0.0,0.0,0.0,0.0,0.0,0.0,0.0,0.0,0.0,0.0,0.0,0.0,0.0,0.0,0.0,0.0,0.0,0.0,0.0,0.0,0.0,0.0,0.0,0.0,0.0,0.0,0.0,0.0,1.7304,2.1413,2.2389,2.2745,2.2797,2.2547,2.2358,2.2,2.0884,2.0312,0.0,0.0,0.0,0.0,0.0,0.0,0.0,0.0,0.0,0.0,0.0,0.0,0.0,0.0,0.0,0.0,0.0,0.0,0.0,0.0,0.0,0.0,0.0,0.0,0.0,0.0,0.0,0.0,0.0,0.0,0.0,0.0,0.0,0.0,0.0,0.0,0.0,0.0,0.0,0.0,0.0,0.0,0.0,0.0,0.0,0.0,0.0,0.0,0.0,0.0,0.0,0.0,0.0,0.0,0.0,0.0,0.0,0.0,0.0,0.0,0.0,0.0,0.0,0.0,0.0,0.0,0.0,0.0,0.0,0.0,0.0,0.0,0.0,0.0,0.0,0.0,0.0,0.0,0.0,0.0,0.0,0.0,0.0,0.0,0.0,0.0,0.0,0.0,0.0,0.0,0.0,0.0,0.0,0.0,0.0,0.0,0.0,0.0,0.0,0.0,0.0,0.0,1.9768,2.113,2.1387,2.1835,2.198,2.1914,2.1531,2.0987,2.0884,1.538,0.0,0.0,0.0,0.0,0.0,0.0,0.0,0.0,0.0,0.0,0.0,0.0,0.0,0.0,0.0,0.0,0.0,0.0,0.0,0.0,0.0,0.0,0.0,0.0,0.0,0.0,0.0,0.0,0.0,0.0,0.0,0.0,0.0,0.0,0.0,0.0,0.0,0.0,0.0,0.0,0.0,0.0,0.0,0.0,0.0,0.0,0.0,0.0,0.0,0.0,0.0,0.0,0.0,0.0,0.0,0.0,0.0,0.0,0.0,0.0,0.0,0.0,0.0,0.0,0.0,0.0,0.0,0.0,0.0,0.0,0.0,0.0,0.0,0.0,0.0,0.0,0.0,0.0,0.0,0.0,0.0,0.0,0.0,0.0,0.0,0.0,0.0,0.0,0.0,0.0,0.0,0.0,0.0,0.0,0.0,0.0,0.0,0.0,0.0,0.0,0.0,0.0,2.0141,2.0539,2.0957,2.1453,2.165,2.1518,2.0978,2.0508,2.0432,1.2996,0.0,0.0,0.0,0.0,0.0,0.0,0.0,0.0,0.0,0.0,0.0,0.0,0.0,0.0,0.0,0.0,0.0,0.0,0.0,0.0,0.0,0.0,0.0,0.0,0.0,0.0,0.0,0.0,0.0,0.0,0.0,0.0,0.0,0.0,0.0,0.0,0.0,0.0,0.0,0.0,0.0,0.0,0.0,0.0,0.0,0.0,0.0,0.0,0.0,0.0,0.0,0.0,0.0,0.0,0.0,0.0,0.0,0.0,0.0,0.0,0.0,0.0,0.0,0.0,0.0,0.0,0.0,0.0,0.0,0.0,0.0,0.0,0.0,0.0,0.0,0.0,0.0,0.0,0.0,0.0,0.0,0.0,0.0,0.0,0.0,0.0,0.0,0.0,0.0,0.0,0.0,0.0,0.0,0.0,0.0,0.0,0.0,0.0,0.0,0.0,0.0,0.0,0.0,1.9031,2.0457,2.1237,2.14,2.1162,2.0569,2.0055,1.976,0.0,0.0,0.0,0.0,0.0,0.0,0.0,0.0,0.0,0.0,0.0,0.0,0.0,0.0,0.0,0.0,0.0,0.0,0.0,0.0,0.0,0.0,0.0,0.0,0.0,0.0,0.0,0.0,0.0,0.0,0.0,0.0,0.0,0.0,0.0,0.0,0.0,0.0,0.0,0.0,0.0,0.0,0.0,0.0,0.0,0.0,0.0,0.0,0.0,0.0,0.0,0.0,0.0,0.0,0.0,0.0,0.0,0.0,0.0,0.0,0.0,0.0,0.0,0.0,0.0,0.0,0.0,0.0,0.0,0.0,0.0,0.0,0.0,0.0,0.0,0.0,0.0,0.0,0.0,0.0,0.0,0.0,0.0,0.0,0.0,0.0,0.0,0.0,0.0,0.0,0.0,0.0,0.0,0.0,0.0,0.0,0.0,0.0,0.0,0.0,0.0,0.0,0.0,0.0,1.3945,1.9213,2.0216,2.0582,2.053,1.9765,1.8942,1.8544,0.0,0.0,0.0,0.0,0.0,0.0,0.0,0.0,0.0,0.0,0.0,0.0,0.0,0.0]}]]]